[[{"header":{"parameterUnit":"m.s-1","parameterCategory":1,"la1":30.6,"la2":28.766,"lo1":-90.7593,"lo2":-88.6598,"dy":0.0162,"dx":0.0183,"nx":116,"ny":114,"refTime":"2023-09-16T00:00:00:Z","depth":0,"parameterNumber":2,"parameterNumberName":"U-component_of_WINDS"},"data":[0.0,0.0,0.0,0.0,0.0,0.0,0.0,0.0,0.0,0.0,0.0,0.0,0.0,0.0,0.0,0.0,0.0,0.0,0.0,0.0,0.0,0.0,0.0,0.0,0.0,0.0,0.0,0.0,0.0,0.0,0.0,0.0,0.0,0.0,0.0,0.0,0.0,0.0,0.0,0.0,0.0,0.0,0.0,0.0,0.0,0.0,0.0,0.0,0.0,0.0,0.0,0.0,0.0,0.0,0.0,0.0,0.0,0.0,0.0,0.0,0.0,0.0,0.0,0.0,0.0,0.0,0.0,0.0,0.0,0.0,0.0,0.0,0.0,0.0,0.0,0.0,0.0,0.0,0.0,0.0,0.0,0.0,0.0,0.0,0.0,0.0,0.0,0.0,0.0,0.0,0.0,0.0,0.0,0.0,0.0,0.0,0.0,0.0,0.0,0.0,0.0,0.0,0.0,0.0,0.0,0.0,0.0,0.0,0.0,0.0,0.0,0.0,0.0,0.0,0.0,0.0,0.0,0.0,0.0,0.0,0.0,0.0,0.0,0.0,0.0,0.0,0.0,0.0,0.0,0.0,0.0,0.0,0.0,0.0,0.0,0.0,0.0,0.0,0.0,0.0,0.0,0.0,0.0,0.0,0.0,0.0,0.0,0.0,0.0,0.0,0.0,0.0,0.0,0.0,0.0,0.0,0.0,0.0,0.0,0.0,0.0,0.0,0.0,0.0,0.0,0.0,0.0,0.0,0.0,0.0,0.0,0.0,0.0,0.0,0.0,0.0,0.0,0.0,0.0,0.0,0.0,0.0,0.0,0.0,0.0,0.0,0.0,0.0,0.0,0.0,0.0,0.0,0.0,0.0,0.0,0.0,0.0,0.0,0.0,0.0,0.0,0.0,0.0,0.0,0.0,0.0,0.0,0.0,0.0,0.0,0.0,0.0,0.0,0.0,0.0,0.0,0.0,0.0,0.0,0.0,0.0,0.0,0.0,0.0,0.0,0.0,0.0,0.0,0.0,0.0,0.0,0.0,0.0,0.0,0.0,0.0,0.0,0.0,0.0,0.0,0.0,0.0,0.0,0.0,0.0,0.0,0.0,0.0,0.0,0.0,0.0,0.0,0.0,0.0,0.0,0.0,0.0,0.0,0.0,0.0,0.0,0.0,0.0,0.0,0.0,0.0,0.0,0.0,0.0,0.0,0.0,0.0,0.0,0.0,0.0,0.0,0.0,0.0,0.0,0.0,0.0,0.0,0.0,0.0,0.0,0.0,0.0,0.0,0.0,0.0,0.0,0.0,0.0,0.0,0.0,0.0,0.0,0.0,0.0,0.0,0.0,0.0,0.0,0.0,0.0,0.0,0.0,0.0,0.0,0.0,0.0,0.0,0.0,0.0,0.0,0.0,0.0,0.0,0.0,0.0,0.0,0.0,0.0,0.0,0.0,0.0,0.0,0.0,0.0,0.0,0.0,0.0,0.0,0.0,0.0,0.0,0.0,0.0,0.0,0.0,0.0,0.0,0.0,0.0,0.0,0.0,0.0,0.0,0.0,0.0,0.0,0.0,0.0,0.0,0.0,0.0,0.0,0.0,0.0,0.0,0.0,0.0,0.0,0.0,0.0,0.0,0.0,0.0,0.0,0.0,0.0,0.0,0.0,0.0,0.0,0.0,0.0,0.0,0.0,0.0,0.0,0.0,0.0,0.0,0.0,0.0,0.0,0.0,0.0,0.0,0.0,0.0,0.0,0.0,0.0,0.0,0.0,0.0,0.0,0.0,0.0,0.0,0.0,0.0,0.0,0.0,0.0,0.0,0.0,0.0,0.0,0.0,0.0,0.0,0.0,0.0,0.0,0.0,0.0,0.0,0.0,0.0,0.0,0.0,0.0,0.0,0.0,0.0,0.0,0.0,0.0,0.0,0.0,0.0,0.0,0.0,0.0,0.0,0.0,0.0,0.0,0.0,0.0,0.0,0.0,0.0,0.0,0.0,0.0,0.0,0.0,0.0,0.0,0.0,0.0,0.0,0.0,0.0,0.0,0.0,0.0,0.0,0.0,0.0,0.0,0.0,0.0,0.0,0.0,0.0,0.0,0.0,0.0,0.0,0.0,0.0,0.0,0.0,0.0,0.0,0.0,0.0,0.0,0.0,0.0,0.0,0.0,0.0,0.0,0.0,0.0,0.0,0.0,0.0,0.0,0.0,0.0,0.0,0.0,0.0,0.0,0.0,0.0,0.0,0.0,0.0,0.0,0.0,0.0,0.0,0.0,0.0,0.0,0.0,0.0,0.0,0.0,0.0,0.0,0.0,0.0,0.0,0.0,0.0,0.0,0.0,0.0,0.0,0.0,0.0,0.0,0.0,0.0,0.0,0.0,0.0,0.0,0.0,0.0,0.0,0.0,0.0,0.0,0.0,0.0,0.0,0.0,0.0,0.0,0.0,0.0,0.0,0.0,0.0,0.0,0.0,0.0,0.0,0.0,0.0,0.0,0.0,0.0,0.0,0.0,0.0,0.0,0.0,0.0,0.0,0.0,0.0,0.0,0.0,0.0,0.0,0.0,0.0,0.0,0.0,0.0,0.0,0.0,0.0,0.0,0.0,0.0,0.0,0.0,0.0,0.0,0.0,0.0,0.0,0.0,0.0,0.0,0.0,0.0,0.0,0.0,0.0,0.0,0.0,0.0,0.0,0.0,0.0,0.0,0.0,0.0,0.0,0.0,0.0,0.0,0.0,0.0,0.0,0.0,0.0,0.0,0.0,0.0,0.0,0.0,0.0,0.0,0.0,0.0,0.0,0.0,0.0,0.0,0.0,0.0,0.0,0.0,0.0,0.0,0.0,0.0,0.0,0.0,0.0,0.0,0.0,0.0,0.0,0.0,0.0,0.0,0.0,0.0,0.0,0.0,0.0,0.0,0.0,0.0,0.0,0.0,0.0,0.0,0.0,0.0,0.0,0.0,0.0,0.0,0.0,0.0,0.0,0.0,0.0,0.0,0.0,0.0,0.0,0.0,0.0,0.0,0.0,0.0,0.0,0.0,0.0,0.0,0.0,0.0,0.0,0.0,0.0,0.0,0.0,0.0,0.0,0.0,0.0,0.0,0.0,0.0,0.0,0.0,0.0,0.0,0.0,0.0,0.0,0.0,0.0,0.0,0.0,0.0,0.0,0.0,0.0,0.0,0.0,0.0,0.0,0.0,0.0,0.0,0.0,0.0,0.0,0.0,0.0,0.0,0.0,0.0,0.0,0.0,0.0,0.0,0.0,0.0,0.0,0.0,0.0,0.0,0.0,0.0,0.0,0.0,0.0,0.0,0.0,0.0,0.0,0.0,0.0,0.0,0.0,0.0,0.0,0.0,0.0,0.0,0.0,0.0,0.0,0.0,0.0,0.0,0.0,0.0,0.0,0.0,0.0,0.0,0.0,0.0,0.0,0.0,0.0,0.0,0.0,0.0,0.0,0.0,0.0,0.0,0.0,0.0,0.0,0.0,0.0,0.0,0.0,0.0,0.0,0.0,0.0,0.0,0.0,0.0,0.0,0.0,0.0,0.0,0.0,0.0,0.0,0.0,0.0,0.0,0.0,0.0,0.0,0.0,0.0,0.0,0.0,0.0,0.0,0.0,0.0,0.0,0.0,0.0,0.0,0.0,0.0,0.0,0.0,0.0,0.0,0.0,0.0,0.0,0.0,0.0,0.0,0.0,0.0,0.0,0.0,0.0,0.0,0.0,0.0,0.0,0.0,0.0,0.0,0.0,0.0,0.0,0.0,0.0,0.0,0.0,0.0,0.0,0.0,0.0,0.0,0.0,0.0,0.0,0.0,0.0,0.0,0.0,0.0,0.0,0.0,0.0,0.0,0.0,0.0,0.0,0.0,0.0,0.0,0.0,0.0,0.0,0.0,0.0,0.0,0.0,0.0,0.0,0.0,0.0,0.0,0.0,0.0,0.0,0.0,0.0,0.0,0.0,0.0,0.0,0.0,0.0,0.0,0.0,0.0,0.0,0.0,0.0,0.0,0.0,0.0,0.0,0.0,0.0,0.0,0.0,0.0,0.0,0.0,0.0,0.0,0.0,0.0,0.0,0.0,0.0,0.0,0.0,0.0,0.0,0.0,0.0,0.0,0.0,0.0,0.0,0.0,0.0,0.0,0.0,0.0,0.0,0.0,0.0,0.0,0.0,0.0,0.0,0.0,0.0,0.0,0.0,0.0,0.0,0.0,0.0,0.0,0.0,0.0,0.0,0.0,0.0,0.0,0.0,0.0,0.0,0.0,0.0,0.0,0.0,0.0,0.0,0.0,0.0,0.0,0.0,0.0,0.0,0.0,0.0,0.0,0.0,0.0,0.0,0.0,0.0,0.0,0.0,0.0,0.0,0.0,0.0,0.0,0.0,0.0,0.0,0.0,0.0,0.0,0.0,0.0,0.0,0.0,0.0,0.0,0.0,0.0,0.0,0.0,0.0,0.0,0.0,0.0,0.0,0.0,0.0,0.0,0.0,0.0,0.0,0.0,0.0,0.0,0.0,0.0,0.0,0.0,0.0,0.0,0.0,0.0,0.0,0.0,0.0,0.0,0.0,0.0,0.0,0.0,0.0,0.0,0.0,0.0,0.0,0.0,0.0,0.0,0.0,0.0,0.0,0.0,0.0,0.0,0.0,0.0,0.0,0.0,0.0,0.0,0.0,0.0,0.0,0.0,0.0,0.0,0.0,0.0,0.0,0.0,0.0,0.0,0.0,0.0,0.0,0.0,0.0,0.0,0.0,0.0,0.0,0.0,0.0,0.0,0.0,0.0,0.0,0.0,0.0,0.0,0.0,0.0,0.0,0.0,0.0,0.0,0.0,0.0,0.0,0.0,0.0,0.0,0.0,0.0,0.0,0.0,0.0,0.0,0.0,0.0,0.0,0.0,0.0,0.0,0.0,0.0,0.0,0.0,0.0,0.0,0.0,0.0,0.0,0.0,0.0,0.0,0.0,0.0,0.0,0.0,0.0,0.0,0.0,0.0,0.0,0.0,0.0,0.0,0.0,0.0,0.0,0.0,0.0,0.0,0.0,0.0,0.0,0.0,0.0,0.0,0.0,0.0,0.0,0.0,0.0,0.0,0.0,0.0,0.0,0.0,0.0,0.0,0.0,0.0,0.0,0.0,0.0,0.0,0.0,0.0,0.0,0.0,0.0,0.0,0.0,0.0,0.0,0.0,0.0,0.0,0.0,0.0,0.0,0.0,0.0,0.0,0.0,0.0,0.0,0.0,0.0,0.0,0.0,0.0,0.0,0.0,0.0,0.0,0.0,0.0,0.0,0.0,0.0,0.0,0.0,0.0,0.0,0.0,0.0,0.0,0.0,0.0,0.0,0.0,0.0,0.0,0.0,0.0,0.0,0.0,0.0,0.0,0.0,0.0,0.0,0.0,0.0,0.0,0.0,0.0,0.0,0.0,0.0,0.0,0.0,0.0,0.0,0.0,0.0,0.0,0.0,0.0,0.0,0.0,0.0,0.0,0.0,0.0,0.0,0.0,0.0,0.0,0.0,0.0,0.0,0.0,0.0,0.0,0.0,0.0,0.0,0.0,0.0,0.0,0.0,0.0,0.0,0.0,0.0,0.0,0.0,0.0,0.0,0.0,0.0,0.0,0.0,0.0,0.0,0.0,0.0,0.0,0.0,0.0,0.0,0.0,0.0,0.0,0.0,0.0,0.0,0.0,0.0,0.0,0.0,0.0,0.0,0.0,0.0,0.0,0.0,0.0,0.0,0.0,0.0,0.0,0.0,0.0,0.0,0.0,0.0,0.0,0.0,0.0,0.0,0.0,0.0,0.0,0.0,0.0,0.0,0.0,0.0,0.0,0.0,0.0,0.0,0.0,0.0,0.0,0.0,0.0,0.0,0.0,0.0,0.0,0.0,0.0,0.0,0.0,0.0,0.0,0.0,0.0,0.0,0.0,0.0,0.0,0.0,0.0,0.0,0.0,0.0,0.0,0.0,0.0,0.0,0.0,0.0,0.0,0.0,0.0,0.0,0.0,0.0,0.0,0.0,0.0,0.0,0.0,0.0,0.0,0.0,0.0,0.0,0.0,0.0,0.0,0.0,0.0,0.0,0.0,0.0,0.0,1.9134,1.8941,0.0,0.0,0.0,0.0,0.0,0.0,0.0,0.0,0.0,0.0,0.0,0.0,0.0,0.0,0.0,0.0,0.0,0.0,0.0,0.0,0.0,0.0,0.0,0.0,0.0,0.0,0.0,0.0,0.0,0.0,0.0,0.0,0.0,0.0,0.0,0.0,0.0,0.0,1.703,1.6501,1.6073,1.6912,1.7229,1.7076,0.0,0.0,0.0,0.0,0.0,0.0,0.0,0.0,0.0,0.0,0.0,0.0,0.0,0.0,0.0,0.0,0.0,0.0,0.0,0.0,0.0,0.0,0.0,0.0,0.0,0.0,0.0,0.0,0.0,0.0,0.0,0.0,0.0,0.0,0.0,0.0,0.0,0.0,0.0,0.0,0.0,0.0,0.0,0.0,0.0,0.0,0.0,0.0,0.0,0.0,0.0,0.0,0.0,0.0,0.0,0.0,0.0,0.0,0.0,0.0,0.0,0.0,0.0,0.0,0.0,0.0,0.0,0.0,0.0,0.0,1.9259,1.9212,0.0,0.0,0.0,0.0,0.0,0.0,0.0,0.0,0.0,0.0,0.0,0.0,0.0,0.0,0.0,0.0,0.0,0.0,0.0,0.0,0.0,0.0,0.0,0.0,1.6459,1.8049,1.7456,1.746,0.0,0.0,0.0,0.0,0.0,0.0,0.0,1.5983,1.5729,1.5816,1.5118,1.476,1.4706,1.5381,1.5478,1.5117,1.5289,0.0,0.0,0.0,0.0,0.0,0.0,0.0,0.0,0.0,0.0,0.0,0.0,0.0,0.0,0.0,0.0,0.0,0.0,0.0,0.0,0.0,0.0,0.0,0.0,0.0,0.0,0.0,0.0,0.0,0.0,0.0,0.0,0.0,0.0,0.0,0.0,0.0,0.0,0.0,0.0,0.0,0.0,0.0,0.0,0.0,0.0,0.0,0.0,0.0,0.0,0.0,0.0,0.0,0.0,0.0,0.0,0.0,0.0,0.0,0.0,0.0,0.0,0.0,1.9232,1.9273,1.911,1.9273,1.9251,1.9119,1.9562,1.9702,1.966,1.9901,0.0,0.0,0.0,0.0,0.0,0.0,0.0,0.0,0.0,0.0,0.0,0.0,0.0,0.0,0.0,0.0,0.0,0.0,0.0,0.0,0.0,1.5774,1.6231,1.6883,1.7223,1.7302,0.0,0.0,0.0,0.0,0.0,0.0,1.6007,1.524,1.5059,1.5468,1.525,1.4986,1.4701,1.4819,1.4834,1.4775,1.5088,1.522,1.522,0.0,0.0,0.0,0.0,0.0,0.0,0.0,0.0,0.0,0.0,0.0,0.0,0.0,0.0,0.0,0.0,0.0,0.0,0.0,0.0,0.0,0.0,0.0,0.0,0.0,0.0,0.0,0.0,0.0,0.0,0.0,0.0,0.0,0.0,0.0,0.0,0.0,0.0,0.0,0.0,0.0,1.8376,1.7786,0.0,0.0,0.0,0.0,0.0,0.0,0.0,0.0,0.0,0.0,0.0,0.0,0.0,1.8939,1.8918,1.8991,1.9042,1.9063,1.9106,1.9132,1.9089,1.9132,1.9132,1.9102,1.9178,0.0,1.9808,2.024,0.0,0.0,0.0,0.0,0.0,0.0,0.0,0.0,0.0,0.0,0.0,0.0,0.0,0.0,0.0,0.0,0.0,0.0,0.0,0.0,0.0,1.5686,1.6194,1.6802,1.6531,1.6302,1.6245,1.6468,0.0,0.0,0.0,1.5006,1.4555,1.4207,1.4142,1.4326,1.4267,1.4276,1.4315,1.4315,1.4413,1.4601,1.4813,1.4976,1.5098,1.5225,0.0,0.0,0.0,0.0,0.0,0.0,0.0,0.0,0.0,0.0,0.0,0.0,0.0,0.0,0.0,0.0,0.0,0.0,0.0,0.0,0.0,0.0,0.0,0.0,0.0,0.0,0.0,0.0,0.0,0.0,0.0,0.0,0.0,0.0,0.0,0.0,0.0,0.0,0.0,1.8413,1.7992,1.719,1.7529,1.79,0.0,0.0,0.0,0.0,0.0,0.0,0.0,0.0,0.0,1.8715,1.8486,1.8378,1.8378,1.8562,1.866,1.8647,1.8851,1.8927,1.8927,1.8927,1.8927,1.895,1.9254,1.9498,1.9695,1.9721,1.984,2.0073,0.0,0.0,0.0,0.0,2.0685,2.0685,0.0,0.0,0.0,0.0,0.0,0.0,0.0,0.0,0.0,0.0,0.0,0.0,1.5067,1.5344,1.5757,1.6311,1.5551,1.5149,1.5402,1.5325,0.0,0.0,1.421,1.4112,1.3502,1.3496,1.3496,1.3496,1.3496,1.3631,1.3866,1.3866,1.4048,1.4381,1.4574,1.4814,1.5087,1.5235,1.5534,1.5917,0.0,0.0,0.0,0.0,0.0,0.0,0.0,0.0,0.0,0.0,0.0,0.0,0.0,0.0,0.0,0.0,0.0,0.0,0.0,0.0,0.0,0.0,0.0,0.0,0.0,0.0,0.0,0.0,0.0,0.0,0.0,0.0,0.0,0.0,0.0,0.0,0.0,1.799,1.7686,1.6937,1.7243,1.7605,0.0,0.0,0.0,0.0,0.0,0.0,1.8779,1.8565,1.8438,1.8438,1.8196,1.8111,1.8206,1.8461,1.8613,1.87,1.8962,1.9066,1.9066,1.9066,1.9066,1.909,1.9501,1.9687,1.9653,1.9487,1.9571,1.9867,1.9947,2.0175,2.0446,2.0517,2.0428,2.0243,0.0,0.0,0.0,0.0,0.0,0.0,0.0,0.0,0.0,0.0,0.0,1.4164,1.467,1.4636,1.4589,1.4623,1.4282,1.4079,1.4096,1.3791,1.3593,1.3526,1.3556,1.3541,1.3496,1.3496,1.3496,1.3496,1.3496,1.3511,1.3526,1.3526,1.3699,1.4034,1.4426,1.4855,1.5306,1.5496,1.5819,1.6185,1.6185,0.0,0.0,0.0,0.0,0.0,0.0,0.0,0.0,0.0,0.0,0.0,0.0,0.0,0.0,0.0,0.0,0.0,0.0,0.0,0.0,0.0,0.0,0.0,0.0,0.0,0.0,0.0,0.0,0.0,0.0,0.0,0.0,0.0,0.0,0.0,0.0,0.0,0.0,1.7268,1.7568,0.0,0.0,0.0,0.0,1.7858,1.7911,1.7943,1.7965,1.8308,1.8496,1.8496,1.8665,1.8915,1.9312,1.9336,1.9495,1.9805,1.9853,1.9837,1.9837,1.9837,1.9837,1.9861,1.9861,1.9885,1.9902,2.0149,2.0249,2.03,2.0622,2.0767,2.0804,2.1137,2.0778,2.0111,0.0,0.0,0.0,0.0,0.0,0.0,0.0,0.0,1.3148,1.3345,1.3902,1.4356,1.4553,1.4333,1.4184,1.4184,1.3866,1.3685,1.3685,1.3571,1.3405,1.3194,1.2896,1.2636,1.2413,1.2743,1.292,1.292,1.292,1.2941,1.2995,1.3372,1.3641,1.3827,1.4363,1.4834,1.5257,1.5636,1.6054,1.6454,1.6562,1.6857,0.0,0.0,0.0,0.0,0.0,0.0,0.0,0.0,0.0,0.0,0.0,0.0,0.0,0.0,0.0,0.0,0.0,0.0,0.0,0.0,0.0,0.0,0.0,0.0,0.0,0.0,0.0,0.0,0.0,0.0,0.0,0.0,0.0,0.0,0.0,0.0,0.0,1.7618,1.7721,0.0,1.7875,1.7868,1.7895,1.7985,1.8026,1.8118,1.8341,1.8495,1.8664,1.8887,1.8959,1.9069,1.9217,1.9217,1.9345,1.9649,1.9649,1.9722,1.9892,1.9892,1.9592,1.9063,1.9063,1.8769,1.8287,1.8392,1.9072,2.0003,1.9566,1.9372,1.9339,1.8937,1.8614,1.8361,0.0,0.0,0.0,0.0,0.0,0.0,0.0,0.0,1.3296,1.3296,1.4002,1.447,1.4342,1.4139,1.395,1.3836,1.3519,1.3338,1.3338,1.3086,1.2827,1.2598,1.2027,1.1585,1.1367,1.1608,1.1753,1.1825,1.1825,1.1876,1.1994,1.2397,1.2758,1.3076,1.3608,1.4112,1.4643,1.5086,1.5745,1.6505,1.6606,1.6892,1.7298,0.0,0.0,0.0,0.0,0.0,0.0,0.0,0.0,0.0,0.0,0.0,0.0,0.0,0.0,0.0,0.0,0.0,0.0,0.0,0.0,0.0,0.0,0.0,0.0,0.0,0.0,0.0,0.0,0.0,0.0,0.0,0.0,0.0,0.0,1.783,1.7726,1.7726,1.7835,1.7911,1.7963,1.8064,1.818,1.8263,1.8298,1.841,1.8613,1.8621,1.8727,1.8954,1.9052,1.9155,1.9269,1.9269,1.9397,1.9696,1.9696,1.9589,1.9399,1.9399,1.8867,1.7955,1.7955,1.7753,1.7438,1.7438,1.8221,1.9317,1.8538,1.8162,1.805,1.7616,1.7292,1.7018,0.0,0.0,0.0,0.0,0.0,0.0,0.0,1.2786,1.3296,1.3296,1.4002,1.4372,1.404,1.3995,1.3851,1.3511,1.317,1.2989,1.295,1.222,1.1771,1.1724,1.0937,1.0483,1.0458,1.0158,1.01,1.0306,1.0306,1.0401,1.0591,1.0609,1.1037,1.1781,1.2127,1.2721,1.3473,1.3813,1.4825,1.6202,1.6219,1.6464,1.683,0.0,0.0,0.0,0.0,0.0,0.0,0.0,0.0,0.0,0.0,0.0,0.0,0.0,0.0,0.0,0.0,0.0,0.0,0.0,0.0,0.0,0.0,0.0,0.0,0.0,0.0,0.0,0.0,0.0,0.0,0.0,0.0,0.0,1.7082,1.737,1.7621,1.7628,1.7919,1.8133,1.8117,1.8415,1.8605,1.8589,1.8651,1.8698,1.8706,1.8706,1.8689,1.8679,1.8943,1.9243,1.9487,1.9535,1.9694,1.999,2.0005,1.942,1.8363,1.8363,1.7753,1.667,1.667,1.6962,1.7411,1.7411,1.7759,1.8217,1.7682,1.7323,1.7127,1.7429,1.7018,1.6243,0.0,0.0,0.0,0.0,0.0,0.0,0.0,1.2786,1.3296,1.3296,1.4002,1.4372,1.404,1.3776,1.3504,1.3179,1.2882,1.2436,1.181,1.1562,1.1,1.0034,1.0085,0.9974,0.963,0.9878,1.01,1.0306,1.0306,1.0337,1.0385,1.0829,1.1049,1.1089,1.1621,1.2155,1.2645,1.2723,1.335,1.4286,1.4522,1.479,1.5083,0.0,0.0,0.0,0.0,0.0,0.0,0.0,0.0,0.0,0.0,0.0,0.0,0.0,0.0,0.0,0.0,0.0,0.0,0.0,0.0,0.0,0.0,0.0,0.0,0.0,0.0,0.0,0.0,0.0,0.0,0.0,1.6569,1.6194,1.7597,1.7888,1.8064,1.8308,1.8399,1.8481,1.8538,1.8626,1.8598,1.8387,1.8402,1.8515,1.875,1.8758,1.8506,1.7905,1.8777,1.849,1.6938,1.7893,1.8089,1.7568,1.7717,1.7706,1.7603,1.7603,1.711,1.6257,1.6257,1.5987,1.5527,1.5527,1.5535,1.5594,1.6594,1.6935,1.6798,1.6074,1.5776,1.572,0.0,0.0,0.0,0.0,0.0,0.0,0.0,1.2659,1.3086,1.3057,1.3654,1.3933,1.3572,1.3395,1.3179,1.2867,1.2359,1.1849,1.1337,1.0773,1.0005,0.9006,0.9091,0.9037,0.8759,0.8962,0.9174,0.9383,0.9456,0.9537,0.9646,0.9979,1.0155,1.0199,1.0545,1.0925,1.1298,1.1298,1.1669,1.226,1.2467,1.319,1.4227,1.4683,1.4932,1.51,1.5525,1.586,1.6061,1.6061,0.0,0.0,0.0,0.0,0.0,0.0,0.0,0.0,0.0,0.0,0.0,0.0,0.0,0.0,0.0,0.0,0.0,0.0,0.0,0.0,0.0,0.0,0.0,0.0,1.5592,1.5387,1.6597,1.677,1.6839,1.7037,1.747,1.759,1.7147,1.8099,1.8278,1.717,1.7654,1.7884,1.7586,1.7593,1.7422,1.7029,1.7656,1.7408,1.6166,1.6919,1.7055,1.656,1.6679,1.6562,1.626,1.626,1.5727,1.483,1.483,1.4671,1.4427,1.4427,1.4489,1.466,0.0,0.0,0.0,0.0,1.5294,1.5662,0.0,0.0,0.0,0.0,0.0,0.0,0.0,1.2456,1.2703,1.2617,1.3102,1.3293,1.2895,1.2887,1.2782,1.2475,1.1686,1.1142,1.1017,0.9815,0.8888,0.8414,0.8101,0.7938,0.7938,0.7853,0.7894,0.8097,0.8297,0.8505,0.8703,0.8703,0.8894,0.9227,0.9227,0.9449,0.9827,0.9827,1.0048,1.0419,1.0419,1.1755,1.3715,1.3806,1.386,1.3885,1.3995,1.4397,1.4842,1.4905,0.0,0.0,0.0,0.0,0.0,0.0,0.0,0.0,0.0,0.0,0.0,0.0,0.0,0.0,0.0,0.0,0.0,0.0,0.0,0.0,0.0,0.0,0.0,0.0,1.4611,1.4624,1.4751,1.4673,1.4704,1.4929,1.5847,1.6093,1.5124,1.7116,1.7644,1.5609,1.6656,1.6975,1.599,1.5936,0.0,0.0,0.0,1.6202,1.612,1.6261,1.6279,1.6139,1.6168,1.5648,1.4671,1.4671,1.4134,1.3164,1.3164,1.3451,1.3881,1.3881,1.4196,1.4673,1.4471,1.4248,1.4072,1.4606,1.5181,1.572,0.0,0.0,0.0,0.0,0.0,0.0,0.0,1.2124,1.2308,1.2083,1.265,1.2961,1.2622,1.2488,1.2205,1.1593,1.1008,1.0246,0.927,0.8355,0.7798,0.7705,0.7635,0.7591,0.7591,0.7736,0.7894,0.8097,0.8297,0.8505,0.8703,0.8703,0.8742,0.8818,0.8818,0.9032,0.9416,0.9416,0.9638,1.0011,1.0011,1.0769,1.1971,1.262,1.2967,1.3222,1.4033,1.4408,1.4548,1.5011,1.5259,1.5464,1.5741,1.5873,0.0,0.0,0.0,0.0,0.0,0.0,0.0,0.0,0.0,0.0,0.0,0.0,0.0,0.0,0.0,0.0,0.0,0.0,0.0,1.4721,1.3603,1.2932,1.3817,1.3318,1.3492,1.5098,1.5488,1.5651,1.5713,1.6149,1.6285,1.5836,1.607,1.6199,1.6154,1.6139,1.582,1.5081,1.5972,1.5569,1.3768,1.4823,1.4919,1.3989,1.4158,0.0,1.3921,1.3921,1.3803,1.357,1.357,1.3625,1.3748,1.3748,1.3803,1.3957,1.4266,1.4248,1.4018,1.4126,1.438,1.4675,0.0,0.0,0.0,0.0,0.0,0.0,0.0,1.1903,1.1935,1.1632,1.1927,1.1992,1.1584,1.1458,1.1203,1.0694,1.0009,0.918,0.8161,0.7717,0.7505,0.7505,0.7412,0.7347,0.7347,0.7654,0.7841,0.7961,0.836,0.8604,0.8699,0.8394,0.8241,0.8241,0.8241,0.8356,0.857,0.888,0.9241,0.9611,0.9706,1.0165,1.0848,1.1254,1.1523,1.1754,1.2266,1.2713,1.3094,1.3352,1.3836,1.4363,1.4691,1.4897,1.5075,0.0,0.0,0.0,0.0,0.0,0.0,0.0,0.0,0.0,0.0,0.0,0.0,0.0,0.0,1.4355,1.4355,0.0,1.3031,1.3434,1.2806,1.2446,1.2978,1.2668,1.2773,1.3773,1.4427,1.4637,1.4196,1.5221,1.5461,1.444,1.4875,1.5036,1.4681,1.4636,1.4466,1.411,1.4651,1.4444,1.3406,1.406,1.4119,1.3542,1.3641,1.3688,1.3688,1.3688,1.3688,1.3688,1.3688,1.3688,1.3688,1.3688,1.3688,1.3715,1.3951,1.4154,1.4313,1.4313,1.4585,1.5006,0.0,0.0,0.0,0.0,0.0,0.0,0.0,1.1675,1.1567,1.1192,1.1263,1.1129,1.0587,1.051,1.0268,0.9671,0.8914,0.8194,0.7538,0.7505,0.7505,0.7505,0.7314,0.7204,0.7204,0.7566,0.7766,0.7801,0.837,0.8665,0.868,0.8203,0.7974,0.7974,0.7974,0.7974,0.8012,0.8494,0.8894,0.9204,0.9403,0.9705,1.0021,1.0068,1.0258,1.0511,1.0559,1.1028,1.1634,1.173,1.2406,1.3278,1.3641,1.3958,1.4213,1.4356,1.4417,0.0,0.0,0.0,0.0,0.0,0.0,0.0,0.0,1.4446,1.4519,1.4393,1.3799,1.3267,1.3143,1.2685,1.2249,1.2036,1.2148,1.225,1.225,1.225,1.225,1.225,1.3142,1.3381,1.2409,1.4061,1.4522,1.292,1.3679,1.3908,1.3203,1.316,1.3259,1.3443,1.3447,1.3553,1.3688,1.3688,1.3688,1.3688,1.3688,1.3688,1.3688,1.3688,1.3688,1.3688,1.3688,1.3688,1.3688,1.3688,1.3688,1.3688,1.3688,1.4013,1.4421,1.4421,1.4759,1.524,0.0,0.0,0.0,0.0,0.0,0.0,0.0,0.0,1.1175,1.0662,1.1111,1.1159,1.0322,1.0395,0.9888,0.835,0.7863,0.7603,0.7505,0.7505,0.7505,0.7505,0.7314,0.7204,0.7204,0.7428,0.7628,0.7801,0.8221,0.8532,0.8703,0.8627,0.8604,0.8604,0.8604,0.8604,0.8604,0.8665,0.8723,0.878,0.8994,0.9209,0.941,0.9606,1.0007,1.0532,1.0781,1.1074,1.1413,1.1824,1.2217,1.2559,1.2842,1.296,1.2891,1.2452,1.2335,1.2238,1.1746,1.1624,1.1624,1.1624,1.1771,1.1913,0.0,1.187,1.1942,1.2322,1.2146,1.1972,1.2121,1.2109,1.1969,1.1705,1.1664,1.1678,1.1678,1.1678,1.1678,1.1678,1.2028,1.2191,1.206,1.2441,1.2734,1.2795,1.3069,1.3298,1.3373,1.3382,1.3447,1.3651,1.3655,1.3665,1.3688,1.3688,1.3688,1.3688,1.3688,1.3688,1.3688,1.3688,1.3688,1.3688,1.3688,1.3688,1.3688,1.3688,1.3688,1.3688,1.3688,1.3748,1.3808,1.3808,1.3838,1.3898,0.0,0.0,0.0,0.0,0.0,0.0,0.0,0.0,0.0,0.0,1.0849,1.0686,0.9625,0.9057,0.8463,0.7771,0.7587,0.7505,0.7505,0.7505,0.7505,0.7505,0.7204,0.7028,0.7028,0.7255,0.7429,0.7517,0.7983,0.8327,0.8513,0.8169,0.8069,0.8184,0.8184,0.8184,0.8203,0.8546,0.8703,0.8732,0.9043,0.9227,0.934,0.9696,0.998,1.025,1.0469,1.0693,0.0,1.1237,1.1515,1.1714,1.1828,1.1756,1.1585,1.1365,1.1194,1.1027,1.0801,1.0732,1.0732,1.0732,1.0968,1.1203,1.1203,1.1369,1.1563,1.176,1.172,1.1666,1.1746,1.1759,1.1732,1.1623,1.1596,1.1596,1.1596,1.1596,1.1541,1.1318,1.1504,1.1712,1.1878,1.1954,1.2157,1.2533,1.2652,1.2784,1.2983,1.3175,1.3331,1.3414,1.3599,1.3688,1.3688,1.3688,1.3688,1.3688,1.3688,1.3688,1.3688,1.3688,1.3688,1.3688,1.3688,1.3688,1.3688,1.3688,1.3688,1.3688,1.3688,1.3688,1.3688,1.3688,1.3688,1.3688,0.0,0.0,0.0,0.0,0.0,0.0,0.0,0.0,0.0,0.0,1.0794,1.0552,0.94,0.829,0.7608,0.7505,0.7505,0.7505,0.7505,0.7505,0.7505,0.7505,0.7122,0.6897,0.6897,0.7048,0.7182,0.73,0.7726,0.8068,0.8308,0.7868,0.7753,0.7882,0.7882,0.7921,0.7997,0.8437,0.8646,0.8737,0.9137,0.9302,0.9349,0.9812,1.0032,1.0082,1.0148,1.0127,1.0106,1.0536,1.0613,1.0596,1.09,1.0855,1.0683,1.0683,1.0556,1.0413,1.0413,1.0413,1.0401,1.0479,1.0742,1.1001,1.1059,1.1273,1.1486,1.1568,1.1541,1.1459,1.1459,1.1459,1.1432,1.135,1.135,1.135,1.135,1.135,1.1267,1.1017,1.1161,1.1379,1.1594,1.1763,1.1996,1.2362,1.2461,1.2549,1.2681,1.3024,1.3204,1.3204,1.3534,1.3688,1.3688,1.3688,1.3688,1.3688,1.3688,1.3688,1.3688,1.3688,1.3688,1.3688,1.3688,1.3688,1.3688,1.3688,1.3688,1.3688,1.3688,1.3688,1.3688,1.3688,1.3688,1.3688,0.0,0.0,0.0,0.0,0.0,0.0,0.0,0.0,0.0,0.0,0.0,0.0,0.0,0.8785,0.7852,0.7521,0.7505,0.7505,0.7505,0.7505,0.7505,0.7505,0.7122,0.6897,0.6897,0.6776,0.6903,0.73,0.7446,0.773,0.8102,0.8083,0.8083,0.8083,0.8083,0.8197,0.8384,0.8403,0.8513,0.8737,0.9137,0.9302,0.9349,0.9812,1.0123,1.0263,1.0002,0.9383,0.8808,0.9795,0.9563,0.9057,1.0109,1.0413,1.0413,1.0413,1.0413,1.0413,1.0413,1.0413,1.0457,1.0629,1.0848,1.1041,1.1239,1.1212,1.1213,1.1541,1.135,1.1131,1.1131,1.1131,1.1021,1.0774,1.0719,1.0719,1.0719,1.0719,1.0719,1.0719,1.0886,1.1061,1.12,1.1699,1.2106,1.2384,1.258,1.2681,1.2689,1.3024,1.3204,1.3204,1.3534,1.3688,1.3688,1.3688,1.3688,1.3688,1.3688,1.3688,1.3688,1.3688,1.3688,1.3688,1.3688,1.3688,1.3688,1.3688,1.3688,1.3688,1.3688,1.3688,1.3688,1.3688,1.3688,1.3688,0.0,0.0,0.0,0.0,0.0,0.0,0.0,0.0,0.0,0.0,0.0,0.0,0.0,0.0,0.0,0.0,0.7505,0.7505,0.7505,0.7505,0.7505,0.7505,0.7237,0.704,0.6897,0.6853,0.6854,0.6904,0.7165,0.7439,0.7707,0.7835,0.7972,0.8102,0.8102,0.8217,0.8403,0.8403,0.8513,0.8727,0.8991,0.9184,0.9335,0.9618,0.9767,0.9832,0.0,0.9836,0.9806,0.9385,0.951,0.9809,0.9456,0.971,1.0093,0.992,0.9871,0.9871,0.9871,0.9958,1.0088,1.015,1.0405,1.0625,1.0687,1.0756,1.0884,1.0994,1.0911,1.0829,1.0829,1.0829,1.0802,1.0719,1.0692,1.0692,1.0692,1.0692,1.0737,1.0886,1.1029,1.1208,1.1386,1.1552,1.176,1.2004,1.2067,1.21,1.21,1.2603,1.2874,1.2874,1.3419,1.3688,1.3688,1.3688,1.3688,1.3688,1.3688,1.3688,1.3688,1.3688,1.3688,1.3688,1.3688,1.3688,1.3688,1.3688,1.3688,1.3688,1.3688,1.3688,1.3688,1.3688,1.3688,1.3688,0.0,0.0,0.0,0.0,0.0,0.0,0.0,0.0,0.0,0.0,0.0,0.0,0.0,0.0,0.0,0.0,0.0,0.7505,0.7505,0.7505,0.7505,0.7505,0.7237,0.7028,0.6897,0.6781,0.6721,0.6693,0.692,0.7153,0.7391,0.753,0.7698,0.7891,0.7891,0.8044,0.8293,0.8293,0.8456,0.8703,0.8842,0.9008,0.9208,0.9329,0.9475,0.0,0.965,0.9913,1.0082,0.8905,0.8711,0.8863,0.8163,0.8563,0.9324,0.9525,0.9603,0.9603,0.9603,0.9754,0.9926,0.9995,1.0213,1.0426,1.0486,1.0611,1.0692,1.0692,1.0692,1.0692,1.0692,1.0692,1.0692,1.0692,1.0692,1.0692,1.0692,1.0692,1.0761,1.0976,1.1118,1.1264,1.1484,1.1561,1.165,1.1798,1.1806,1.1806,1.1806,1.2247,1.2509,1.2509,1.3174,1.3509,1.3509,1.3629,1.3688,1.3688,1.3688,1.3688,1.3688,1.3688,1.3688,1.3688,1.3688,1.3688,1.3688,1.3688,1.3688,1.3688,1.3688,1.3688,1.3688,1.3688,1.3688,1.3688,0.0,0.0,0.0,0.0,0.0,0.0,0.0,0.0,0.0,0.0,0.0,0.0,0.0,0.0,0.0,0.0,0.0,0.0,0.7505,0.7505,0.7505,0.7505,0.7122,0.6913,0.6897,0.6585,0.6497,0.6681,0.6701,0.6867,0.7181,0.7197,0.7295,0.7491,0.7499,0.7714,0.8083,0.8102,0.8327,0.8665,0.8676,0.8793,0.8969,0.898,0.9222,0.9538,0.9422,0.9543,0.958,0.8389,0.7322,0.6498,0.6548,0.7223,0.8223,0.9278,0.955,0.9529,0.9579,0.9762,0.9966,1.0141,1.0306,1.0462,1.0655,1.0692,1.0692,1.0692,1.0692,1.0692,1.0692,1.0692,1.0692,1.0692,1.0692,1.0692,1.0692,1.0692,1.0761,1.0976,1.1061,1.1177,1.1391,1.1577,1.1716,1.1716,1.1776,1.1806,1.1806,1.2062,1.2204,1.2204,1.284,1.3174,1.3174,1.3509,1.3658,1.3658,1.3688,1.3688,1.3688,1.3658,1.3629,1.3629,1.3569,1.3539,1.3539,1.3539,1.3539,1.3539,1.3539,1.3539,1.3539,1.3539,1.3539,1.3539,0.0,0.0,0.0,0.0,0.0,0.0,0.0,0.0,0.0,0.0,0.0,0.0,0.0,0.0,0.0,0.0,0.0,0.0,0.7526,0.7505,0.7505,0.7505,0.7248,0.7057,0.6897,0.6712,0.6568,0.6468,0.6627,0.6741,0.6834,0.7084,0.723,0.7278,0.7423,0.7642,0.7876,0.803,0.8159,0.8259,0.8424,0.8501,0.858,0.8718,0.8817,0.8892,0.9158,0.9261,0.9135,0.828,0.7822,0.7723,0.8524,0.8425,0.8223,0.9278,0.9027,0.8574,0.9377,0.9855,1.0129,1.02,1.0396,1.0639,1.068,1.0692,1.0692,1.0692,1.0692,1.0692,1.0692,1.0692,1.0692,1.0692,1.0692,1.0692,1.0692,1.0692,1.0761,1.0976,1.0282,0.9833,0.9992,1.0174,1.0297,1.0297,1.125,1.1806,1.1806,1.2062,1.2204,1.2204,1.2599,1.284,1.284,1.3174,1.3324,1.3324,1.3569,1.3688,1.3658,1.2934,1.2569,1.2539,1.1846,1.1545,1.1545,1.1545,1.1545,1.1545,1.1545,1.1545,1.1545,1.1545,1.1545,1.1545,0.0,0.0,0.0,0.0,0.0,0.0,0.0,0.0,0.0,0.0,0.0,0.0,0.0,0.0,0.0,0.0,0.0,0.0,0.0,0.7972,0.7814,0.7505,0.7314,0.7155,0.7028,0.6806,0.6642,0.6531,0.6555,0.6615,0.67,0.6895,0.7025,0.7114,0.7289,0.7484,0.7681,0.788,0.801,0.0,0.0,0.8197,0.8286,0.8359,0.8421,0.8525,0.8891,0.9102,0.9179,0.8813,0.8074,0.7496,0.8549,0.8474,0.8223,0.9278,0.9175,0.8825,0.9426,0.9888,1.0186,1.0186,1.0455,1.0692,1.0692,1.0692,1.0692,1.0692,1.0692,1.0692,1.0692,1.0692,1.0692,1.0692,1.0692,1.0692,1.0692,1.0692,1.0761,1.0976,0.9996,0.9363,0.9486,0.9179,0.8952,0.8952,1.0732,1.1806,1.1806,1.1949,1.2005,1.2005,1.2328,1.2539,1.2689,1.29,1.3054,1.3204,1.3234,1.3419,1.3688,1.2964,1.2479,1.2178,1.1631,1.1182,1.0789,1.0789,1.0789,1.0789,1.0789,1.0789,1.0789,1.0789,1.0789,1.0789,0.0,0.0,0.0,0.0,0.0,0.0,0.0,0.0,0.0,0.0,0.0,0.0,0.0,0.0,0.0,0.0,0.0,0.0,0.0,0.0,0.8264,0.7668,0.7363,0.7204,0.7204,0.6888,0.6724,0.6724,0.6548,0.6551,0.6694,0.6723,0.6817,0.6963,0.7106,0.7274,0.7469,0.7675,0.7855,0.8006,0.7861,0.7897,0.8013,0.0,0.0,0.8304,0.8664,0.9035,0.9372,0.9531,0.8354,0.6996,0.7922,0.8124,0.8223,0.9278,0.9501,0.9426,0.955,0.9888,1.0186,1.0186,1.0455,1.0692,1.0692,1.0692,1.0692,1.0692,1.0692,1.0692,1.0692,1.0692,1.0637,1.05,1.0468,1.0414,1.0245,1.0217,1.0276,1.0459,0.9488,0.8826,0.8953,0.8172,0.7645,0.7645,0.9906,1.1345,1.153,1.153,1.147,1.1285,1.1514,1.1778,1.2049,1.2109,1.226,1.2565,1.2294,1.2505,1.305,1.2625,1.2174,1.1687,1.1537,1.1084,1.0425,1.0425,1.0425,1.0425,1.0425,1.0425,1.0425,1.0425,1.0425,1.0425,0.0,0.0,0.0,0.0,0.0,0.0,0.0,0.0,0.0,0.0,0.0,0.0,0.0,0.0,0.0,0.0,0.0,0.0,0.0,0.0,0.0,0.8344,0.7608,0.7204,0.7204,0.6979,0.6864,0.6864,0.6831,0.6778,0.6697,0.6819,0.6825,0.6766,0.6959,0.7118,0.7265,0.7457,0.7576,0.7618,0.7742,0.772,0.7626,0.7775,0.0,0.0,0.8615,0.8958,0.9193,0.9368,0.9254,0.9076,0.9274,0.8722,0.8223,0.9278,0.8973,0.8474,0.9352,0.9888,1.0186,1.0186,1.0455,1.0692,1.0692,1.0692,1.0692,1.0692,1.0692,1.0692,1.0692,1.0692,1.0359,0.9364,0.9199,0.8865,0.7861,0.7719,0.7728,0.7779,0.682,0.6163,0.6181,0.6228,0.6243,0.6243,0.7706,0.9046,1.0081,1.0142,0.9653,0.862,0.8617,0.8678,0.8739,0.8948,0.9097,0.9158,0.937,0.9549,0.9613,0.88,0.862,0.8927,0.8166,0.8047,0.8419,0.8419,0.8419,0.8419,0.8419,0.8419,0.8419,0.8419,0.8419,0.8419,0.0,0.0,0.0,0.0,0.0,0.0,0.0,0.0,0.0,0.0,0.0,0.0,0.0,0.0,0.0,0.0,0.0,0.0,0.0,0.0,0.0,0.0,0.0,0.0,0.8393,0.7863,0.7575,0.7575,0.0,0.6864,0.6815,0.6872,0.6869,0.6815,0.7009,0.714,0.7219,0.7413,0.7492,0.7505,0.7604,0.7584,0.7524,0.0,0.0,0.0,0.8639,0.8938,0.9125,0.9319,0.9502,0.9603,0.9603,0.9249,0.8924,0.9451,0.9229,0.8949,0.9451,0.9888,1.0186,1.0186,1.0455,1.0692,1.0692,1.0692,1.0692,1.0692,1.0692,1.0496,0.9891,0.975,0.9361,0.8168,0.7974,0.7753,0.7193,0.711,0.711,0.711,0.615,0.5487,0.5487,0.5109,0.4868,0.4868,0.609,0.7431,0.8739,0.88,0.8526,0.7919,0.7889,0.7889,0.7889,0.8039,0.8158,0.8307,0.831,0.8489,0.879,0.8158,0.7858,0.7833,0.7681,0.7531,0.7411,0.7747,0.7903,0.7903,0.7903,0.7903,0.7903,0.7903,0.7903,0.7903,0.0,0.0,0.0,0.0,0.0,0.0,0.0,0.0,1.3508,1.3508,1.3562,1.3504,1.324,1.2897,0.0,0.0,0.0,0.0,0.0,0.0,0.0,0.0,0.0,0.0,0.9566,0.0,0.0,0.8474,0.7657,0.0,0.0,0.0,0.0,0.0,0.7066,0.7154,0.7215,0.7421,0.7533,0.0,0.0,0.7638,0.7639,0.0,0.0,0.0,0.0,0.8848,0.9064,0.9266,0.9445,0.9551,0.9591,0.9603,0.9603,0.9603,0.9603,0.9554,0.9327,0.9529,0.9765,0.953,0.9697,0.9998,1.0249,1.0107,0.9998,1.0249,1.0304,0.9943,0.8727,0.8727,0.842,0.6974,0.6725,0.6642,0.6392,0.6364,0.6364,0.6364,0.5637,0.5137,0.5137,0.4388,0.3889,0.3889,0.4868,0.6059,0.7401,0.7462,0.734,0.7065,0.7034,0.7034,0.7034,0.7034,0.7154,0.7365,0.7154,0.7307,0.7728,0.7487,0.7184,0.6884,0.7373,0.7314,0.695,0.7472,0.7778,0.7903,0.7903,0.7903,0.7903,0.7903,0.7903,0.7903,0.0,0.0,0.0,0.0,0.0,0.0,0.0,0.0,1.385,1.385,1.3902,1.3935,1.392,1.3346,0.0,0.0,0.0,0.0,0.0,0.0,0.0,0.0,0.0,0.0,0.0,0.0,0.0,0.9374,0.87,0.0,0.0,0.0,0.0,0.0,0.0,0.7036,0.7206,0.7407,0.0,0.0,0.0,0.0,0.0,0.0,0.0,0.0,0.0,0.8556,0.885,0.906,0.9262,0.9433,0.9551,0.9603,0.9603,0.9603,0.9603,0.9377,0.8425,0.8347,0.8318,0.7366,0.7261,0.7722,0.8809,0.8223,0.775,0.8837,0.9058,0.8699,0.7501,0.8168,0.8171,0.5926,0.5564,0.5174,0.4089,0.3921,0.3921,0.3921,0.3953,0.3945,0.3945,0.3909,0.3889,0.3889,0.4011,0.4655,0.5998,0.609,0.554,0.4318,0.4256,0.4256,0.4256,0.4256,0.4287,0.4318,0.4287,0.4287,0.4349,0.4318,0.4592,0.5139,0.5201,0.5845,0.6919,0.698,0.7347,0.7903,0.7903,0.7903,0.7903,0.7903,0.7903,0.7903,0.0,0.0,0.0,0.0,0.0,0.0,0.0,1.4412,1.4529,1.4241,1.4506,1.4612,1.4333,1.3875,0.0,0.0,0.0,0.0,0.0,0.0,0.0,0.0,0.0,0.0,0.0,0.0,1.0442,1.0284,0.9608,0.0,0.0,0.0,0.0,0.0,0.0,0.8283,0.7986,0.8069,0.0,0.0,0.0,0.0,0.0,0.0,0.0,0.0,0.0,0.0,0.8826,0.9035,0.9233,0.9433,0.9547,0.9603,0.9603,0.9603,0.9603,0.9377,0.8297,0.8194,0.8134,0.708,0.6937,0.7418,0.8616,0.853,0.8309,0.8809,0.8892,0.8312,0.6422,0.648,0.6258,0.459,0.4313,0.4145,0.3671,0.3587,0.3587,0.3587,0.3691,0.3758,0.3795,0.3846,0.3912,0.3887,0.3889,0.4134,0.4655,0.4685,0.4441,0.392,0.3889,0.3889,0.3889,0.3889,0.3889,0.3889,0.3889,0.3889,0.3889,0.3889,0.4042,0.4316,0.4713,0.5446,0.6337,0.6735,0.7286,0.7903,0.7903,0.7903,0.7903,0.7903,0.7903,0.7903,0.0,0.0,0.0,0.0,0.0,0.0,1.4222,1.4512,1.4635,1.4294,1.4676,1.4872,1.4536,1.4288,1.392,1.3346,0.0,0.0,0.0,0.0,0.0,0.0,0.0,0.0,0.0,0.0,1.1321,1.1172,1.0449,0.9783,0.0,0.0,0.9005,0.8134,0.0,0.0,0.0,0.0,0.0,0.0,0.0,0.0,0.0,0.0,0.0,0.0,0.0,0.0,0.0,0.0,0.0,0.9411,0.9551,0.9603,0.9603,0.9603,0.9603,0.9303,0.7897,0.7706,0.7527,0.6131,0.5938,0.6392,0.759,0.759,0.7423,0.7783,0.7867,0.7257,0.5232,0.5148,0.5009,0.3783,0.3587,0.3587,0.3587,0.3587,0.3587,0.3587,0.3685,0.3751,0.3794,0.3871,0.3905,0.3885,0.3889,0.3889,0.3889,0.3889,0.3889,0.3889,0.3889,0.3889,0.3889,0.3889,0.3889,0.3889,0.3889,0.3889,0.3889,0.3889,0.3889,0.3919,0.4407,0.4988,0.563,0.6121,0.6827,0.7594,0.7594,0.7717,0.7903,0.7903,0.7903,0.7903,0.0,0.0,0.0,0.0,0.0,0.0,0.0,1.3868,1.3907,1.3917,1.4264,1.4515,1.45,1.45,1.4357,1.4025,0.0,0.0,0.0,0.0,0.0,0.0,0.0,0.0,0.0,0.0,1.2212,1.2089,1.1219,1.0773,1.0757,0.9894,0.9486,0.9486,0.0,0.0,0.0,0.0,0.0,0.0,0.0,0.0,0.0,0.0,0.0,0.0,0.0,0.0,0.0,0.0,0.0,0.0,0.0,0.9603,0.9603,0.9603,0.9603,0.9126,0.6999,0.6523,0.6102,0.3967,0.3527,0.3949,0.5148,0.4508,0.4005,0.5204,0.5427,0.5065,0.3838,0.459,0.5009,0.3783,0.3587,0.3587,0.3587,0.3587,0.3587,0.3587,0.3724,0.3798,0.3799,0.3849,0.3888,0.3889,0.3889,0.3889,0.3889,0.3889,0.3889,0.3889,0.3889,0.3889,0.3889,0.3889,0.3889,0.3889,0.3889,0.3889,0.3889,0.3889,0.3889,0.3889,0.392,0.4286,0.4926,0.4926,0.5692,0.6919,0.6919,0.7319,0.7903,0.7903,0.7903,0.7903,0.0,0.0,0.0,0.0,0.0,0.0,0.0,0.0,1.4359,1.4321,1.4706,1.4858,1.453,1.45,1.4586,1.4795,0.0,0.0,0.0,0.0,0.0,0.0,0.0,0.0,0.0,0.0,1.2413,1.2243,1.1957,1.1515,1.0939,1.1038,1.0582,0.9741,1.0566,1.0652,0.0,0.0,0.0,0.0,0.0,0.0,0.8665,0.0,0.0,0.0,0.0,0.0,0.0,0.0,0.0,0.0,0.0,0.0,0.0,0.9603,0.9603,0.9153,0.703,0.6533,0.609,0.3997,0.3529,0.3921,0.512,0.5093,0.4925,0.5316,0.5399,0.5037,0.3811,0.3923,0.4033,0.3671,0.3587,0.3587,0.3587,0.3587,0.3587,0.3587,0.3724,0.3814,0.3857,0.3873,0.3889,0.3889,0.3889,0.3889,0.3889,0.3889,0.3889,0.3889,0.3889,0.3889,0.3889,0.3889,0.3889,0.3889,0.3889,0.3889,0.3889,0.3889,0.3889,0.3889,0.3889,0.4286,0.4894,0.4894,0.5416,0.6274,0.6735,0.7041,0.7286,0.7717,0.7903,0.7903,0.0,0.0,0.0,0.0,0.0,0.0,0.0,0.0,1.4314,1.4275,1.4652,1.4813,1.453,1.45,1.469,1.5162,0.0,0.0,0.0,0.0,0.0,0.0,0.0,0.0,0.0,1.2821,1.269,1.2552,1.2398,1.2011,1.15,1.1779,1.1475,1.0692,1.1365,1.142,0.0,0.0,0.0,0.0,0.0,0.0,0.8684,0.0,0.0,0.0,0.0,0.0,0.0,0.0,0.0,0.0,0.0,0.0,0.0,0.0,0.9603,0.9239,0.762,0.6903,0.6206,0.459,0.39,0.3811,0.4562,0.4732,0.4732,0.4732,0.4732,0.448,0.3727,0.3587,0.3587,0.3587,0.3587,0.3587,0.3587,0.3587,0.3595,0.3647,0.3737,0.3823,0.3884,0.3916,0.3889,0.3889,0.3889,0.3889,0.3889,0.3889,0.3889,0.3889,0.3889,0.3889,0.3889,0.3889,0.3889,0.3889,0.3889,0.3889,0.3889,0.3889,0.3889,0.3889,0.3889,0.4133,0.0,0.453,0.5082,0.5937,0.6366,0.6827,0.7319,0.775,0.7903,0.7903,0.0,0.0,0.0,0.0,0.0,0.0,0.0,0.0,0.0,0.0,0.0,1.45,1.45,1.453,0.0,0.0,0.0,0.0,0.0,0.0,0.0,0.0,0.0,0.0,0.0,1.3194,1.3004,1.3004,1.2536,1.2321,1.2321,1.2182,1.2104,1.2112,1.1918,1.1809,0.0,0.0,0.0,0.0,0.0,0.0,0.0,0.0,0.0,0.0,0.0,0.0,0.0,0.0,0.0,0.0,0.0,0.0,0.0,0.0,0.0,0.0,0.0,0.7535,0.6394,0.5518,0.4455,0.3587,0.3587,0.3587,0.0,0.3587,0.3587,0.3587,0.3587,0.3587,0.3587,0.3587,0.3587,0.3587,0.3587,0.3587,0.364,0.3706,0.3764,0.3825,0.389,0.3886,0.3889,0.3889,0.3889,0.3889,0.3889,0.3889,0.3889,0.3889,0.3889,0.3889,0.3889,0.3889,0.3889,0.3889,0.3889,0.3889,0.3889,0.3889,0.3889,0.3889,0.3889,0.3889,0.3889,0.3889,0.4624,0.5755,0.5814,0.6613,0.7778,0.7808,0.7869,0.7903,0.0,0.0,0.0,0.0,0.0,0.0,0.0,0.0,0.0,0.0,0.0,1.45,1.45,1.4813,0.0,0.0,0.0,0.0,0.0,0.0,0.0,0.0,0.0,0.0,0.0,1.3368,1.3004,1.3004,1.2683,1.2529,1.2529,1.2336,1.2259,1.2243,1.2104,1.1949,1.1777,0.0,0.0,0.0,0.0,0.0,0.0,0.0,0.0,0.0,0.8554,0.8864,0.0,0.0,0.0,0.0,0.0,0.0,0.0,0.0,0.9603,0.9622,0.9727,0.0,0.6412,0.5573,0.4495,0.3587,0.0,0.3587,0.3587,0.3587,0.3587,0.3587,0.3587,0.3587,0.3587,0.3587,0.3587,0.3587,0.3587,0.3587,0.3655,0.3764,0.379,0.384,0.3889,0.3912,0.3889,0.3889,0.3889,0.3889,0.3889,0.3889,0.3889,0.3889,0.3889,0.3889,0.3889,0.3889,0.3889,0.3889,0.3889,0.3889,0.3889,0.3889,0.3889,0.3889,0.3889,0.3889,0.3889,0.3889,0.4073,0.441,0.4928,0.563,0.6429,0.695,0.7472,0.7903,0.0,0.0,0.0,0.0,0.0,0.0,0.0,0.0,0.0,0.0,0.0,0.0,0.0,0.0,0.0,0.0,0.0,0.0,0.0,0.0,0.0,0.0,0.0,0.0,1.485,1.3782,1.3292,1.3452,1.2882,1.259,1.259,1.2483,1.2444,1.2436,1.2274,1.2126,1.2024,1.1843,1.1421,0.0,1.0397,0.0,0.0,0.0,0.0,0.0,0.8753,0.9041,0.0,0.9797,1.0023,1.0226,0.0,0.0,0.0,0.0,0.9249,0.8946,0.9279,0.8023,0.6523,0.6258,0.4868,0.3587,0.3587,0.3587,0.3587,0.3587,0.3587,0.3587,0.3587,0.3587,0.3587,0.3587,0.3587,0.3587,0.3587,0.3587,0.3651,0.3746,0.3781,0.3836,0.3899,0.3904,0.3889,0.3889,0.3889,0.3889,0.3889,0.3889,0.3889,0.3889,0.3889,0.3889,0.3889,0.3889,0.3889,0.3889,0.3889,0.3889,0.3889,0.3889,0.3889,0.3889,0.3889,0.3889,0.3889,0.3889,0.4057,0.4334,0.4727,0.5248,0.5882,0.6591,0.7094,0.7435,0.0,0.0,0.0,0.0,0.0,0.0,0.0,0.0,0.0,0.0,0.0,0.0,0.0,0.0,0.0,0.0,0.0,0.0,0.0,0.0,0.0,0.0,0.0,1.5715,1.5478,1.4118,1.3565,1.3845,1.3004,1.259,1.259,1.259,1.259,1.259,1.2367,1.2296,1.2335,1.2322,1.2133,1.1733,1.0972,0.0,0.0,0.0,0.0,0.0,0.0,0.0,0.0,0.9833,1.0087,1.0318,1.0371,0.0,0.0,0.0,0.0,0.0,0.8134,0.7261,0.6443,0.6751,0.5198,0.3587,0.3587,0.3587,0.3587,0.3587,0.3587,0.3587,0.3587,0.3587,0.3587,0.3587,0.3587,0.3587,0.3587,0.3587,0.3637,0.37,0.3761,0.3823,0.3884,0.3916,0.3889,0.3889,0.3889,0.3889,0.3889,0.3889,0.3889,0.3889,0.3889,0.3889,0.3889,0.3889,0.3889,0.3889,0.3889,0.3889,0.3889,0.3889,0.3889,0.3889,0.3889,0.3915,0.3905,0.3905,0.4203,0.4654,0.4654,0.503,0.5626,0.6357,0.6687,0.6881,0.0,0.0,0.0,0.0,0.0,0.0,0.0,0.0,0.0,0.0,0.0,0.0,0.0,0.0,0.0,0.0,0.0,0.0,0.0,0.0,0.0,0.0,1.5874,1.5279,1.4848,1.3685,1.3103,1.3148,1.2775,1.259,1.259,1.259,1.259,1.2598,1.2267,1.2257,1.2463,1.2461,1.2212,1.1752,1.123,0.0,0.0,0.0,0.0,0.0,0.0,0.0,0.0,0.9878,1.0299,1.0744,1.0489,0.0,0.0,0.0,0.0,0.0,0.7217,0.6155,0.5301,0.5601,0.4618,0.3587,0.3587,0.3587,0.3587,0.3587,0.3587,0.3587,0.3587,0.3587,0.3587,0.3587,0.3587,0.3587,0.3587,0.3587,0.3637,0.37,0.3761,0.3823,0.3884,0.3916,0.3889,0.3889,0.3889,0.3889,0.3889,0.3889,0.3889,0.3889,0.3889,0.3889,0.3889,0.3889,0.3889,0.3889,0.3889,0.3889,0.3889,0.3889,0.3889,0.3889,0.3889,0.389,0.3904,0.3904,0.3928,0.3959,0.3959,0.4336,0.4943,0.5542,0.6136,0.674,0.0,0.0,0.0,0.0,0.0,0.0,0.0,0.0,0.0,0.0,0.0,0.0,0.0,0.0,0.0,0.0,0.0,0.0,0.0,0.0,0.0,1.6232,1.5284,1.4815,1.4971,1.3685,1.3087,1.3277,1.2812,1.259,1.259,1.259,1.259,1.2598,1.2508,1.258,1.2785,1.2889,1.2596,1.2014,0.0,0.0,0.0,0.0,0.0,0.0,0.0,0.0,0.0,0.0,1.0439,1.0833,1.0498,0.0,0.0,0.0,0.0,0.0,0.5913,0.4994,0.4184,0.4387,0.4005,0.3587,0.3587,0.3587,0.3587,0.3587,0.3587,0.3587,0.3587,0.3587,0.3587,0.3587,0.3587,0.3587,0.3587,0.3587,0.3637,0.37,0.3761,0.3823,0.3884,0.3916,0.3889,0.3889,0.3889,0.3889,0.3889,0.3889,0.3889,0.3889,0.3889,0.3889,0.3889,0.3889,0.3889,0.3889,0.3889,0.3889,0.3889,0.3889,0.3889,0.3887,0.3885,0.3886,0.3887,0.3854,0.3805,0.375,0.375,0.3901,0.4217,0.5236,0.6038,0.6706,0.0,0.0,0.0,0.0,0.0,0.0,0.0,0.0,0.0,0.0,0.0,0.0,0.0,0.0,0.0,0.0,0.0,0.0,0.0,0.0,1.6232,1.5758,1.4643,1.4273,1.4785,1.3565,1.3026,1.3292,1.2828,1.259,1.259,1.259,1.2623,1.2648,1.2702,1.2856,1.3059,1.2986,1.2702,1.2206,0.0,0.0,0.0,0.0,0.0,0.0,0.0,0.0,0.0,0.0,0.0,0.0,0.0,0.0,0.0,0.7943,0.6345,0.4798,0.4663,0.403,0.3456,0.3561,0.3587,0.3587,0.3587,0.3587,0.3587,0.3587,0.3587,0.3587,0.3587,0.3587,0.3587,0.3587,0.3587,0.3587,0.3587,0.3587,0.3633,0.368,0.3753,0.3817,0.3864,0.3876,0.3889,0.3889,0.3889,0.3889,0.3889,0.3889,0.3889,0.3889,0.3889,0.3889,0.3889,0.3889,0.3889,0.3889,0.3889,0.3889,0.3889,0.3889,0.3912,0.3896,0.391,0.3873,0.3843,0.3796,0.374,0.3685,0.3685,0.3741,0.3929,0.497,0.5851,0.6631,0.0,0.0,0.0,0.0,0.0,0.0,0.0,0.0,0.0,0.0,0.0,0.0,0.0,0.0,0.0,0.0,0.0,0.0,0.0,0.0,1.5744,1.5269,1.4163,1.3563,1.3616,1.2965,1.2636,1.2667,1.2621,1.259,1.259,1.259,1.2672,1.2788,1.2594,1.2804,1.3224,1.23,1.2067,1.2157,1.0607,0.0,0.0,0.0,0.0,0.0,0.0,0.0,0.0,0.0,0.0,0.0,0.0,0.0,0.8555,0.7263,0.5941,0.4691,0.3763,0.3503,0.3506,0.3571,0.3587,0.3587,0.3587,0.3587,0.3587,0.3587,0.3587,0.3587,0.3587,0.3587,0.3587,0.3587,0.3587,0.3587,0.3587,0.3587,0.3589,0.3594,0.3726,0.3801,0.3805,0.3851,0.3889,0.3889,0.3889,0.3889,0.3889,0.3889,0.3889,0.3889,0.3889,0.3889,0.3889,0.3889,0.3889,0.3889,0.3889,0.3889,0.3889,0.3889,0.3889,0.3897,0.3893,0.3825,0.372,0.3715,0.3677,0.3594,0.3594,0.3954,0.4452,0.4541,0.5354,0.6431,0.0,0.0,0.0,0.0,0.0,0.0,0.0,0.0,0.0,0.0,0.0,0.0,0.0,0.0,0.0,0.0,0.0,0.0,0.0,0.0,1.5386,1.5206,1.4103,1.3496,1.3496,1.2904,1.259,1.259,1.259,1.259,1.2598,1.2806,1.2877,1.2794,1.2554,1.2474,1.2498,1.1707,1.115,1.0774,1.0283,0.9836,0.0,0.0,0.0,0.0,0.0,0.0,0.0,0.0,1.0956,1.112,1.0683,0.9287,0.7642,0.6794,0.5295,0.3823,0.3501,0.3454,0.3511,0.3572,0.3587,0.3587,0.3587,0.3587,0.3587,0.3587,0.3587,0.3587,0.3587,0.3587,0.3587,0.3587,0.3587,0.3587,0.3587,0.3587,0.3587,0.3587,0.3724,0.3799,0.3799,0.3849,0.3889,0.3889,0.3889,0.3889,0.3889,0.3889,0.3889,0.3889,0.3889,0.3889,0.3889,0.3889,0.3889,0.3888,0.3913,0.3875,0.3838,0.3838,0.3826,0.3831,0.3792,0.375,0.3705,0.3666,0.3636,0.3587,0.3587,0.3727,0.3977,0.4369,0.4806,0.5318,0.0,0.0,0.0,0.0,0.0,0.0,0.0,0.0,0.0,0.0,0.0,0.0,0.0,0.0,0.0,0.0,0.0,0.0,0.0,1.5381,1.5133,1.4996,1.4028,1.3496,1.3496,1.2904,1.259,1.259,1.259,1.2654,1.2766,1.2925,1.2887,1.2657,1.2416,1.2107,1.174,1.1014,1.0445,0.9983,0.9871,0.9572,0.0,0.0,0.0,0.0,0.0,0.0,0.0,0.0,1.108,1.112,1.0679,0.8987,0.712,0.667,0.5014,0.3334,0.3401,0.3467,0.3536,0.3576,0.3587,0.3587,0.3587,0.3587,0.3587,0.3587,0.3587,0.3587,0.3587,0.3587,0.3587,0.3587,0.3587,0.3587,0.3587,0.3587,0.3587,0.3587,0.3724,0.3799,0.3799,0.3849,0.3889,0.3889,0.3889,0.3889,0.3889,0.3889,0.3889,0.3889,0.3889,0.3889,0.3889,0.3889,0.3911,0.389,0.3891,0.385,0.3827,0.3807,0.3788,0.3768,0.3725,0.3696,0.3674,0.3633,0.3587,0.3587,0.3587,0.3587,0.3643,0.4061,0.4356,0.4692,0.0,0.0,0.0,0.0,0.0,0.0,0.0,0.0,0.0,0.0,0.0,0.0,0.0,0.0,0.0,0.0,0.0,0.0,0.0,1.5182,1.4981,1.453,1.3851,1.3496,1.3496,1.2904,1.259,1.259,1.2598,1.2766,1.3092,1.2899,1.2654,1.2396,1.2183,1.1717,1.1037,1.0237,1.0018,1.0124,0.9316,0.9239,0.9602,0.0,0.0,0.0,0.0,0.0,0.0,0.0,1.1194,1.112,1.0875,0.9135,0.712,0.6866,0.5188,0.3413,0.3413,0.3499,0.3587,0.3587,0.3587,0.3587,0.3587,0.3587,0.3587,0.3587,0.3587,0.3587,0.3587,0.3587,0.3587,0.3587,0.3587,0.3587,0.3587,0.3587,0.3587,0.3587,0.3724,0.3799,0.3799,0.3849,0.3889,0.3889,0.3889,0.3889,0.3889,0.3889,0.3889,0.3889,0.3889,0.3889,0.3889,0.3889,0.389,0.389,0.3829,0.3831,0.3887,0.3825,0.3764,0.3706,0.3706,0.3672,0.3587,0.3587,0.3587,0.3587,0.3587,0.3589,0.3589,0.3589,0.4021,0.468,0.0,0.0,0.0,0.0,0.0,0.0,0.0,0.0,0.0,0.0,0.0,0.0,0.0,0.0,0.0,0.0,0.0,0.0,0.0,1.4704,1.4541,1.4169,1.3731,1.339,1.3148,1.279,1.259,1.259,1.2845,1.2941,1.2883,1.2734,1.2495,1.2155,1.1186,1.0563,1.021,0.9541,0.9296,0.936,0.9403,0.9493,0.9635,0.0,0.0,0.0,0.0,0.0,0.0,0.0,0.0,0.0,0.9476,0.7741,0.5741,0.5535,0.449,0.3421,0.3461,0.3527,0.3587,0.3587,0.3587,0.3587,0.3587,0.3587,0.3587,0.3587,0.3587,0.3587,0.3587,0.3587,0.3587,0.3587,0.3587,0.3587,0.3587,0.3587,0.3587,0.3587,0.3724,0.3799,0.3799,0.3849,0.3889,0.3889,0.3889,0.3889,0.3889,0.3889,0.3889,0.3889,0.3889,0.3889,0.3889,0.3889,0.3911,0.3892,0.3893,0.3828,0.3759,0.3698,0.3659,0.3643,0.3643,0.3604,0.3587,0.3587,0.3587,0.3587,0.3587,0.3641,0.368,0.368,0.3833,0.4126,0.0,0.0,0.0,0.0,0.0,0.0,0.0,0.0,0.0,0.0,0.0,0.0,0.0,0.0,0.0,0.0,0.0,0.0,0.0,0.0,1.4213,1.401,1.3549,1.3155,1.2851,1.2683,1.2662,1.2805,1.3004,1.2976,1.2717,1.2582,1.21,1.1301,1.047,0.9884,0.9516,0.9145,0.9099,0.9253,0.9503,0.9705,0.9901,0.0,0.0,0.0,0.0,0.0,0.0,0.0,0.0,0.0,0.8757,0.7071,0.5165,0.4919,0.4174,0.342,0.3454,0.3523,0.3587,0.3587,0.3587,0.3587,0.3587,0.3587,0.3587,0.3587,0.3587,0.3587,0.3587,0.3587,0.3587,0.3587,0.3587,0.3587,0.3587,0.3587,0.3587,0.3587,0.3724,0.3799,0.3799,0.3849,0.3889,0.3889,0.3889,0.3889,0.3889,0.3889,0.3889,0.3889,0.3889,0.3889,0.3889,0.3889,0.3889,0.3888,0.389,0.3851,0.3777,0.3691,0.3639,0.3587,0.3587,0.3587,0.3587,0.3587,0.3587,0.359,0.3643,0.3674,0.371,0.3735,0.3783,0.393,0.0,0.0,0.0,0.0,0.0,0.0,0.0,0.0,0.0,0.0,0.0,0.0,0.0,0.0,0.0,0.0,0.0,0.0,0.0,0.0,1.3935,1.392,1.33,1.2851,1.2614,1.2545,1.2672,1.3003,1.3003,1.2854,1.2572,1.2321,1.1464,1.0158,0.9914,0.9516,0.9005,0.9043,0.9258,0.9606,0.9649,0.991,1.0299,1.0337,0.0,0.0,0.0,0.0,0.0,0.0,0.0,0.0,0.8287,0.6697,0.4983,0.4727,0.4074,0.3414,0.3425,0.3506,0.3587,0.3587,0.3587,0.3587,0.3587,0.3587,0.3587,0.3587,0.3587,0.3587,0.3587,0.3587,0.3587,0.3587,0.3587,0.3587,0.3587,0.3587,0.3587,0.3587,0.372,0.3792,0.3798,0.3875,0.3913,0.3888,0.3889,0.3889,0.3889,0.3889,0.3889,0.3889,0.3889,0.3889,0.3889,0.3889,0.3889,0.3888,0.3895,0.3895,0.3886,0.3762,0.3673,0.3587,0.3587,0.3587,0.3587,0.3587,0.3591,0.3601,0.3685,0.3714,0.3731,0.3787,0.3846,0.3989,0.0,0.0,0.0,0.0,0.0,0.0,0.0,0.0,0.0,0.0,0.0,0.0,0.0,0.0,0.0,0.0,0.0,0.0,0.0,0.0,1.3489,1.3224,1.2882,1.2652,1.259,1.208,1.1982,1.2318,1.2318,1.2368,1.2431,1.1235,1.0431,0.9941,0.9421,0.9115,0.9029,0.9333,0.9522,0.963,1.0003,1.0214,1.0333,1.0659,1.082,0.0,0.0,0.0,0.0,0.0,0.0,0.0,0.6052,0.4855,0.3626,0.3682,0.355,0.3433,0.3525,0.3568,0.3587,0.3587,0.3587,0.3587,0.3587,0.3587,0.3587,0.3587,0.3587,0.3587,0.3587,0.3587,0.3587,0.3587,0.3587,0.3587,0.3587,0.3587,0.3587,0.3587,0.3681,0.3746,0.3794,0.3867,0.3899,0.3885,0.3889,0.3889,0.3889,0.3889,0.3889,0.3889,0.3889,0.3889,0.3889,0.3889,0.3889,0.3889,0.3907,0.3906,0.3886,0.3762,0.3673,0.3587,0.3587,0.3587,0.3587,0.3587,0.3644,0.3688,0.3702,0.3766,0.3853,0.3865,0.3879,0.3931,0.0,0.0,0.0,0.0,0.0,0.0,0.0,0.0,0.0,0.0,0.0,0.0,0.0,0.0,0.0,0.0,0.0,0.0,0.0,0.0,0.0,1.2821,1.2555,1.2326,1.2129,1.1654,1.1485,1.168,1.1198,1.1098,1.1326,1.0557,0.9946,0.9464,0.913,0.9118,0.9296,0.9512,0.9741,0.9965,1.0209,1.0418,1.0617,1.0816,1.0957,1.1052,1.1014,0.0,0.0,0.0,0.0,0.0,0.0,0.0,0.3223,0.3316,0.3363,0.3431,0.3521,0.3565,0.3587,0.3587,0.3587,0.3587,0.3587,0.3587,0.3587,0.3587,0.3587,0.3587,0.3587,0.3587,0.3587,0.3587,0.3587,0.3587,0.3587,0.3587,0.3587,0.3587,0.367,0.372,0.3751,0.3836,0.3904,0.3905,0.3903,0.3889,0.3889,0.3889,0.3889,0.3889,0.3889,0.3889,0.3889,0.3889,0.3889,0.3889,0.3889,0.3888,0.3886,0.3762,0.3673,0.3587,0.3587,0.3587,0.3587,0.3587,0.3651,0.371,0.3739,0.3807,0.3894,0.3892,0.3893,0.3889,0.0,0.0,0.0,0.0,0.0,0.0,0.0,0.0,0.0,0.0,0.0,0.0,0.0,0.0,0.0,0.0,0.0,0.0,0.0,0.0,0.0,0.0,1.2162,1.1815,1.1537,1.1142,1.0945,1.0934,0.9989,0.9683,0.9992,0.9992,0.9631,0.9005,0.908,0.9282,0.9611,0.9682,0.9912,1.0237,1.0307,1.0519,1.0781,1.0838,1.0955,1.1047,1.085,1.0556,1.0035,0.8612,0.0,0.0,0.0,0.0,0.3219,0.329,0.3347,0.3427,0.3493,0.3549,0.3587,0.3587,0.3587,0.3587,0.3587,0.3587,0.3587,0.3587,0.3587,0.3587,0.3587,0.3587,0.3587,0.3587,0.3587,0.3587,0.3587,0.3587,0.3587,0.3587,0.3661,0.3695,0.3706,0.3799,0.3862,0.3873,0.3901,0.3904,0.3904,0.3915,0.3889,0.3889,0.3889,0.3889,0.3889,0.3889,0.3889,0.3889,0.3889,0.3888,0.3887,0.3775,0.3689,0.363,0.3593,0.3587,0.3589,0.3598,0.3667,0.3729,0.379,0.3853,0.3912,0.3901,0.3889,0.3889,0.0,0.0,0.0,0.0,0.0,0.0,0.0,0.0,0.0,0.0,1.5094,0.0,0.0,0.0,0.0,0.0,0.0,0.0,1.2744,0.0,0.0,1.2245,1.1446,1.1072,1.1251,1.0355,0.9903,0.9901,0.9183,0.8942,0.9154,0.9154,0.9095,0.9019,0.9362,0.955,0.963,1.0036,1.0113,0.9989,1.0342,1.0373,1.0245,1.0652,1.0685,1.0536,1.0732,0.9612,0.7925,0.7242,0.5849,0.0,0.0,0.0,0.3228,0.334,0.3406,0.3436,0.3545,0.358,0.3587,0.3587,0.3587,0.3587,0.3587,0.3587,0.3587,0.3587,0.3587,0.3587,0.3587,0.3587,0.3587,0.3587,0.3587,0.3587,0.3587,0.3587,0.3587,0.3587,0.3594,0.3648,0.3702,0.3722,0.3754,0.3807,0.3868,0.3902,0.3902,0.3892,0.3889,0.3889,0.3889,0.3889,0.3889,0.3889,0.3889,0.3889,0.3889,0.3888,0.3888,0.3818,0.3753,0.3691,0.3639,0.3587,0.3591,0.3673,0.3731,0.3792,0.3854,0.3886,0.3909,0.3887,0.3889,0.3889,0.0,0.0,0.0,0.0,0.0,0.0,0.0,0.0,0.0,0.0,0.0,1.4294,0.0,0.0,0.0,1.3246,1.3087,1.2825,1.2396,1.1656,1.1365,1.1638,1.0915,1.0464,1.0355,0.9783,0.9375,0.9141,0.8952,0.8911,0.901,0.9221,0.9333,0.9343,0.9682,0.9885,0.9995,1.0179,1.0237,1.0193,0.962,0.9381,0.9327,0.8932,0.9086,0.9505,0.9456,0.8838,0.7897,0.6918,0.5627,0.4309,0.3457,0.0,0.0,0.0,0.3435,0.3478,0.3564,0.3587,0.3587,0.3587,0.3587,0.3587,0.3587,0.3587,0.3587,0.3587,0.3587,0.3587,0.3587,0.3587,0.3587,0.3587,0.3587,0.3587,0.3587,0.3587,0.3587,0.3587,0.3587,0.3626,0.3652,0.3687,0.3718,0.3746,0.3805,0.3854,0.3888,0.3886,0.3885,0.3888,0.3889,0.3889,0.3889,0.3889,0.3889,0.3889,0.3889,0.3905,0.3909,0.3878,0.3798,0.3703,0.3643,0.3587,0.3593,0.3681,0.3743,0.3805,0.3867,0.3897,0.3889,0.3889,0.3889,0.3889,0.0,0.0,0.0,0.0,0.0,0.0,0.0,0.0,0.0,0.0,0.0,0.0,0.0,0.0,0.0,0.0,1.2816,1.2554,1.1976,1.1082,1.0687,1.0967,1.0313,0.9838,0.9598,0.9306,0.9023,0.8784,0.8925,0.9057,0.915,0.947,0.947,0.9289,0.9764,1.0038,1.0181,1.0176,1.0062,0.9816,0.8862,0.8356,0.811,0.7369,0.754,0.8159,0.8039,0.7766,0.7322,0.6326,0.5281,0.4259,0.3457,0.3247,0.0,0.0,0.0,0.3529,0.3575,0.3587,0.3587,0.3587,0.3587,0.3587,0.3587,0.3587,0.3587,0.3587,0.3587,0.3587,0.3587,0.3587,0.3587,0.3587,0.3587,0.3587,0.3587,0.3587,0.3587,0.3587,0.3587,0.3587,0.3587,0.3656,0.3684,0.3684,0.374,0.3795,0.384,0.3858,0.3895,0.3895,0.3897,0.3904,0.3889,0.3889,0.3889,0.3889,0.3889,0.3889,0.3887,0.3888,0.3832,0.3726,0.3665,0.3629,0.3621,0.3699,0.3757,0.3806,0.3883,0.3912,0.3889,0.3889,0.3889,0.3889,0.0,0.0,0.0,0.0,0.0,0.0,0.0,0.0,0.0,0.0,0.0,0.0,1.3526,1.324,1.2843,1.2382,1.2277,1.195,1.1295,1.0429,1.0067,1.0342,0.9472,0.0,0.932,0.8932,0.8822,0.8986,0.9,0.9188,0.9578,0.9596,0.9151,0.8411,0.9458,0.9872,0.9833,1.0035,0.9368,0.8225,0.8368,0.766,0.6545,0.6741,0.6692,0.6545,0.6791,0.6074,0.4983,0.491,0.4158,0.3281,0.323,0.3247,0.3308,0.0,0.0,0.0,0.3587,0.3587,0.3587,0.3587,0.3587,0.3587,0.3587,0.3587,0.3587,0.3587,0.3587,0.3587,0.3587,0.3587,0.3587,0.3587,0.3587,0.3587,0.3587,0.3587,0.3587,0.3587,0.3587,0.3587,0.3587,0.359,0.3593,0.3593,0.3677,0.3713,0.3715,0.3772,0.3832,0.3893,0.3895,0.3892,0.3888,0.3889,0.3889,0.3889,0.3889,0.3889,0.3887,0.3888,0.3856,0.379,0.3729,0.3669,0.3597,0.3744,0.3795,0.381,0.3869,0.3887,0.3889,0.3889,0.3889,0.3889,0.0,0.0,0.0,0.0,0.0,0.0,0.0,0.0,0.0,0.0,0.0,0.0,0.0,1.199,1.149,1.1235,1.0904,1.0692,1.0632,0.9761,0.9376,0.9652,0.9097,0.8879,0.9101,0.897,0.8991,0.9198,0.89,0.8674,0.8568,0.8222,0.7743,0.7229,0.9161,0.9241,0.7985,0.8706,0.8332,0.7199,0.641,0.5804,0.5306,0.4705,0.4855,0.5381,0.5479,0.5206,0.4809,0.4809,0.4083,0.3205,0.3205,0.3273,0.3399,0.3496,0.3555,0.3587,0.3587,0.3587,0.3587,0.3587,0.3587,0.3587,0.3587,0.3587,0.3587,0.3587,0.3587,0.3587,0.3587,0.3587,0.3587,0.3587,0.3587,0.3587,0.3587,0.3587,0.3587,0.3587,0.3587,0.3587,0.3587,0.3587,0.3587,0.3587,0.3636,0.3665,0.3705,0.3728,0.3768,0.3829,0.3832,0.3861,0.3892,0.39,0.3889,0.3889,0.3889,0.3889,0.3888,0.3897,0.3864,0.3798,0.3776,0.3709,0.3597,0.3748,0.3799,0.381,0.3873,0.3889,0.3889,0.3889,0.3889,0.3889,0.0,0.0,0.0,0.0,0.0,0.0,0.0,0.0,0.0,0.0,0.0,0.0,0.0,0.0,1.0672,1.0499,0.992,0.9672,0.9939,0.925,0.8947,0.9192,0.8947,0.8887,0.9099,0.9038,0.8937,0.8823,0.8472,0.8023,0.7486,0.7126,0.6611,0.6052,0.7994,0.8067,0.6771,0.7452,0.7117,0.6049,0.5156,0.4583,0.4183,0.3482,0.3632,0.4259,0.4259,0.4259,0.4262,0.4289,0.3818,0.3239,0.3259,0.3334,0.3461,0.3559,0.3587,0.3587,0.3587,0.3587,0.3587,0.3587,0.3587,0.3587,0.3587,0.3587,0.3587,0.3587,0.3587,0.3587,0.3587,0.3587,0.3587,0.3587,0.3334,0.325,0.3559,0.3587,0.3587,0.3587,0.3587,0.3587,0.3587,0.3587,0.3587,0.3587,0.3587,0.3633,0.3674,0.3676,0.3705,0.3766,0.3788,0.3818,0.386,0.389,0.3889,0.389,0.3911,0.3889,0.3889,0.3889,0.3865,0.3828,0.3807,0.3729,0.3597,0.3748,0.3799,0.381,0.3873,0.3889,0.3889,0.3889,0.3889,0.3889,0.0,0.0,0.0,0.0,0.0,0.0,0.0,0.0,0.0,0.0,0.0,0.0,0.0,0.0,0.0,1.0269,0.9426,0.9015,0.9279,0.8913,0.8798,0.8985,0.897,0.9044,0.9286,0.9038,0.8589,0.7905,0.773,0.7221,0.6453,0.6423,0.5858,0.4893,0.5877,0.6298,0.6298,0.6348,0.5727,0.4759,0.4759,0.4133,0.3205,0.3205,0.3206,0.3208,0.3208,0.3209,0.322,0.3278,0.3298,0.3309,0.3369,0.3452,0.3508,0.357,0.3587,0.3587,0.0,0.0,0.0,0.3587,0.3587,0.3587,0.3587,0.3587,0.3587,0.3587,0.3587,0.3587,0.3587,0.3587,0.3559,0.3587,0.2829,0.2548,0.3475,0.3587,0.3587,0.3587,0.3587,0.3587,0.3587,0.3587,0.3587,0.3587,0.3587,0.3587,0.3587,0.3587,0.3643,0.3702,0.3764,0.3795,0.3795,0.3857,0.3887,0.3888,0.3889,0.3887,0.3887,0.3888,0.3886,0.3887,0.3825,0.3731,0.36,0.3748,0.3799,0.381,0.3873,0.3889,0.3889,0.3889,0.3889,0.3889,0.0,0.0,0.0,0.0,0.0,0.0,0.0,0.0,0.0,0.0,0.0,0.0,0.0,0.9513,0.9195,0.9149,0.8913,0.8859,0.9072,0.8799,0.8743,0.8979,0.8159,0.8119,0.8996,0.7632,0.7218,0.7901,0.6645,0.5797,0.5334,0.4841,0.429,0.3678,0.3971,0.4081,0.4131,0.4908,0.4634,0.3632,0.3632,0.3457,0.3205,0.3205,0.3232,0.327,0.327,0.3298,0.3339,0.3355,0.3361,0.3397,0.3455,0.3484,0.3508,0.357,0.3587,0.3587,0.3587,0.0,0.0,0.0,0.0,0.0,0.3587,0.3587,0.3587,0.3587,0.3587,0.3587,0.3587,0.3053,0.28,0.3503,0.339,0.3306,0.3559,0.3587,0.3587,0.3587,0.3587,0.3587,0.3587,0.3587,0.3587,0.3587,0.3587,0.3587,0.3587,0.3587,0.3595,0.364,0.37,0.3732,0.3732,0.3792,0.3824,0.3825,0.3886,0.3886,0.3887,0.39,0.3886,0.3887,0.3825,0.3754,0.3688,0.3766,0.3799,0.381,0.3873,0.3889,0.3889,0.3889,0.3889,0.3889,0.0,0.0,0.0,0.0,0.0,0.0,0.0,0.0,0.0,0.0,0.0,0.0,0.8741,0.0,0.7465,0.7482,0.7485,0.7547,0.7664,0.7514,0.7537,0.7772,0.7125,0.7101,0.7872,0.6735,0.6293,0.6608,0.557,0.4744,0.4135,0.0,0.347,0.3205,0.3205,0.3205,0.3232,0.3889,0.38,0.324,0.3216,0.3236,0.3278,0.3252,0.3281,0.3334,0.3334,0.3357,0.3416,0.344,0.3465,0.3491,0.3523,0.3534,0.3541,0.3576,0.3587,0.3587,0.3587,0.3587,0.3587,0.3587,0.0,0.0,0.3587,0.3587,0.3587,0.3587,0.3587,0.3587,0.3587,0.3166,0.2969,0.3503,0.3587,0.3587,0.3587,0.3587,0.3587,0.3587,0.3587,0.3587,0.3587,0.3587,0.3587,0.3587,0.3587,0.3587,0.3587,0.3587,0.3587,0.3587,0.365,0.3669,0.3669,0.3729,0.3761,0.3761,0.3823,0.3865,0.3891,0.3897,0.3907,0.3892,0.3836,0.3779,0.3746,0.3757,0.3776,0.3809,0.3875,0.3897,0.3889,0.3889,0.3889,0.3889,0.0,0.0,0.0,0.0,0.0,0.0,0.0,0.0,0.0,0.0,0.0,0.7854,0.7211,0.0,0.0,0.0,0.58,0.5812,0.5847,0.582,0.0,0.6094,0.5992,0.6081,0.6428,0.6048,0.5514,0.4784,0.4551,0.3978,0.3102,0.0,0.0,0.0,0.3205,0.3209,0.3219,0.3273,0.3304,0.3309,0.325,0.329,0.3381,0.3325,0.3343,0.3421,0.3421,0.3427,0.344,0.3489,0.3542,0.3587,0.3587,0.3587,0.3587,0.3587,0.3587,0.3587,0.3587,0.3587,0.3587,0.3587,0.3587,0.0,0.3587,0.3587,0.3587,0.3587,0.3587,0.3587,0.3587,0.3587,0.3587,0.3587,0.3587,0.3587,0.3587,0.3587,0.3587,0.3587,0.3587,0.3587,0.3587,0.3587,0.3587,0.3587,0.3587,0.3587,0.3587,0.3587,0.3587,0.3587,0.3587,0.3587,0.3587,0.367,0.3698,0.3698,0.3759,0.3817,0.3869,0.3878,0.3883,0.3903,0.3819,0.3799,0.3794,0.3732,0.3743,0.3805,0.3867,0.3897,0.3889,0.3889,0.3889,0.3889,0.0,0.0,0.0,0.0,0.0,0.0,0.0,0.0,0.0,0.0,0.6777,0.6195,0.6102,0.5912,0.5776,0.0,0.5798,0.5899,0.6107,0.5927,0.5924,0.6181,0.531,0.5195,0.6008,0.4493,0.4018,0.4645,0.3799,0.3325,0.3188,0.0,0.0,0.0,0.3205,0.3232,0.3279,0.329,0.335,0.3458,0.3399,0.3365,0.3412,0.3373,0.3429,0.348,0.348,0.3512,0.3555,0.3565,0.3578,0.3587,0.3587,0.3587,0.3587,0.3587,0.3587,0.3587,0.3587,0.3587,0.3587,0.3587,0.3587,0.0,0.3587,0.3587,0.3587,0.3587,0.3587,0.3587,0.3587,0.3587,0.3587,0.3587,0.3587,0.3587,0.3587,0.3587,0.3587,0.3587,0.3587,0.3587,0.3587,0.3587,0.3587,0.3587,0.3587,0.3587,0.3587,0.3587,0.3587,0.3587,0.3587,0.3587,0.3587,0.36,0.3633,0.3633,0.3696,0.3731,0.3744,0.3794,0.385,0.3904,0.3831,0.3799,0.3794,0.3732,0.3743,0.3805,0.3867,0.3897,0.3889,0.3889,0.3889,0.3889,0.0,0.0,0.0,0.0,0.0,0.0,0.0,0.0,0.692,0.6544,0.5606,0.4997,0.5079,0.4652,0.4389,0.4437,0.0,0.0,0.0,0.0,0.4512,0.4649,0.4113,0.4012,0.4484,0.3573,0.3366,0.3902,0.3407,0.3175,0.3205,0.0,0.313,0.3004,0.3185,0.319,0.3117,0.3174,0.331,0.3492,0.3435,0.3447,0.3496,0.3466,0.3491,0.3542,0.3542,0.3561,0.3587,0.3587,0.3587,0.3587,0.3587,0.3587,0.3587,0.3587,0.3587,0.3587,0.3587,0.3587,0.3587,0.3587,0.3587,0.0,0.0,0.3587,0.3587,0.3587,0.3587,0.3587,0.3587,0.3587,0.3587,0.3587,0.3587,0.3587,0.3587,0.3587,0.3587,0.3587,0.3587,0.3587,0.3587,0.3587,0.3587,0.3587,0.3587,0.3587,0.3587,0.3587,0.3587,0.3587,0.3587,0.3587,0.3587,0.3587,0.3587,0.3589,0.3647,0.3677,0.3707,0.3739,0.3787,0.384,0.378,0.3753,0.3748,0.3687,0.3698,0.3759,0.382,0.3882,0.3909,0.3909,0.3889,0.3889,0.8647,0.8321,0.0,0.0,0.0,0.0,0.0,0.0,0.5624,0.5485,0.4551,0.3943,0.4032,0.3288,0.2809,0.2922,0.293,0.0,0.3018,0.3018,0.3048,0.3107,0.3109,0.3106,0.3108,0.3108,0.3156,0.3205,0.3205,0.0,0.0,0.0,0.3059,0.2843,0.3093,0.3074,0.2837,0.2946,0.3124,0.3345,0.3275,0.3394,0.3582,0.3533,0.3545,0.3587,0.3587,0.3587,0.3587,0.3587,0.3587,0.3587,0.3587,0.3587,0.3587,0.3587,0.3587,0.3587,0.3587,0.3587,0.3587,0.3587,0.3587,0.3587,0.0,0.0,0.0,0.3587,0.3587,0.3587,0.3587,0.3587,0.3583,0.3572,0.3579,0.3583,0.3571,0.3579,0.3587,0.3587,0.3587,0.3587,0.3587,0.3587,0.3587,0.3587,0.3587,0.3587,0.3587,0.3587,0.3587,0.3587,0.3587,0.3587,0.3587,0.3587,0.3587,0.3587,0.3587,0.3641,0.3689,0.3689,0.3724,0.3779,0.3729,0.3707,0.3703,0.3654,0.3655,0.3696,0.3769,0.3836,0.3898,0.3897,0.3889,0.3889,0.846,0.7702,0.7072,0.0,0.0,0.0,0.0,0.0,0.5228,0.4396,0.3414,0.2794,0.2806,0.2486,0.2278,0.2312,0.2314,0.2426,0.2734,0.2738,0.2882,0.3182,0.3185,0.3188,0.3194,0.3194,0.3198,0.3205,0.3205,0.0,0.0,0.0,0.3081,0.2896,0.2929,0.2825,0.2638,0.2649,0.2704,0.2797,0.2792,0.3102,0.3587,0.3579,0.358,0.3587,0.3587,0.3587,0.3587,0.3587,0.3587,0.3587,0.3587,0.3587,0.3587,0.3587,0.3587,0.3587,0.3587,0.3587,0.3587,0.3587,0.3587,0.3587,0.3587,0.0,0.3587,0.3587,0.0,0.3587,0.3587,0.0,0.0,0.3515,0.3552,0.3568,0.3515,0.3553,0.3587,0.3587,0.3587,0.3587,0.3587,0.3587,0.3587,0.3587,0.3587,0.3587,0.3587,0.3587,0.3587,0.3587,0.3587,0.3587,0.3587,0.3587,0.3587,0.3587,0.3587,0.3591,0.3598,0.3598,0.3659,0.3717,0.371,0.3707,0.3706,0.3699,0.3669,0.3637,0.3754,0.3836,0.3898,0.3897,0.3889,0.3889,0.7693,0.7361,0.6857,0.0,0.0,0.0,0.0,0.0,0.3615,0.306,0.2623,0.2372,0.2417,0.2325,0.2264,0.2315,0.2317,0.2374,0.2516,0.2517,0.2577,0.2724,0.2725,0.2725,0.2725,0.2725,0.0,0.0,0.2725,0.0,0.0,0.0,0.2755,0.2674,0.2704,0.259,0.2381,0.2377,0.2509,0.2693,0.2497,0.2664,0.3085,0.3085,0.3085,0.3085,0.3085,0.3167,0.3306,0.3306,0.3446,0.3587,0.3587,0.3587,0.3587,0.3587,0.3587,0.3587,0.3587,0.3587,0.3587,0.3587,0.3587,0.3587,0.3587,0.3587,0.3587,0.3587,0.0,0.0,0.0,0.0,0.0,0.0,0.3571,0.3578,0.3553,0.3571,0.3587,0.3587,0.3587,0.3587,0.3587,0.3587,0.3587,0.3587,0.3587,0.3587,0.3587,0.3587,0.3587,0.3587,0.3587,0.3587,0.3587,0.3587,0.3587,0.3587,0.3587,0.3587,0.3587,0.3587,0.3601,0.3654,0.3654,0.3654,0.3654,0.3654,0.3639,0.3595,0.3711,0.3783,0.3845,0.3875,0.389,0.3889,0.6386,0.6335,0.6062,0.526,0.4372,0.0,0.3602,0.2981,0.2449,0.2259,0.1931,0.1826,0.2172,0.163,0.1366,0.1712,0.1462,0.1336,0.1411,0.1411,0.1436,0.1511,0.1511,0.1511,0.1511,0.1815,0.1967,0.0,0.0,0.0,0.0,0.0,0.0,0.2425,0.2461,0.2165,0.1598,0.159,0.1542,0.1457,0.1205,0.1261,0.1569,0.2384,0.2693,0.2693,0.2693,0.2861,0.3109,0.3109,0.3334,0.3587,0.3587,0.3587,0.3587,0.3587,0.3587,0.3587,0.3587,0.3587,0.3587,0.3587,0.3587,0.3587,0.3587,0.3587,0.3587,0.3587,0.3587,0.0,0.0,0.0,0.3582,0.3565,0.0,0.3582,0.3565,0.3576,0.3587,0.3587,0.3587,0.3587,0.3587,0.3587,0.3587,0.3587,0.3587,0.3587,0.3587,0.3587,0.3587,0.3587,0.3587,0.3587,0.3587,0.3587,0.3587,0.3587,0.3587,0.3587,0.3587,0.3587,0.3587,0.3587,0.3587,0.3587,0.3587,0.3587,0.3587,0.3591,0.3665,0.372,0.3783,0.3861,0.3888,0.3897,0.4421,0.4152,0.4118,0.414,0.3322,0.2558,0.2302,0.2298,0.2302,0.2302,0.1219,0.0856,0.1893,-0.0076,-0.1058,-0.0025,-0.0882,-0.136,-0.1107,-0.1081,-0.0981,-0.0704,-0.0704,-0.0704,-0.0704,0.0327,0.0857,0.0857,0.1891,0.0,0.0,0.0,0.0,0.0,0.2214,0.1407,0.0084,0.0084,-0.0588,-0.1651,-0.1679,-0.1651,-0.1344,0.1598,0.2693,0.2693,0.2693,0.2861,0.3109,0.3109,0.3334,0.3587,0.3587,0.3587,0.3587,0.3587,0.3587,0.3587,0.3587,0.3587,0.3587,0.3587,0.3587,0.3587,0.3587,0.3587,0.3587,0.3587,0.3587,0.3587,0.3587,0.3587,0.3568,0.0,0.3549,0.0,0.0,0.355,0.3587,0.3587,0.3587,0.3587,0.3587,0.3587,0.3587,0.3587,0.3587,0.3587,0.3587,0.3587,0.3587,0.3587,0.3587,0.3587,0.3587,0.3587,0.3587,0.3587,0.3587,0.3587,0.3587,0.3587,0.3587,0.3587,0.3587,0.3587,0.3587,0.3587,0.3587,0.3587,0.359,0.3655,0.3725,0.3846,0.3891,0.3901,0.4226,0.3592,0.308,0.2875,0.2561,0.2259,0.2037,0.2051,0.1775,0.0899,0.0402,0.0,-0.0353,-0.1109,-0.1462,-0.1084,-0.1387,-0.1562,-0.1461,-0.1461,-0.1436,-0.1335,-0.1335,-0.1335,-0.1335,-0.0982,-0.0811,-0.0846,-0.0487,0.0155,0.0,0.0,0.0,0.0,0.202,0.1227,0.0,0.0,-0.07,-0.1791,-0.1791,-0.1791,-0.1595,0.0224,0.0925,0.1009,0.1823,0.2272,0.2495,0.2495,0.272,0.3029,0.3222,0.3278,0.3306,0.3531,0.3587,0.3587,0.3587,0.3587,0.3587,0.3587,0.3587,0.3587,0.3587,0.3587,0.3587,0.3587,0.3587,0.3587,0.3587,0.3587,0.0,0.0,0.0,0.358,0.0,0.3574,0.3587,0.3587,0.3587,0.3587,0.3587,0.3587,0.3587,0.3587,0.3587,0.3587,0.3587,0.3587,0.3587,0.3587,0.3587,0.3587,0.3587,0.3587,0.3587,0.3587,0.3587,0.3587,0.3587,0.3587,0.3587,0.3587,0.3587,0.3587,0.3587,0.3587,0.3587,0.3587,0.3587,0.3628,0.3661,0.3784,0.3856,0.3898,0.3399,0.2872,0.2415,0.2272,0.1865,0.149,0.1261,0.0927,0.0404,-0.0454,-0.0907,-0.126,-0.1563,-0.2293,-0.2595,-0.2192,-0.2519,-0.2746,-0.2746,-0.2746,-0.2746,-0.2746,-0.2746,-0.2746,-0.2746,-0.241,-0.2252,-0.2303,-0.1953,-0.1108,0.0188,0.0,0.0,0.0,0.1423,0.0476,-0.0644,-0.0644,-0.1596,-0.3079,-0.3079,-0.3079,-0.2939,-0.1736,-0.0756,0.0056,0.0392,0.1233,0.2132,0.1738,0.2075,0.2721,0.2915,0.2971,0.3027,0.3335,0.3418,0.3446,0.3559,0.3587,0.3587,0.3587,0.3587,0.3587,0.3587,0.3587,0.3587,0.3587,0.3587,0.3587,0.3587,0.3587,0.3587,0.0,0.0,0.3587,0.0,0.3587,0.3587,0.3587,0.3587,0.3587,0.3587,0.3587,0.3587,0.3587,0.3587,0.3587,0.3587,0.3587,0.3587,0.3587,0.3587,0.3587,0.3587,0.3587,0.3587,0.3587,0.3587,0.3587,0.3587,0.3587,0.3587,0.3587,0.3587,0.3587,0.3587,0.3587,0.3587,0.3587,0.3587,0.3587,0.36,0.3729,0.3818,0.3898,0.1996,0.1869,0.1883,0.2069,0.1096,0.0227,-0.005,-0.0932,-0.1613,-0.1664,-0.2569,-0.2821,-0.1865,-0.3575,-0.4381,-0.3374,-0.4205,-0.4809,-0.4809,-0.4809,-0.4811,-0.4815,-0.4815,-0.4817,-0.4824,-0.3932,-0.3477,-0.348,-0.2534,-0.1424,-0.0191,-0.1339,-0.0634,0.157,0.0421,-0.0756,-0.1875,-0.1875,-0.3248,-0.5409,-0.5409,-0.5409,-0.5268,-0.4114,-0.2239,-0.0308,-0.14,-0.0168,0.1851,0.0756,0.1316,0.2497,0.2553,0.2581,0.2664,0.297,0.3081,0.3166,0.3503,0.3587,0.3587,0.3531,0.3559,0.3587,0.3531,0.3531,0.3531,0.3531,0.3531,0.3531,0.3531,0.3559,0.3587,0.0,0.0,0.0,0.3587,0.3587,0.3587,0.3587,0.3587,0.3587,0.3587,0.3587,0.3587,0.3587,0.3587,0.3587,0.3587,0.3587,0.3587,0.3587,0.3587,0.3587,0.3587,0.3587,0.3587,0.3587,0.3587,0.3587,0.3587,0.3587,0.3587,0.3587,0.3587,0.3587,0.3587,0.3587,0.3587,0.3587,0.3587,0.3587,0.3595,0.3684,0.3784,0.3898,0.1009,0.0,-0.0654,-0.0601,-0.0879,-0.1109,-0.1184,-0.1412,-0.189,-0.2695,-0.3022,-0.3399,-0.3927,-0.4481,-0.4684,-0.4406,-0.4634,-0.4809,-0.4809,-0.4809,-0.484,-0.4934,-0.4937,-0.4969,-0.501,-0.4796,-0.468,-0.4744,-0.4493,-0.3774,-0.2697,-0.3002,-0.234,-0.0896,-0.1204,-0.2015,-0.3134,-0.3134,-0.4004,-0.5409,-0.5409,-0.5409,-0.5354,-0.5043,-0.4002,-0.2602,-0.2015,-0.1372,-0.0812,-0.112,-0.0952,-0.0448,0.07,0.1064,0.1288,0.2467,0.2943,0.3109,0.3194,0.3418,0.3418,0.2744,0.3081,0.3418,0.2716,0.2548,0.2548,0.2548,0.2548,0.2548,0.2548,0.3137,0.3587,0.3587,0.3587,0.3587,0.3587,0.3587,0.3587,0.3587,0.3587,0.3587,0.3587,0.3587,0.3587,0.3587,0.3587,0.3587,0.3587,0.3587,0.3587,0.3587,0.3587,0.3587,0.3587,0.3587,0.3587,0.3587,0.3587,0.3587,0.3587,0.3587,0.3587,0.3587,0.3587,0.3587,0.3587,0.3587,0.3587,0.3587,0.3587,0.3587,0.3595,0.3684,0.3784,0.3893,-0.0328,-0.1462,-0.2293,-0.2293,-0.2695,-0.2846,-0.2368,-0.2695,-0.3224,-0.3827,-0.3904,-0.413,-0.4734,-0.4846,-0.4894,-0.4894,-0.4905,-0.4929,-0.4929,-0.4929,-0.4977,-0.5028,-0.5032,-0.5055,-0.5106,-0.512,-0.5167,-0.519,-0.5256,-0.4716,-0.3608,-0.4142,-0.347,-0.1819,-0.2351,-0.2966,-0.3636,-0.417,-0.4789,-0.5409,-0.5409,-0.5409,0.0,-0.5409,-0.4987,-0.4311,-0.3611,-0.2687,-0.1875,-0.2407,-0.2239,-0.1651,-0.0784,-0.0504,-0.0308,0.0672,0.1064,0.1203,0.1314,0.1679,0.1903,0.1371,0.182,0.2269,0.1765,0.1625,0.1625,0.1625,0.1625,0.1625,0.1625,0.2381,0.3109,0.3531,0.3587,0.3587,0.3587,0.3587,0.3587,0.3587,0.3587,0.3587,0.3587,0.3587,0.3587,0.3587,0.3587,0.3587,0.3587,0.3587,0.3587,0.3587,0.3587,0.3587,0.3587,0.3587,0.3587,0.3587,0.3587,0.3587,0.3587,0.3587,0.3587,0.3587,0.3587,0.3587,0.3587,0.3587,0.3587,0.3587,0.3587,0.3587,0.3591,0.3654,0.3728,0.3817,-0.179,-0.267,-0.3399,-0.3399,-0.418,-0.4481,-0.355,-0.4205,-0.4809,-0.4809,-0.4819,-0.4828,-0.4828,-0.4934,-0.5015,-0.5015,-0.5061,-0.5108,-0.5108,-0.5108,-0.5114,-0.5126,-0.5126,-0.513,-0.5145,-0.5193,-0.5236,-0.5236,-0.5343,-0.4873,-0.3861,-0.4901,-0.4285,-0.2323,-0.3358,-0.3833,-0.3917,-0.4959,-0.5409,-0.5409,-0.5409,-0.5409,-0.5409,-0.5409,-0.5409,-0.5409,-0.5409,-0.4061,-0.2435,-0.347,-0.3134,-0.224,-0.2099,-0.2043,-0.1959,-0.1484,-0.1343,-0.1231,-0.0922,-0.0419,0.0,-0.0056,0.042,0.0869,0.0757,0.0729,0.0729,0.0729,0.0729,0.0729,0.0729,0.1541,0.252,0.3446,0.3587,0.3587,0.3587,0.3587,0.3587,0.3587,0.3587,0.0,0.3587,0.3587,0.3587,0.3587,0.3587,0.3587,0.3587,0.3587,0.3587,0.3587,0.3587,0.3587,0.3587,0.3587,0.3587,0.3587,0.3587,0.3587,0.3587,0.3587,0.3587,0.3587,0.3587,0.3587,0.3587,0.3587,0.3587,0.3587,0.3587,0.3587,0.3587,0.3587,0.365,0.3713,-0.2746,-0.3776,-0.4533,-0.4533,-0.4684,-0.4734,-0.4558,-0.4684,-0.4809,-0.4809,-0.4902,-0.4972,-0.4972,-0.5028,-0.5084,-0.5084,-0.5098,-0.5108,-0.5108,-0.5108,-0.5114,-0.5189,-0.5193,-0.5228,-0.5333,-0.5349,-0.5357,-0.5357,-0.5373,-0.5296,0.0,-0.5296,-0.5184,-0.4791,-0.4987,-0.507,-0.5098,-0.5298,-0.5409,-0.5409,-0.5409,-0.5409,-0.5409,-0.5409,-0.5409,-0.5409,-0.5409,-0.5128,-0.4791,-0.5015,-0.4931,-0.4594,-0.361,-0.3273,-0.3078,-0.2015,-0.1512,-0.1175,-0.0643,-0.0252,-0.0056,-0.028,0.028,0.0701,0.0,-0.0168,-0.0168,-0.0168,-0.0168,-0.0168,-0.0168,0.1121,0.252,0.3446,0.3587,0.3587,0.3587,0.3587,0.3587,0.3587,0.3587,0.3587,0.3587,0.3587,0.3587,0.3587,0.3587,0.3587,0.3587,0.3587,0.3587,0.3587,0.3587,0.3587,0.3587,0.3587,0.3587,0.3587,0.3587,0.3587,0.3587,0.3587,0.3587,0.3587,0.3587,0.3587,0.3587,0.3587,0.3587,0.3587,0.3587,0.3587,0.3587,0.3587,0.3594,0.365,-0.3927,-0.4492,-0.489,-0.4817,-0.4889,-0.4935,-0.4912,-0.4921,-0.4933,-0.4912,-0.4986,-0.5043,-0.5043,-0.5124,-0.5151,-0.5151,-0.5222,-0.5251,-0.5251,-0.5251,-0.5269,-0.5314,-0.5314,-0.5337,-0.5407,-0.5409,-0.5409,-0.5409,-0.5409,-0.5409,0.0,-0.5409,-0.5409,-0.5409,-0.5409,-0.5409,-0.5409,-0.5409,-0.5409,-0.5409,-0.5409,-0.5409,-0.5409,-0.5409,-0.5409,-0.5409,-0.5409,-0.5409,-0.5409,-0.5409,-0.5409,-0.5296,-0.4706,-0.4536,-0.4424,-0.3836,-0.3555,-0.3302,-0.2686,-0.221,-0.182,-0.1626,-0.1037,-0.0617,-0.1037,-0.1121,-0.1121,-0.1121,-0.1121,-0.0981,-0.0477,0.0644,0.1821,0.2717,0.3278,0.3587,0.3587,0.3587,0.3587,0.3587,0.3587,0.3587,0.3587,0.3587,0.3587,0.3587,0.3587,0.3587,0.3587,0.3587,0.3587,0.3587,0.3587,0.3587,0.3587,0.3587,0.3587,0.3587,0.3587,0.3587,0.3587,0.3587,0.3587,0.3587,0.3587,0.3587,0.3587,0.3587,0.3587,0.3587,0.3587,0.3587,0.3587,0.3587,0.3587,0.3628,-0.4813,-0.4924,-0.4971,-0.4854,-0.4972,-0.5084,-0.5038,-0.5079,-0.5104,-0.5038,-0.5081,-0.511,-0.511,-0.5191,-0.5246,-0.5246,-0.5339,-0.5409,-0.5409,-0.5409,-0.5409,-0.5409,-0.5409,-0.5409,-0.5409,-0.5409,-0.5409,-0.5409,-0.5409,-0.5371,-0.5353,-0.5399,-0.5409,-0.5409,-0.5409,-0.5409,-0.5409,-0.5409,-0.5409,-0.5409,-0.5409,-0.5409,-0.5409,-0.5409,-0.5409,-0.5409,-0.5409,-0.5409,-0.5409,-0.5409,-0.5409,-0.5409,-0.5409,-0.5409,-0.5409,-0.5409,-0.5409,-0.5268,-0.4676,-0.4061,-0.3449,-0.2862,-0.2244,-0.1795,-0.1795,-0.1795,-0.1795,-0.1795,-0.1795,-0.1514,-0.0561,0.0168,0.0981,0.2016,0.2829,0.3362,0.3559,0.3587,0.3587,0.3587,0.3587,0.3587,0.3587,0.3587,0.3587,0.3587,0.3587,0.3587,0.3587,0.3587,0.3587,0.3587,0.3587,0.3587,0.3587,0.3587,0.3587,0.3587,0.3587,0.3587,0.3587,0.3587,0.3587,0.3587,0.3587,0.3587,0.3587,0.3587,0.3587,0.3587,0.3587,0.3587,0.3587,0.3587,0.3587,0.3594,-0.4826,-0.4949,-0.5065,-0.5001,-0.5043,-0.5104,-0.5096,-0.5146,-0.5173,-0.5106,-0.5149,-0.5205,-0.5205,-0.5314,-0.5369,-0.5369,-0.5403,-0.5409,-0.5409,-0.5409,-0.5409,-0.5409,-0.5409,-0.5409,-0.5409,-0.5409,-0.5409,-0.5409,-0.5409,-0.5339,-0.5232,-0.5343,-0.5409,-0.5409,-0.5409,-0.5409,-0.5409,-0.5409,-0.5409,-0.5409,-0.5409,-0.5409,-0.5409,-0.5409,-0.5409,-0.5409,-0.5409,-0.5409,-0.5409,-0.5409,-0.5409,-0.5409,-0.5409,-0.5409,-0.5409,-0.5409,-0.5409,-0.5268,-0.4676,-0.4061,-0.3449,-0.2862,-0.2244,-0.1795,-0.1795,-0.1795,-0.1795,-0.1795,-0.1795,-0.1514,-0.0561,-0.0336,0.0252,0.1932,0.2268,0.2632,0.3475,0.3587,0.3587,0.3587,0.3587,0.3587,0.3587,0.3587,0.3587,0.3587,0.3587,0.3587,0.3587,0.3587,0.3587,0.3587,0.3587,0.3587,0.3587,0.3587,0.3587,0.3587,0.3587,0.3587,0.3587,0.3587,0.3587,0.3587,0.3587,0.3587,0.3587,0.3587,0.3587,0.3587,0.3587,0.3587,0.3587,0.3587,0.3587,0.3589,-0.4924,-0.5037,-0.5134,-0.5069,-0.5175,-0.5253,-0.5171,-0.524,-0.5314,-0.5277,-0.5304,-0.5326,-0.5326,-0.5359,-0.5409,-0.5409,-0.5409,-0.5409,-0.5409,-0.5409,-0.5409,-0.5409,-0.5409,-0.5409,-0.5409,-0.5409,-0.5409,-0.5409,-0.5409,-0.5363,-0.5328,-0.5365,-0.5409,-0.5409,-0.5409,-0.5409,-0.5409,-0.5409,-0.5409,-0.5409,-0.5409,-0.5409,-0.5409,-0.5409,-0.5409,-0.5409,-0.5409,-0.5409,-0.5409,-0.5409,-0.5409,-0.5409,-0.5409,-0.5409,-0.5409,-0.5409,-0.5409,-0.5268,-0.4676,-0.4313,-0.3895,-0.2945,-0.2525,-0.2244,-0.1879,-0.1795,-0.1795,-0.1795,-0.1795,-0.1683,-0.1318,-0.0785,-0.0168,0.0532,0.1512,0.2324,0.2716,0.325,0.3587,0.3587,0.3587,0.3587,0.3587,0.3587,0.3587,0.3587,0.3587,0.3587,0.3587,0.3587,0.3587,0.3587,0.3587,0.3587,0.3587,0.3587,0.3587,0.3587,0.3587,0.3587,0.3587,0.3587,0.3587,0.3587,0.3587,0.3587,0.3587,0.3587,0.3587,0.3587,0.3587,0.3587,0.3587,0.3587,0.3587,0.3587,-0.5042,-0.5159,-0.5228,-0.5136,-0.5277,-0.5359,-0.5268,-0.5339,-0.5409,-0.5409,-0.5409,-0.5409,-0.5409,-0.5409,-0.5409,-0.5409,-0.5409,-0.5409,-0.5409,-0.5409,-0.5409,-0.5409,-0.5409,-0.5409,-0.5409,-0.5409,-0.5409,-0.5409,-0.5409,-0.5367,-0.5341,-0.5341,-0.5355,-0.5409,-0.5409,-0.5409,-0.5409,-0.5409,-0.5409,-0.5409,-0.5409,-0.5409,-0.5409,-0.5409,-0.5409,-0.5409,-0.5409,-0.5409,-0.5409,-0.5409,-0.5409,-0.5409,-0.5409,-0.5409,-0.5409,-0.5409,-0.5409,-0.5296,-0.4873,-0.4648,-0.4257,-0.3225,-0.2834,-0.2553,-0.1936,-0.1795,-0.1795,-0.1795,-0.1795,-0.1795,-0.1795,-0.1262,-0.0729,-0.0449,0.0644,0.1624,0.2128,0.2772,0.3278,0.3559,0.3587,0.3587,0.3587,0.3587,0.3587,0.3587,0.3587,0.3587,0.3587,0.3587,0.3587,0.3587,0.3587,0.3587,0.3587,0.3587,0.3587,0.3587,0.3587,0.3587,0.3587,0.3587,0.3587,0.3587,0.3587,0.3587,0.3587,0.3587,0.3587,0.3587,0.3587,0.3587,0.3587,0.3587,0.3587,0.3587,-0.5124,-0.5255,-0.5351,-0.5232,-0.5318,-0.5409,-0.5407,-0.5407,-0.5409,-0.5409,-0.5409,-0.5409,-0.5409,-0.5409,-0.5409,-0.5409,-0.5409,-0.5409,-0.5409,-0.5409,-0.5409,-0.5409,-0.5409,-0.5409,-0.5409,-0.5409,-0.5409,-0.5409,-0.5409,-0.5335,-0.5192,-0.5192,-0.5268,-0.5409,-0.5409,-0.5409,-0.5409,-0.5409,-0.5409,-0.5409,-0.5409,-0.5409,-0.5409,-0.5409,-0.5409,-0.5409,-0.5409,-0.5409,-0.5409,-0.5409,-0.5409,-0.5409,-0.5409,-0.5409,-0.5409,-0.5409,-0.5409,-0.5409,-0.5382,-0.4959,-0.4341,-0.3755,-0.3141,-0.2553,-0.1936,-0.1795,-0.1795,-0.1795,-0.1795,-0.1795,-0.1795,-0.1795,-0.1486,-0.0561,-0.0393,0.0224,0.196,0.2212,0.2548,0.3503,0.3587,0.3587,0.3587,0.3587,0.3587,0.3587,0.3587,0.3587,0.3587,0.3587,0.3587,0.3587,0.3587,0.3587,0.3587,0.3587,0.3587,0.3587,0.3587,0.3587,0.3587,0.3587,0.3587,0.3587,0.3587,0.3587,0.3587,0.3587,0.3587,0.3587,0.3587,0.3587,0.3587,0.3587,0.3587,0.3587,-0.5179,-0.5298,-0.5399,-0.5343,-0.5363,-0.5409,-0.5409,-0.5409,-0.5409,-0.5409,-0.5409,-0.5409,-0.5409,-0.5409,-0.5409,-0.5409,-0.5409,-0.5409,-0.5409,-0.5409,-0.5409,-0.5409,-0.5409,-0.5409,-0.5409,-0.5409,-0.5409,-0.5409,-0.5409,-0.5367,-0.5339,-0.5339,-0.5353,-0.5409,-0.5409,-0.5409,-0.5409,-0.5409,-0.5409,-0.5409,-0.5409,-0.5409,-0.5409,-0.5409,-0.5409,-0.5409,-0.5409,-0.5409,-0.5409,-0.5409,-0.5409,-0.5409,-0.5409,-0.5409,-0.5409,-0.5409,-0.5409,-0.5409,-0.5409,-0.5268,-0.4875,-0.3867,-0.3449,-0.3055,-0.2019,-0.1795,-0.1795,-0.1795,-0.1795,-0.1795,-0.1795,-0.1795,-0.1711,-0.1402,-0.0813,-0.0196,0.0336,0.0953,0.1653,0.2548,0.2632,0.2885,0.3531,0.3587,0.3587,0.3587,0.3587,0.3587,0.3587,0.3587,0.3587,0.3587,0.3587,0.3587,0.3587,0.3587,0.3587,0.3587,0.3587,0.3587,0.3587,0.3587,0.3587,0.3587,0.3587,0.3587,0.3587,0.3587,0.3587,0.3587,0.3587,0.3587,0.3587,0.3587,0.3587,0.3587,-0.6247,-0.633,-0.6267,-0.5935,-0.5882,-0.577,-0.5437,-0.5409,-0.5409,-0.5409,-0.5409,-0.5409,-0.5409,-0.5409,-0.5409,-0.5409,-0.5409,-0.5409,-0.5409,-0.5409,-0.5409,-0.5409,-0.5409,-0.5409,-0.5409,-0.5409,-0.5409,-0.5409,-0.5409,-0.5409,-0.5409,-0.5409,-0.5409,-0.5409,-0.5409,-0.5409,-0.5409,-0.5409,-0.5409,-0.5409,-0.5409,-0.5409,-0.5409,-0.5409,-0.5409,-0.5409,-0.5409,-0.5409,-0.5409,-0.5409,-0.5409,-0.5409,-0.5409,-0.5409,-0.5409,-0.5409,-0.5409,-0.5409,-0.5409,-0.524,-0.4819,-0.3839,-0.3419,-0.3001,-0.2019,-0.1795,-0.1795,-0.1795,-0.1795,-0.1795,-0.1795,-0.1795,-0.1795,-0.1795,-0.1318,-0.0813,-0.0449,0.0056,0.0729,0.1597,0.1989,0.2437,0.3025,0.339,0.3587,0.3587,0.3587,0.3587,0.3587,0.3587,0.3587,0.3587,0.3587,0.3587,0.3587,0.3587,0.3587,0.3587,0.3587,0.3587,0.3587,0.3587,0.3587,0.3587,0.3587,0.3587,0.3587,0.3587,0.3587,0.3587,0.3587,0.3587,0.3587,0.3587,0.3587,0.3587,-0.8002,-0.8002,-0.7728,-0.6851,-0.6687,-0.6409,-0.5521,-0.5409,-0.5409,-0.5409,-0.5409,-0.5409,-0.5409,-0.5409,-0.5409,-0.5409,-0.5409,-0.5409,-0.5409,-0.5409,-0.5409,-0.5409,-0.5409,-0.5409,-0.5409,-0.5409,-0.5409,-0.5409,-0.5409,-0.5409,-0.5409,-0.5409,-0.5409,-0.5409,-0.5409,-0.5409,-0.5409,-0.5409,-0.5409,-0.5409,-0.5409,-0.5409,-0.5409,-0.5409,-0.5409,-0.5409,-0.5409,-0.5409,-0.5409,-0.5409,-0.5409,-0.5409,-0.5409,-0.5409,-0.5409,-0.5409,-0.5409,-0.5409,-0.5409,-0.4959,-0.4369,-0.3755,-0.3113,-0.2497,-0.1936,-0.1795,-0.1795,-0.1795,-0.1795,-0.1795,-0.1795,-0.1795,-0.1795,-0.1795,-0.1795,-0.1486,-0.0617,-0.0505,-0.0168,0.0701,0.1513,0.2044,0.21,0.2941,0.3503,0.3503,0.3559,0.3587,0.3587,0.3587,0.3587,0.3587,0.3587,0.3587,0.3587,0.3587,0.3587,0.3587,0.3587,0.3587,0.3587,0.3587,0.3587,0.3587,0.3587,0.3587,0.3587,0.3587,0.3587,0.3587,0.3587,0.3587,0.3587,0.3587,0.3587,0.3587,-0.8002,-0.8002,-0.7728,-0.6851,-0.6687,-0.6409,-0.5521,-0.5409,-0.5409,-0.5409,-0.5409,-0.5409,-0.5409,-0.5409,-0.5409,-0.5409,-0.5409,-0.5409,-0.5409,-0.5409,-0.5409,-0.5409,-0.5409,-0.5409,-0.5409,-0.5409,-0.5409,-0.5409,-0.5409,-0.5409,-0.5409,-0.5409,-0.5409,-0.5409,-0.5409,-0.5409,-0.5409,-0.5409,-0.5409,-0.5409,-0.5409,-0.5409,-0.5409,-0.5409,-0.5409,-0.5409,-0.5409,-0.5409,-0.5409,-0.5409,-0.5409,-0.5409,-0.5409,-0.5409,-0.5409,-0.5409,-0.5409,-0.5409,-0.5409,-0.4959,-0.4369,-0.3755,-0.2803,-0.1964,-0.1823,-0.1795,-0.1795,-0.1795,-0.1795,-0.1795,-0.1795,-0.1795,-0.1795,-0.1795,-0.1795,-0.1711,-0.1486,-0.1458,-0.1121,-0.0196,0.0084,0.0476,0.1149,0.2017,0.252,0.252,0.3194,0.3587,0.3587,0.3587,0.3587,0.3587,0.3587,0.3587,0.3587,0.3587,0.3587,0.3587,0.3587,0.3587,0.3587,0.3587,0.3587,0.3587,0.3587,0.3587,0.3587,0.3587,0.3587,0.3587,0.3587,0.3587,0.3587,0.3587,0.3587,0.3587,-0.922,-0.922,-0.8834,-0.7509,-0.729,-0.6877,-0.5605,-0.5409,-0.5409,-0.5409,-0.5409,-0.5409,-0.5409,-0.5409,-0.5409,-0.5409,-0.5409,-0.5409,-0.5409,-0.5409,-0.5409,-0.5409,-0.5409,-0.5409,-0.5409,-0.5409,-0.5409,-0.5409,-0.5409,-0.5409,-0.5409,-0.5409,-0.5409,-0.5409,-0.5409,-0.5409,-0.5409,-0.5409,-0.5409,-0.5409,-0.5409,-0.5409,-0.5409,-0.5409,-0.5409,-0.5409,-0.5409,-0.5409,-0.5409,-0.5409,-0.5409,-0.5409,-0.5409,-0.5409,-0.5409,-0.5409,-0.5409,-0.5409,-0.5409,-0.4763,-0.3866,-0.2999,-0.2299,-0.1795,-0.1795,-0.1795,-0.1795,-0.1795,-0.1795,-0.1795,-0.1795,-0.1795,-0.1795,-0.1795,-0.1795,-0.1795,-0.1795,-0.1795,-0.1598,-0.1093,-0.0673,-0.0224,0.0252,0.1457,0.2212,0.2212,0.3081,0.3587,0.3587,0.3587,0.3587,0.3587,0.3587,0.3587,0.3587,0.3587,0.3587,0.3587,0.3587,0.3587,0.3587,0.3587,0.3587,0.3587,0.3587,0.3587,0.3587,0.3587,0.3587,0.3587,0.3587,0.3587,0.3587,0.3587,0.3587,0.3587,-1.0527,-1.0496,-0.9943,-0.8115,-0.7811,-0.726,-0.5659,-0.5409,-0.5409,-0.5409,-0.5409,-0.5409,-0.5409,-0.5409,-0.5409,-0.5409,-0.5409,-0.5409,-0.5409,-0.5409,-0.5409,-0.5409,-0.5409,-0.5409,-0.5409,-0.5409,-0.5409,-0.5409,-0.5409,-0.5409,-0.5409,-0.5409,-0.5409,-0.5409,-0.5409,-0.5409,-0.5409,-0.5409,-0.5409,-0.5409,-0.5409,-0.5409,-0.5409,-0.5409,-0.5409,-0.5409,-0.5409,-0.5409,-0.5409,-0.5409,-0.5409,-0.5409,-0.5409,-0.5409,-0.5409,-0.5409,-0.5409,-0.5382,-0.5296,-0.4372,-0.3195,-0.2075,-0.1795,-0.1795,-0.1795,-0.1795,-0.1795,-0.1795,-0.1795,-0.1795,-0.1795,-0.1795,-0.1795,-0.1795,-0.1795,-0.1795,-0.1795,-0.1795,-0.1795,-0.1795,-0.1093,-0.0617,-0.0617,0.0868,0.1848,0.1989,0.2857,0.3446,0.3587,0.3587,0.3587,0.3587,0.3587,0.3587,0.3587,0.3587,0.3587,0.3587,0.3587,0.3587,0.3587,0.3587,0.3587,0.3587,0.3587,0.3587,0.3587,0.3587,0.3587,0.3587,0.3587,0.3587,0.3587,0.3587,0.3587,0.3587,-0.975,-0.9609,-0.903,-0.721,-0.6904,-0.6573,-0.5547,-0.5409,-0.5409,-0.5409,-0.5409,-0.5409,-0.5409,-0.5409,-0.5409,-0.5409,-0.5409,-0.5409,-0.5409,-0.5409,-0.5409,-0.5409,-0.5409,-0.5409,-0.5409,-0.5409,-0.5409,-0.5409,-0.5409,-0.5409,-0.5409,-0.5409,-0.5409,-0.5409,-0.5409,-0.5409,-0.5409,-0.5409,-0.5409,-0.5409,-0.5409,-0.5409,-0.5409,-0.5409,-0.5409,-0.5409,-0.5409,-0.5409,-0.5409,-0.5409,-0.5409,-0.5409,-0.5409,-0.5409,-0.5409,-0.5409,-0.5409,-0.5296,-0.4789,-0.3755,-0.2665,-0.1964,-0.1795,-0.1795,-0.1795,-0.1795,-0.1795,-0.1795,-0.1795,-0.1795,-0.1795,-0.1795,-0.1795,-0.1795,-0.1795,-0.1795,-0.1795,-0.1795,-0.1795,-0.1795,-0.1683,-0.157,-0.157,-0.0617,0.0308,0.1037,0.1933,0.2772,0.3559,0.3587,0.3587,0.3587,0.3587,0.3587,0.3587,0.3587,0.3587,0.3587,0.3587,0.3587,0.3587,0.3587,0.3587,0.3587,0.3587,0.3587,0.3587,0.3587,0.3587,0.3587,0.3587,0.3587,0.3587,0.3587,0.3587,0.3587,-1.0194,-1.0107,-0.9695,-0.8371,-0.7731,-0.7096,-0.6242,-0.5714,-0.5409,-0.5409,-0.5409,-0.5409,-0.5409,-0.5409,-0.5409,-0.5409,-0.5409,-0.5409,-0.5409,-0.5409,-0.5409,-0.5409,-0.5409,-0.5409,-0.5409,-0.5409,-0.5409,-0.5409,-0.5409,-0.5409,-0.5409,-0.5409,-0.5409,-0.5409,-0.5409,-0.5409,-0.5409,-0.5409,-0.5409,-0.5409,-0.5409,-0.5409,-0.5409,-0.5409,-0.5409,-0.5409,-0.5409,-0.5409,-0.5409,-0.5409,-0.5409,-0.5409,-0.5409,-0.5409,-0.5409,-0.5409,-0.5184,-0.4789,-0.4173,-0.3365,-0.2553,-0.1964,-0.1795,-0.1795,-0.1795,-0.1795,-0.1795,-0.1795,-0.1795,-0.1795,-0.1795,-0.1795,-0.1795,-0.1795,-0.1795,-0.1795,-0.1795,-0.1795,-0.1795,-0.1795,-0.1795,-0.1795,-0.1795,-0.0953,-0.0224,0.0168,0.1429,0.238,0.2829,0.3334,0.3587,0.3587,0.3587,0.3362,0.2857,0.3334,0.3334,0.2857,0.3362,0.3587,0.3587,0.3587,0.3587,0.3587,0.3587,0.3587,0.3587,0.3587,0.3587,0.3587,0.3587,0.3587,0.3587,0.3587,0.3587,0.3587,-1.0441,-1.0386,-1.0107,-0.922,-0.8309,-0.7482,-0.6796,-0.5965,-0.5409,-0.5409,-0.5409,-0.5409,-0.5409,-0.5409,-0.5409,-0.5409,-0.5409,-0.5409,-0.5409,-0.5409,-0.5409,-0.5409,-0.5409,-0.5409,-0.5409,-0.5409,-0.5409,-0.5409,-0.5409,-0.5409,-0.5409,-0.5409,-0.5409,-0.5409,-0.5409,-0.5409,-0.5409,-0.5409,-0.5409,-0.5409,-0.5409,-0.5409,-0.5409,-0.5409,-0.5409,-0.5409,-0.5409,-0.5409,-0.5409,-0.5409,-0.5409,-0.5409,-0.5409,-0.5409,-0.5409,-0.5409,-0.4987,-0.4367,-0.3755,-0.3169,-0.2553,-0.1964,-0.1795,-0.1795,-0.1795,-0.1795,-0.1795,-0.1795,-0.1795,-0.1795,-0.1795,-0.1795,-0.1795,-0.1795,0.0,-0.1795,-0.1795,-0.1795,-0.1795,-0.1795,-0.1795,-0.1795,-0.1795,-0.1149,-0.0645,-0.0421,0.084,0.1764,0.2184,0.2885,0.3362,0.3587,0.3587,0.325,0.252,0.325,0.325,0.252,0.325,0.3587,0.3587,0.3587,0.3587,0.3587,0.3587,0.3587,0.3587,0.3587,0.3587,0.3587,0.3587,0.3587,0.3587,0.3587,0.3587,0.3587,-0.9664,-0.9499,-0.9196,-0.8278,-0.7374,-0.6768,-0.6715,-0.5965,-0.5409,-0.5409,-0.5409,-0.5409,-0.5409,-0.5409,-0.5409,-0.5409,-0.5409,-0.5409,-0.5409,-0.5409,-0.5409,-0.5409,-0.5409,-0.5409,-0.5409,-0.5409,-0.5409,-0.5409,-0.5409,-0.5409,-0.5409,-0.5409,-0.5409,-0.5409,-0.5409,-0.5409,-0.5409,-0.5409,-0.5409,-0.5409,-0.5409,-0.5409,-0.5409,-0.5409,-0.5409,-0.5409,-0.5409,-0.5409,-0.5409,-0.5409,-0.5409,-0.5409,-0.5409,-0.5409,-0.5409,-0.5409,-0.4987,-0.4367,-0.3755,-0.3169,-0.2553,-0.1964,-0.1795,-0.1795,-0.1795,-0.1795,-0.1795,-0.1795,-0.1795,-0.1795,-0.1795,-0.1795,-0.1795,-0.1795,-0.1795,-0.1795,-0.1795,-0.1795,-0.1795,-0.1795,-0.1795,-0.1795,-0.1795,-0.1739,-0.1346,-0.0477,-0.028,0.0504,0.2128,0.2268,0.2688,0.3559,0.3587,0.3559,0.3503,0.3559,0.3559,0.3503,0.3559,0.3587,0.3587,0.3587,0.3587,0.3587,0.3587,0.3587,0.3587,0.3587,0.3587,0.3587,0.3587,0.3587,0.3587,0.3587,0.3587,0.3587,-1.0276,-1.0221,-1.008,-0.9746,-0.8475,-0.7509,-0.7509,-0.6295,-0.5409,-0.5409,-0.5409,-0.5409,-0.5409,-0.5409,-0.5409,-0.5409,-0.5409,-0.5409,-0.5409,-0.5409,-0.5409,-0.5409,-0.5409,-0.5409,-0.5409,-0.5409,-0.5409,-0.5409,-0.5409,-0.5409,-0.5409,-0.5409,-0.5409,-0.5409,-0.5409,-0.5409,-0.5409,-0.5409,-0.5409,-0.5409,-0.5409,-0.5409,-0.5409,-0.5409,-0.5409,-0.5409,-0.5409,-0.5409,-0.5409,-0.5409,-0.5409,-0.5409,-0.5409,-0.5409,-0.5409,-0.5409,-0.524,-0.4931,-0.4313,-0.3447,-0.2637,-0.2413,-0.2076,-0.1795,-0.1795,-0.1795,-0.1795,-0.1795,-0.1795,-0.1795,-0.1795,-0.1795,-0.1795,-0.1795,-0.1795,-0.1795,-0.1795,-0.1795,-0.1795,-0.1795,-0.1795,-0.157,-0.0981,-0.0925,-0.0785,-0.0421,0.0112,0.0701,0.1345,0.2465,0.3222,0.3587,0.3587,0.3334,0.2744,0.3306,0.3306,0.2744,0.3334,0.3634,0.3672,0.3633,0.3636,0.367,0.3632,0.3587,0.3587,0.3587,0.3587,0.3587,0.3587,0.3587,0.3587,0.3587,0.3587,0.3587,-1.0692,-1.0692,-1.0692,-1.0692,-0.9444,-0.8333,-0.8057,-0.6763,-0.5714,-0.5437,-0.5409,-0.5409,-0.5409,-0.5409,-0.5409,-0.5409,-0.5409,-0.5409,-0.5409,-0.5409,-0.5409,-0.5409,-0.5409,-0.5409,-0.5409,-0.5409,-0.5409,-0.5409,-0.5409,-0.5409,-0.5409,-0.5409,-0.5409,-0.5409,-0.5409,-0.5409,-0.5409,-0.5409,-0.5409,-0.5409,-0.5409,-0.5409,-0.5409,-0.5409,-0.5409,-0.5409,-0.5409,-0.5409,-0.5409,-0.5409,-0.5409,-0.5409,-0.5409,-0.5409,-0.5409,-0.5409,-0.5409,-0.5298,-0.4901,-0.4035,-0.3169,-0.2806,-0.2385,-0.202,-0.1851,-0.1795,-0.1795,-0.1795,-0.1795,-0.1795,-0.1795,-0.1795,-0.1795,-0.1795,-0.1795,-0.1795,-0.1795,-0.1795,-0.1795,-0.1795,-0.1795,-0.143,-0.0505,-0.0393,-0.028,0.0,0.0561,0.1009,0.1289,0.2773,0.3587,0.3587,0.3587,0.3278,0.2632,0.3278,0.3278,0.266,0.3324,0.3666,0.3706,0.3683,0.3685,0.3705,0.3662,0.3633,0.3587,0.3587,0.3587,0.3587,0.3587,0.3587,0.3587,0.3587,0.3587,0.359,-1.0692,-1.0692,-1.0692,-1.0692,-0.997,-0.9085,-0.814,-0.7263,-0.6381,-0.5521,-0.5409,-0.5409,-0.5409,-0.5409,-0.5409,-0.5409,-0.5409,-0.5409,-0.5409,-0.5409,-0.5409,-0.5409,-0.5409,-0.5409,-0.5409,-0.5409,-0.5409,-0.5409,-0.5409,-0.5409,-0.5409,-0.5409,-0.5409,-0.5409,-0.5409,-0.5409,-0.5409,-0.5409,-0.5409,-0.5409,-0.5409,-0.5409,-0.5409,-0.5409,-0.5409,-0.5409,-0.5409,-0.5409,-0.5409,-0.5409,-0.5409,-0.5409,-0.5409,-0.5409,-0.5409,-0.5409,-0.5409,-0.5409,-0.5409,-0.4959,-0.4229,-0.3002,-0.2693,-0.2553,-0.1936,-0.1795,-0.1795,-0.1795,-0.1795,-0.1795,-0.1795,-0.1795,-0.1795,-0.1795,-0.1795,-0.1795,-0.1795,-0.1795,-0.1795,-0.1795,-0.1795,-0.143,-0.0477,-0.0393,-0.0028,0.0841,0.0897,0.1289,0.2156,0.3081,0.3587,0.3587,0.3587,0.3587,0.3589,0.3587,0.3587,0.3589,0.3678,0.3707,0.371,0.3772,0.3765,0.3707,0.3707,0.3673,0.3587,0.3587,0.3587,0.3587,0.3587,0.3587,0.3587,0.3587,0.3587,0.3623,-1.0692,-1.0692,-1.0692,-1.0692,-0.997,-0.9085,-0.814,-0.7263,-0.6381,-0.5521,-0.5409,-0.5409,-0.5409,-0.5409,-0.5409,-0.5409,-0.5409,-0.5409,-0.5409,-0.5409,-0.5409,-0.5409,-0.5409,-0.5409,-0.5409,-0.5409,-0.5409,-0.5409,-0.5409,-0.5409,-0.5409,-0.5409,-0.5409,-0.5409,-0.5409,-0.5409,-0.5409,-0.5409,-0.5409,-0.5409,-0.5409,-0.5409,-0.5409,-0.5409,-0.5409,-0.5409,-0.5409,-0.5409,-0.5409,-0.5409,-0.5409,-0.5409,-0.5409,-0.5409,-0.5409,-0.5409,-0.5409,-0.5409,-0.5409,-0.5268,-0.4931,-0.4147,-0.3337,-0.2665,-0.2469,-0.2104,-0.1795,-0.1795,-0.1795,-0.1795,-0.1795,-0.1795,-0.1795,-0.1795,-0.1795,-0.1795,-0.1795,-0.1795,-0.1795,-0.1795,-0.1795,-0.1177,0.0364,0.0505,0.0869,0.1737,0.1821,0.1932,0.2184,0.3081,0.3587,0.3587,0.3587,0.3636,0.368,0.3637,0.3637,0.368,0.3699,0.3753,0.3835,0.381,0.3788,0.3769,0.3726,0.3673,0.3587,0.3587,0.3587,0.3587,0.3587,0.3587,0.3587,0.3587,0.3587,0.3623,-1.0692,-1.0692,-1.0692,-1.0692,-1.0249,-0.9471,-0.8195,-0.7565,-0.6765,-0.5547,-0.5409,-0.5409,-0.5409,-0.5409,-0.5409,-0.5409,-0.5409,-0.5409,-0.5409,-0.5409,-0.5409,-0.5409,-0.5409,-0.5409,-0.5409,-0.5409,-0.5409,-0.5409,-0.5409,-0.5409,-0.5409,-0.5409,-0.5409,-0.5409,-0.5409,-0.5409,-0.5409,-0.5409,-0.5409,-0.5409,-0.5409,-0.5409,-0.5409,-0.5409,-0.5409,-0.5409,-0.5409,-0.5409,-0.5409,-0.5409,-0.5409,-0.5409,-0.5409,-0.5409,-0.5409,-0.5409,-0.5409,-0.5409,-0.5409,-0.5409,-0.5326,-0.4959,-0.3951,-0.3002,-0.275,-0.2244,-0.1795,-0.1795,-0.1795,-0.1795,-0.1795,-0.1795,-0.1795,-0.1795,-0.1795,-0.1795,-0.1795,-0.1795,-0.1655,-0.129,-0.157,-0.0953,0.1205,0.1093,0.1401,0.2661,0.2744,0.2744,0.2744,0.3278,0.3587,0.3587,0.3639,0.367,0.3706,0.3695,0.3706,0.3743,0.3768,0.3818,0.389,0.3846,0.3815,0.3796,0.3759,0.3695,0.3587,0.3587,0.3587,0.3587,0.3587,0.3587,0.3587,0.3587,0.3587,0.36,-1.0692,-1.0692,-1.0692,-1.0692,-1.0692,-1.0107,-0.8389,-0.8057,-0.7396,-0.5742,-0.5437,-0.5409,-0.5409,-0.5409,-0.5409,-0.5409,-0.5409,-0.5409,-0.5409,-0.5409,-0.5409,-0.5409,-0.5409,-0.5409,-0.5409,-0.5409,-0.5409,-0.5409,-0.5409,-0.5409,-0.5409,-0.5409,-0.5409,-0.5409,-0.5409,-0.5409,-0.5409,-0.5409,-0.5409,-0.5409,-0.5409,-0.5409,-0.5409,-0.5409,-0.5409,-0.5409,-0.5409,-0.5409,-0.5409,-0.5409,-0.5409,-0.5409,-0.5409,-0.5409,-0.5409,-0.5409,-0.5409,-0.5409,-0.5409,-0.5409,-0.5409,-0.5409,-0.454,-0.3531,-0.2918,-0.23,-0.1851,-0.1823,-0.1795,-0.1795,-0.1795,-0.1795,-0.1795,-0.1795,-0.1795,-0.1795,-0.1795,-0.1795,-0.1486,-0.0617,-0.1206,-0.0673,0.1848,0.1513,0.1822,0.3475,0.3587,0.3587,0.3587,0.3587,0.359,0.3595,0.3678,0.3711,0.3724,0.3779,0.3807,0.3807,0.3864,0.3893,0.3899,0.3895,0.3854,0.3799,0.3799,0.3729,0.3587,0.3587,0.3587,0.3587,0.3587,0.3587,0.3587,0.3587,0.3587,0.3633,-1.0692,-1.0692,-1.0692,-1.0692,-1.0692,-1.0331,-0.9251,-0.8472,-0.7617,-0.6546,-0.5826,-0.5409,-0.5409,-0.5409,-0.5409,-0.5409,-0.5409,-0.5409,-0.5409,-0.5409,-0.5409,-0.5409,-0.5409,-0.5409,-0.5409,-0.5409,-0.5409,-0.5409,-0.5409,-0.5409,-0.5409,-0.5409,-0.5409,-0.5409,-0.5409,-0.5409,-0.5409,-0.5409,-0.5409,-0.5409,-0.5409,-0.5409,-0.5409,-0.5409,-0.5409,-0.5409,-0.5409,-0.5409,-0.5409,-0.5409,-0.5409,-0.5409,-0.5409,-0.5409,-0.5409,-0.5409,-0.5409,-0.5409,-0.5409,-0.5409,-0.5409,-0.5409,-0.4847,-0.4145,-0.3531,-0.2945,-0.2384,-0.1907,-0.1795,-0.1795,-0.1795,-0.1795,-0.1795,-0.1795,-0.1795,-0.1795,-0.1795,-0.1795,-0.1739,-0.1514,-0.1037,-0.0196,0.1065,0.2297,0.3167,0.3559,0.3587,0.3587,0.3587,0.3587,0.3637,0.3685,0.37,0.3754,0.385,0.3864,0.3871,0.3871,0.3884,0.3886,0.39,0.3913,0.3854,0.3799,0.3799,0.3729,0.3587,0.3587,0.3587,0.3587,0.3587,0.3587,0.3587,0.3587,0.3587,0.3633,-1.0692,-1.0692,-1.0692,-1.0692,-1.0692,-1.0414,-0.9526,-0.861,-0.77,-0.6824,-0.5938,-0.5409,-0.5409,-0.5409,-0.5409,-0.5409,-0.5409,-0.5409,-0.5409,-0.5409,-0.5409,-0.5409,-0.5409,-0.5409,-0.5409,-0.5409,-0.5409,-0.5409,-0.5409,-0.5409,-0.5409,-0.5409,-0.5409,-0.5409,-0.5409,-0.5409,-0.5409,-0.5409,-0.5409,-0.5409,-0.5409,-0.5409,-0.5409,-0.5409,-0.5409,-0.5409,-0.5409,-0.5409,-0.5409,-0.5409,-0.5409,-0.5409,-0.5409,-0.5409,-0.5409,-0.5409,-0.5409,-0.5409,-0.5409,-0.5409,-0.5409,-0.5409,-0.5156,-0.4761,-0.4173,-0.3337,-0.2609,-0.23,-0.1992,-0.1795,-0.1795,-0.1795,-0.1795,-0.1795,-0.1795,-0.1795,-0.1795,-0.1795,-0.1486,-0.0617,-0.0449,0.0112,0.1401,0.2773,0.3587,0.3587,0.3587,0.3418,0.2969,0.3362,0.3417,0.3043,0.3503,0.3795,0.389,0.3888,0.3903,0.3903,0.3903,0.3889,0.3889,0.3889,0.387,0.384,0.3812,0.3746,0.3656,0.36,0.3587,0.3587,0.3587,0.3587,0.3587,0.3587,0.3652,0.3711,-1.0692,-1.0692,-1.0692,-1.0692,-1.0692,-1.0468,-0.9722,-0.8834,-0.7922,-0.7043,-0.6158,-0.5575,-0.5409,-0.5409,-0.5409,-0.5409,-0.5409,-0.5409,-0.5409,-0.5409,-0.5409,-0.5409,-0.5409,-0.5409,-0.5409,-0.5409,-0.5409,-0.5409,-0.5409,-0.5409,-0.5409,-0.5409,-0.5409,-0.5409,-0.5409,-0.5409,-0.5409,-0.5409,-0.5409,-0.5409,-0.5409,-0.5409,-0.5409,-0.5409,-0.5409,-0.5409,-0.5409,-0.5409,-0.5409,-0.5409,-0.5409,-0.5409,-0.5409,-0.5409,-0.5409,-0.5409,-0.5409,-0.5409,-0.5409,-0.5409,-0.5409,-0.5409,-0.5409,-0.5268,-0.4761,-0.3811,-0.2945,-0.275,-0.23,-0.1936,-0.1823,-0.1795,-0.1795,-0.1795,-0.1795,-0.1795,-0.1795,-0.1655,-0.1009,0.0505,0.0308,0.0672,0.2297,0.3137,0.3587,0.3587,0.3587,0.325,0.2492,0.3033,0.3034,0.2333,0.3107,0.3605,0.3662,0.3833,0.3889,0.3889,0.3889,0.3889,0.3889,0.3889,0.3886,0.3887,0.3825,0.3764,0.3702,0.3641,0.3587,0.3587,0.3587,0.3587,0.3587,0.3587,0.3694,0.3799,-1.0692,-1.0692,-1.0692,-1.0692,-1.0692,-1.0665,-1.0551,-0.9778,-0.8889,-0.795,-0.7071,-0.6242,-0.5493,-0.5409,-0.5409,-0.5409,-0.5409,-0.5409,-0.5409,-0.5409,-0.5409,-0.5409,-0.5409,-0.5409,-0.5409,-0.5409,-0.5409,-0.5409,-0.5409,-0.5409,-0.5409,-0.5409,-0.5409,-0.5409,-0.5409,-0.5409,-0.5409,-0.5409,-0.5409,-0.5409,-0.5409,-0.5409,-0.5409,-0.5409,-0.5409,-0.5409,-0.5409,-0.5409,-0.5409,-0.5409,-0.5409,-0.5409,-0.5409,-0.5409,-0.5409,-0.5409,-0.5409,-0.5409,-0.5409,-0.5409,-0.5409,-0.5409,-0.5409,-0.5382,-0.5296,-0.4761,-0.3949,-0.2918,-0.2637,-0.2413,-0.1907,-0.1795,-0.1795,-0.1795,-0.1795,-0.1795,-0.1795,-0.1093,-0.0505,-0.0252,0.1009,0.2269,0.3306,0.3531,0.3587,0.3587,0.3587,0.3531,0.3418,0.2755,0.2364,0.2315,0.2502,0.2633,0.2675,0.3483,0.3889,0.3889,0.3889,0.3889,0.3889,0.3889,0.3886,0.3887,0.3825,0.3764,0.3702,0.3641,0.3587,0.3587,0.3587,0.3587,0.3587,0.3587,0.3694,0.3799,-1.0692,-1.0692,-1.0692,-1.0692,-1.0692,-1.0692,-1.0692,-0.997,-0.9054,-0.8112,-0.7235,-0.6381,-0.5493,-0.5409,-0.5409,-0.5409,-0.5409,-0.5409,-0.5409,-0.5409,-0.5409,-0.5409,-0.5409,-0.5409,-0.5409,-0.5409,-0.5409,-0.5409,-0.5409,-0.5409,-0.5409,-0.5409,-0.5409,-0.5409,-0.5409,-0.5409,-0.5409,-0.5409,-0.5409,-0.5409,-0.5409,-0.5409,-0.5409,-0.5409,-0.5409,-0.5409,-0.5409,-0.5409,-0.5409,-0.5409,-0.5409,-0.5409,-0.5409,-0.5409,-0.5409,-0.5409,-0.5409,-0.5409,-0.5409,-0.5409,-0.5409,-0.5409,-0.5156,-0.4987,-0.5326,-0.4679,-0.3838,-0.3309,-0.2664,-0.2104,-0.1851,-0.1795,-0.1795,-0.1795,-0.1795,-0.1795,-0.1795,-0.0981,-0.0028,0.0924,0.2185,0.3137,0.3559,0.3137,0.3025,0.3559,0.3109,0.2829,0.2829,0.296,0.2835,0.2382,0.2929,0.325,0.3269,0.3703,0.3889,0.3889,0.3889,0.3889,0.3889,0.3889,0.3905,0.3905,0.384,0.3783,0.3751,0.3655,0.3587,0.3587,0.3587,0.3587,0.3587,0.3587,0.3672,0.3753]},{"header":{"parameterUnit":"m.s-1","parameterCategory":1,"la1":30.6,"la2":28.766,"lo1":-90.7593,"lo2":-88.6598,"dy":0.0162,"dx":0.0183,"nx":116,"ny":114,"refTime":"2023-09-16T00:00:00:Z","depth":0,"parameterNumber":3,"parameterNumberName":"V-component_of_WINDS"},"data":[0.0,0.0,0.0,0.0,0.0,0.0,0.0,0.0,0.0,0.0,0.0,0.0,0.0,0.0,0.0,0.0,0.0,0.0,0.0,0.0,0.0,0.0,0.0,0.0,0.0,0.0,0.0,0.0,0.0,0.0,0.0,0.0,0.0,0.0,0.0,0.0,0.0,0.0,0.0,0.0,0.0,0.0,0.0,0.0,0.0,0.0,0.0,0.0,0.0,0.0,0.0,0.0,0.0,0.0,0.0,0.0,0.0,0.0,0.0,0.0,0.0,0.0,0.0,0.0,0.0,0.0,0.0,0.0,0.0,0.0,0.0,0.0,0.0,0.0,0.0,0.0,0.0,0.0,0.0,0.0,0.0,0.0,0.0,0.0,0.0,0.0,0.0,0.0,0.0,0.0,0.0,0.0,0.0,0.0,0.0,0.0,0.0,0.0,0.0,0.0,0.0,0.0,0.0,0.0,0.0,0.0,0.0,0.0,0.0,0.0,0.0,0.0,0.0,0.0,0.0,0.0,0.0,0.0,0.0,0.0,0.0,0.0,0.0,0.0,0.0,0.0,0.0,0.0,0.0,0.0,0.0,0.0,0.0,0.0,0.0,0.0,0.0,0.0,0.0,0.0,0.0,0.0,0.0,0.0,0.0,0.0,0.0,0.0,0.0,0.0,0.0,0.0,0.0,0.0,0.0,0.0,0.0,0.0,0.0,0.0,0.0,0.0,0.0,0.0,0.0,0.0,0.0,0.0,0.0,0.0,0.0,0.0,0.0,0.0,0.0,0.0,0.0,0.0,0.0,0.0,0.0,0.0,0.0,0.0,0.0,0.0,0.0,0.0,0.0,0.0,0.0,0.0,0.0,0.0,0.0,0.0,0.0,0.0,0.0,0.0,0.0,0.0,0.0,0.0,0.0,0.0,0.0,0.0,0.0,0.0,0.0,0.0,0.0,0.0,0.0,0.0,0.0,0.0,0.0,0.0,0.0,0.0,0.0,0.0,0.0,0.0,0.0,0.0,0.0,0.0,0.0,0.0,0.0,0.0,0.0,0.0,0.0,0.0,0.0,0.0,0.0,0.0,0.0,0.0,0.0,0.0,0.0,0.0,0.0,0.0,0.0,0.0,0.0,0.0,0.0,0.0,0.0,0.0,0.0,0.0,0.0,0.0,0.0,0.0,0.0,0.0,0.0,0.0,0.0,0.0,0.0,0.0,0.0,0.0,0.0,0.0,0.0,0.0,0.0,0.0,0.0,0.0,0.0,0.0,0.0,0.0,0.0,0.0,0.0,0.0,0.0,0.0,0.0,0.0,0.0,0.0,0.0,0.0,0.0,0.0,0.0,0.0,0.0,0.0,0.0,0.0,0.0,0.0,0.0,0.0,0.0,0.0,0.0,0.0,0.0,0.0,0.0,0.0,0.0,0.0,0.0,0.0,0.0,0.0,0.0,0.0,0.0,0.0,0.0,0.0,0.0,0.0,0.0,0.0,0.0,0.0,0.0,0.0,0.0,0.0,0.0,0.0,0.0,0.0,0.0,0.0,0.0,0.0,0.0,0.0,0.0,0.0,0.0,0.0,0.0,0.0,0.0,0.0,0.0,0.0,0.0,0.0,0.0,0.0,0.0,0.0,0.0,0.0,0.0,0.0,0.0,0.0,0.0,0.0,0.0,0.0,0.0,0.0,0.0,0.0,0.0,0.0,0.0,0.0,0.0,0.0,0.0,0.0,0.0,0.0,0.0,0.0,0.0,0.0,0.0,0.0,0.0,0.0,0.0,0.0,0.0,0.0,0.0,0.0,0.0,0.0,0.0,0.0,0.0,0.0,0.0,0.0,0.0,0.0,0.0,0.0,0.0,0.0,0.0,0.0,0.0,0.0,0.0,0.0,0.0,0.0,0.0,0.0,0.0,0.0,0.0,0.0,0.0,0.0,0.0,0.0,0.0,0.0,0.0,0.0,0.0,0.0,0.0,0.0,0.0,0.0,0.0,0.0,0.0,0.0,0.0,0.0,0.0,0.0,0.0,0.0,0.0,0.0,0.0,0.0,0.0,0.0,0.0,0.0,0.0,0.0,0.0,0.0,0.0,0.0,0.0,0.0,0.0,0.0,0.0,0.0,0.0,0.0,0.0,0.0,0.0,0.0,0.0,0.0,0.0,0.0,0.0,0.0,0.0,0.0,0.0,0.0,0.0,0.0,0.0,0.0,0.0,0.0,0.0,0.0,0.0,0.0,0.0,0.0,0.0,0.0,0.0,0.0,0.0,0.0,0.0,0.0,0.0,0.0,0.0,0.0,0.0,0.0,0.0,0.0,0.0,0.0,0.0,0.0,0.0,0.0,0.0,0.0,0.0,0.0,0.0,0.0,0.0,0.0,0.0,0.0,0.0,0.0,0.0,0.0,0.0,0.0,0.0,0.0,0.0,0.0,0.0,0.0,0.0,0.0,0.0,0.0,0.0,0.0,0.0,0.0,0.0,0.0,0.0,0.0,0.0,0.0,0.0,0.0,0.0,0.0,0.0,0.0,0.0,0.0,0.0,0.0,0.0,0.0,0.0,0.0,0.0,0.0,0.0,0.0,0.0,0.0,0.0,0.0,0.0,0.0,0.0,0.0,0.0,0.0,0.0,0.0,0.0,0.0,0.0,0.0,0.0,0.0,0.0,0.0,0.0,0.0,0.0,0.0,0.0,0.0,0.0,0.0,0.0,0.0,0.0,0.0,0.0,0.0,0.0,0.0,0.0,0.0,0.0,0.0,0.0,0.0,0.0,0.0,0.0,0.0,0.0,0.0,0.0,0.0,0.0,0.0,0.0,0.0,0.0,0.0,0.0,0.0,0.0,0.0,0.0,0.0,0.0,0.0,0.0,0.0,0.0,0.0,0.0,0.0,0.0,0.0,0.0,0.0,0.0,0.0,0.0,0.0,0.0,0.0,0.0,0.0,0.0,0.0,0.0,0.0,0.0,0.0,0.0,0.0,0.0,0.0,0.0,0.0,0.0,0.0,0.0,0.0,0.0,0.0,0.0,0.0,0.0,0.0,0.0,0.0,0.0,0.0,0.0,0.0,0.0,0.0,0.0,0.0,0.0,0.0,0.0,0.0,0.0,0.0,0.0,0.0,0.0,0.0,0.0,0.0,0.0,0.0,0.0,0.0,0.0,0.0,0.0,0.0,0.0,0.0,0.0,0.0,0.0,0.0,0.0,0.0,0.0,0.0,0.0,0.0,0.0,0.0,0.0,0.0,0.0,0.0,0.0,0.0,0.0,0.0,0.0,0.0,0.0,0.0,0.0,0.0,0.0,0.0,0.0,0.0,0.0,0.0,0.0,0.0,0.0,0.0,0.0,0.0,0.0,0.0,0.0,0.0,0.0,0.0,0.0,0.0,0.0,0.0,0.0,0.0,0.0,0.0,0.0,0.0,0.0,0.0,0.0,0.0,0.0,0.0,0.0,0.0,0.0,0.0,0.0,0.0,0.0,0.0,0.0,0.0,0.0,0.0,0.0,0.0,0.0,0.0,0.0,0.0,0.0,0.0,0.0,0.0,0.0,0.0,0.0,0.0,0.0,0.0,0.0,0.0,0.0,0.0,0.0,0.0,0.0,0.0,0.0,0.0,0.0,0.0,0.0,0.0,0.0,0.0,0.0,0.0,0.0,0.0,0.0,0.0,0.0,0.0,0.0,0.0,0.0,0.0,0.0,0.0,0.0,0.0,0.0,0.0,0.0,0.0,0.0,0.0,0.0,0.0,0.0,0.0,0.0,0.0,0.0,0.0,0.0,0.0,0.0,0.0,0.0,0.0,0.0,0.0,0.0,0.0,0.0,0.0,0.0,0.0,0.0,0.0,0.0,0.0,0.0,0.0,0.0,0.0,0.0,0.0,0.0,0.0,0.0,0.0,0.0,0.0,0.0,0.0,0.0,0.0,0.0,0.0,0.0,0.0,0.0,0.0,0.0,0.0,0.0,0.0,0.0,0.0,0.0,0.0,0.0,0.0,0.0,0.0,0.0,0.0,0.0,0.0,0.0,0.0,0.0,0.0,0.0,0.0,0.0,0.0,0.0,0.0,0.0,0.0,0.0,0.0,0.0,0.0,0.0,0.0,0.0,0.0,0.0,0.0,0.0,0.0,0.0,0.0,0.0,0.0,0.0,0.0,0.0,0.0,0.0,0.0,0.0,0.0,0.0,0.0,0.0,0.0,0.0,0.0,0.0,0.0,0.0,0.0,0.0,0.0,0.0,0.0,0.0,0.0,0.0,0.0,0.0,0.0,0.0,0.0,0.0,0.0,0.0,0.0,0.0,0.0,0.0,0.0,0.0,0.0,0.0,0.0,0.0,0.0,0.0,0.0,0.0,0.0,0.0,0.0,0.0,0.0,0.0,0.0,0.0,0.0,0.0,0.0,0.0,0.0,0.0,0.0,0.0,0.0,0.0,0.0,0.0,0.0,0.0,0.0,0.0,0.0,0.0,0.0,0.0,0.0,0.0,0.0,0.0,0.0,0.0,0.0,0.0,0.0,0.0,0.0,0.0,0.0,0.0,0.0,0.0,0.0,0.0,0.0,0.0,0.0,0.0,0.0,0.0,0.0,0.0,0.0,0.0,0.0,0.0,0.0,0.0,0.0,0.0,0.0,0.0,0.0,0.0,0.0,0.0,0.0,0.0,0.0,0.0,0.0,0.0,0.0,0.0,0.0,0.0,0.0,0.0,0.0,0.0,0.0,0.0,0.0,0.0,0.0,0.0,0.0,0.0,0.0,0.0,0.0,0.0,0.0,0.0,0.0,0.0,0.0,0.0,0.0,0.0,0.0,0.0,0.0,0.0,0.0,0.0,0.0,0.0,0.0,0.0,0.0,0.0,0.0,0.0,0.0,0.0,0.0,0.0,0.0,0.0,0.0,0.0,0.0,0.0,0.0,0.0,0.0,0.0,0.0,0.0,0.0,0.0,0.0,0.0,0.0,0.0,0.0,0.0,0.0,0.0,0.0,0.0,0.0,0.0,0.0,0.0,0.0,0.0,0.0,0.0,0.0,0.0,0.0,0.0,0.0,0.0,0.0,0.0,0.0,0.0,0.0,0.0,0.0,0.0,0.0,0.0,0.0,0.0,0.0,0.0,0.0,0.0,0.0,0.0,0.0,0.0,0.0,0.0,0.0,0.0,0.0,0.0,0.0,0.0,0.0,0.0,0.0,0.0,0.0,0.0,0.0,0.0,0.0,0.0,0.0,0.0,0.0,0.0,0.0,0.0,0.0,0.0,0.0,0.0,0.0,0.0,0.0,0.0,0.0,0.0,0.0,0.0,0.0,0.0,0.0,0.0,0.0,0.0,0.0,0.0,0.0,0.0,0.0,0.0,0.0,0.0,0.0,0.0,0.0,0.0,0.0,0.0,0.0,0.0,0.0,0.0,0.0,0.0,0.0,0.0,0.0,0.0,0.0,0.0,0.0,0.0,0.0,0.0,0.0,0.0,0.0,0.0,0.0,0.0,0.0,0.0,0.0,0.0,0.0,0.0,0.0,0.0,0.0,0.0,0.0,0.0,0.0,0.0,0.0,0.0,0.0,0.0,0.0,0.0,0.0,0.0,0.0,0.0,0.0,0.0,0.0,0.0,0.0,0.0,0.0,0.0,0.0,0.0,0.0,0.0,0.0,0.0,0.0,0.0,0.0,0.0,0.0,0.0,0.0,0.0,0.0,0.0,0.0,0.0,0.0,0.0,0.0,0.0,0.0,0.0,0.0,0.0,0.0,0.0,0.0,0.0,0.0,0.0,0.0,0.0,0.0,0.0,0.0,0.0,0.0,0.0,0.0,0.0,0.0,0.0,0.0,0.0,0.0,0.0,0.0,0.0,0.0,0.0,0.0,0.0,0.0,0.0,0.0,0.0,0.0,0.0,0.0,0.0,0.0,0.0,0.0,0.0,0.0,0.0,0.0,0.0,0.0,0.0,0.0,0.0,0.0,0.0,0.0,0.0,0.0,0.0,0.0,0.0,0.0,0.0,0.0,0.0,0.0,0.0,0.0,0.0,0.0,0.0,0.0,0.0,0.0,0.0,0.0,0.0,0.0,0.0,0.0,0.0,0.0,0.0,0.0,0.0,0.0,0.0,0.0,0.0,0.0,3.4167,3.3649,0.0,0.0,0.0,0.0,0.0,0.0,0.0,0.0,0.0,0.0,0.0,0.0,0.0,0.0,0.0,0.0,0.0,0.0,0.0,0.0,0.0,0.0,0.0,0.0,0.0,0.0,0.0,0.0,0.0,0.0,0.0,0.0,0.0,0.0,0.0,0.0,0.0,0.0,2.7221,2.7294,2.705,2.7065,2.7142,2.7261,0.0,0.0,0.0,0.0,0.0,0.0,0.0,0.0,0.0,0.0,0.0,0.0,0.0,0.0,0.0,0.0,0.0,0.0,0.0,0.0,0.0,0.0,0.0,0.0,0.0,0.0,0.0,0.0,0.0,0.0,0.0,0.0,0.0,0.0,0.0,0.0,0.0,0.0,0.0,0.0,0.0,0.0,0.0,0.0,0.0,0.0,0.0,0.0,0.0,0.0,0.0,0.0,0.0,0.0,0.0,0.0,0.0,0.0,0.0,0.0,0.0,0.0,0.0,0.0,0.0,0.0,0.0,0.0,0.0,0.0,3.5703,3.4883,0.0,0.0,0.0,0.0,0.0,0.0,0.0,0.0,0.0,0.0,0.0,0.0,0.0,0.0,0.0,0.0,0.0,0.0,0.0,0.0,0.0,0.0,0.0,0.0,2.3976,2.4814,2.4757,2.5374,0.0,0.0,0.0,0.0,0.0,0.0,0.0,2.6306,2.6504,2.6453,2.6858,2.7078,2.7085,2.6708,2.6674,2.6925,2.6783,0.0,0.0,0.0,0.0,0.0,0.0,0.0,0.0,0.0,0.0,0.0,0.0,0.0,0.0,0.0,0.0,0.0,0.0,0.0,0.0,0.0,0.0,0.0,0.0,0.0,0.0,0.0,0.0,0.0,0.0,0.0,0.0,0.0,0.0,0.0,0.0,0.0,0.0,0.0,0.0,0.0,0.0,0.0,0.0,0.0,0.0,0.0,0.0,0.0,0.0,0.0,0.0,0.0,0.0,0.0,0.0,0.0,0.0,0.0,0.0,0.0,0.0,0.0,3.8839,3.9189,3.929,3.9189,3.92,3.9199,3.7378,3.6618,3.6685,3.651,0.0,0.0,0.0,0.0,0.0,0.0,0.0,0.0,0.0,0.0,0.0,0.0,0.0,0.0,0.0,0.0,0.0,0.0,0.0,0.0,0.0,2.4641,2.4904,2.5598,2.6145,2.6327,0.0,0.0,0.0,0.0,0.0,0.0,2.6314,2.6766,2.6891,2.6657,2.6783,2.6932,2.7111,2.7046,2.7038,2.707,2.6942,2.6867,2.6867,0.0,0.0,0.0,0.0,0.0,0.0,0.0,0.0,0.0,0.0,0.0,0.0,0.0,0.0,0.0,0.0,0.0,0.0,0.0,0.0,0.0,0.0,0.0,0.0,0.0,0.0,0.0,0.0,0.0,0.0,0.0,0.0,0.0,0.0,0.0,0.0,0.0,0.0,0.0,0.0,0.0,3.3582,3.4075,0.0,0.0,0.0,0.0,0.0,0.0,0.0,0.0,0.0,0.0,0.0,0.0,0.0,3.8939,3.8841,3.9044,3.915,3.9139,3.9227,3.928,3.9301,3.928,3.928,3.9273,3.8996,0.0,3.8614,3.8368,0.0,0.0,0.0,0.0,0.0,0.0,0.0,0.0,0.0,0.0,0.0,0.0,0.0,0.0,0.0,0.0,0.0,0.0,0.0,0.0,0.0,2.5504,2.5947,2.6534,2.6681,2.6798,2.697,2.6742,0.0,0.0,0.0,2.6898,2.7123,2.7328,2.7384,2.7266,2.7297,2.7315,2.7316,2.7316,2.7287,2.7209,2.7071,2.6982,2.6959,2.6842,0.0,0.0,0.0,0.0,0.0,0.0,0.0,0.0,0.0,0.0,0.0,0.0,0.0,0.0,0.0,0.0,0.0,0.0,0.0,0.0,0.0,0.0,0.0,0.0,0.0,0.0,0.0,0.0,0.0,0.0,0.0,0.0,0.0,0.0,0.0,0.0,0.0,0.0,0.0,3.4539,3.498,3.5988,3.5889,3.6099,0.0,0.0,0.0,0.0,0.0,0.0,0.0,0.0,0.0,3.9458,3.9588,3.9638,3.9638,4.0091,4.0304,4.0332,4.0775,4.0998,4.0998,4.0998,4.0998,4.0988,4.0824,4.0708,4.0548,3.9446,3.9255,3.9663,0.0,0.0,0.0,0.0,4.0162,4.0162,0.0,0.0,0.0,0.0,0.0,0.0,0.0,0.0,0.0,0.0,0.0,0.0,2.5739,2.6278,2.6783,2.718,2.7038,2.7154,2.775,2.7122,0.0,0.0,2.7371,2.74,2.7683,2.7708,2.7708,2.7708,2.7708,2.7642,2.7547,2.7547,2.7608,2.77,2.7555,2.7427,2.7322,2.724,2.7632,2.8313,0.0,0.0,0.0,0.0,0.0,0.0,0.0,0.0,0.0,0.0,0.0,0.0,0.0,0.0,0.0,0.0,0.0,0.0,0.0,0.0,0.0,0.0,0.0,0.0,0.0,0.0,0.0,0.0,0.0,0.0,0.0,0.0,0.0,0.0,0.0,0.0,0.0,3.6032,3.6616,3.7763,3.7946,3.8188,0.0,0.0,0.0,0.0,0.0,0.0,3.9817,4.0154,4.0342,4.0342,4.0451,4.0618,4.0832,4.1403,4.1805,4.2002,4.259,4.2886,4.2886,4.2886,4.2886,4.2876,4.2669,4.2583,4.2448,4.0627,4.0239,4.079,4.1012,4.1422,4.192,4.2125,4.2233,4.2322,0.0,0.0,0.0,0.0,0.0,0.0,0.0,0.0,0.0,0.0,0.0,2.6291,2.6949,2.7168,2.7259,2.7286,2.7399,2.7483,2.7517,2.7585,2.7639,2.7694,2.7679,2.7686,2.7708,2.7708,2.7708,2.7708,2.7708,2.7701,2.7694,2.7694,2.8087,2.8815,2.8621,2.8422,2.8227,2.81,2.8502,2.9237,2.9237,0.0,0.0,0.0,0.0,0.0,0.0,0.0,0.0,0.0,0.0,0.0,0.0,0.0,0.0,0.0,0.0,0.0,0.0,0.0,0.0,0.0,0.0,0.0,0.0,0.0,0.0,0.0,0.0,0.0,0.0,0.0,0.0,0.0,0.0,0.0,0.0,0.0,0.0,3.8727,3.9342,0.0,0.0,0.0,0.0,3.9875,4.0706,4.1204,4.1194,4.1918,4.2348,4.2348,4.2231,4.2547,4.3311,4.3365,4.3722,4.4417,4.446,4.4489,4.4489,4.4489,4.4489,4.4478,4.4478,4.4467,4.431,4.2302,4.1516,4.1622,4.2399,4.2698,4.2832,4.3517,4.3992,4.4258,0.0,0.0,0.0,0.0,0.0,0.0,0.0,0.0,2.4663,2.4935,2.6077,2.6963,2.719,2.7351,2.7429,2.7429,2.7547,2.7637,2.7637,2.7672,2.7752,2.7896,2.8014,2.8132,2.821,2.8084,2.8025,2.8025,2.8025,2.8315,2.8849,2.8676,2.9046,2.9864,2.9654,2.9793,3.0105,2.9291,2.9376,3.007,3.0033,3.045,0.0,0.0,0.0,0.0,0.0,0.0,0.0,0.0,0.0,0.0,0.0,0.0,0.0,0.0,0.0,0.0,0.0,0.0,0.0,0.0,0.0,0.0,0.0,0.0,0.0,0.0,0.0,0.0,0.0,0.0,0.0,0.0,0.0,0.0,0.0,0.0,0.0,3.9512,3.9744,0.0,4.0744,4.0789,4.1033,4.1611,4.1956,4.2362,4.2883,4.3178,4.3573,4.4094,4.4063,4.4186,4.4462,4.4462,4.4556,4.4721,4.4721,4.4689,4.4614,4.4614,4.4725,4.491,4.491,4.5034,4.519,4.4472,4.3929,4.3577,4.4075,4.4288,4.4345,4.4816,4.5077,4.516,0.0,0.0,0.0,0.0,0.0,0.0,0.0,0.0,2.5005,2.5005,2.6333,2.7323,2.7368,2.7452,2.7526,2.7562,2.7719,2.7806,2.7806,2.7904,2.8024,2.8171,2.8377,2.8539,2.8627,2.8551,2.8639,2.8905,2.8905,2.9348,3.0206,3.0022,3.0379,3.1135,3.0927,3.1237,3.1854,3.0974,3.0777,3.1041,3.0987,3.1232,3.1612,0.0,0.0,0.0,0.0,0.0,0.0,0.0,0.0,0.0,0.0,0.0,0.0,0.0,0.0,0.0,0.0,0.0,0.0,0.0,0.0,0.0,0.0,0.0,0.0,0.0,0.0,0.0,0.0,0.0,0.0,0.0,0.0,0.0,0.0,4.0165,4.0404,4.0404,4.0654,4.1069,4.1685,4.1982,4.2378,4.2959,4.3304,4.3702,4.4252,4.427,4.4523,4.5063,4.5021,4.5126,4.5396,4.5396,4.549,4.5638,4.5638,4.5663,4.5702,4.5702,4.5903,4.6246,4.6246,4.6324,4.6485,4.6485,4.6184,4.5715,4.5383,4.5093,4.4886,4.5372,4.5643,4.5745,0.0,0.0,0.0,0.0,0.0,0.0,0.0,2.4015,2.5005,2.5005,2.6333,2.7353,2.7481,2.7503,2.7554,2.7701,2.7886,2.8014,2.8011,2.8315,2.8505,2.8524,2.8773,2.89,2.8929,2.9036,2.949,3.0307,3.0307,3.075,3.1654,3.1648,3.1997,3.2646,3.2436,3.2711,3.3295,3.3092,3.2673,3.2144,3.2135,3.201,3.1819,0.0,0.0,0.0,0.0,0.0,0.0,0.0,0.0,0.0,0.0,0.0,0.0,0.0,0.0,0.0,0.0,0.0,0.0,0.0,0.0,0.0,0.0,0.0,0.0,0.0,0.0,0.0,0.0,0.0,0.0,0.0,0.0,0.0,4.0489,4.0983,4.1449,4.1467,4.215,4.2653,4.2681,4.3382,4.3832,4.386,4.4682,4.5212,4.523,4.523,4.5258,4.5304,4.5173,4.5471,4.6258,4.6302,4.6679,4.7381,4.7417,4.7618,4.7994,4.7994,4.8202,4.8587,4.8587,4.8486,4.8326,4.8326,4.822,4.7924,4.6289,4.5129,4.4472,4.5256,4.5745,4.6109,0.0,0.0,0.0,0.0,0.0,0.0,0.0,2.4015,2.5005,2.5005,2.6333,2.7353,2.7481,2.7592,2.7726,2.7904,2.8064,2.8221,2.8425,2.8527,2.8749,2.9141,2.9082,2.9121,2.9257,2.9153,2.949,3.0307,3.0307,3.1121,3.2687,3.2481,3.2901,3.3814,3.3573,3.3508,3.3597,3.3526,3.3303,3.2954,3.2809,3.2689,3.2576,0.0,0.0,0.0,0.0,0.0,0.0,0.0,0.0,0.0,0.0,0.0,0.0,0.0,0.0,0.0,0.0,0.0,0.0,0.0,0.0,0.0,0.0,0.0,0.0,0.0,0.0,0.0,0.0,0.0,0.0,0.0,4.3306,4.353,4.2158,4.2142,4.2491,4.3067,4.3346,4.3736,4.4411,4.4692,4.483,4.4875,4.5122,4.554,4.6119,4.6137,4.6533,4.7415,4.714,4.7316,4.808,4.8421,4.8786,4.9183,4.9773,5.0087,5.0144,5.0144,5.0315,5.0597,5.0597,5.0703,5.0887,5.0887,5.0517,4.9742,4.7601,4.6608,4.6388,4.6272,4.6642,4.7238,0.0,0.0,0.0,0.0,0.0,0.0,0.0,2.4061,2.4939,2.4557,2.6229,2.7382,2.7148,2.754,2.7904,2.8071,2.8255,2.843,2.8597,2.8814,2.911,2.9516,2.9449,2.9445,2.957,2.9835,3.0363,3.1177,3.1543,3.2456,3.3848,3.369,3.3943,3.4501,3.4356,3.4195,3.4074,3.4074,3.3949,3.374,3.3623,3.3324,3.2916,3.2737,3.2624,3.2568,3.2368,3.2249,3.217,3.217,0.0,0.0,0.0,0.0,0.0,0.0,0.0,0.0,0.0,0.0,0.0,0.0,0.0,0.0,0.0,0.0,0.0,0.0,0.0,0.0,0.0,0.0,0.0,0.0,4.4806,4.5248,4.4318,4.4191,4.4373,4.482,4.4779,4.4942,4.5635,4.5728,4.5888,4.6231,4.6445,4.6818,4.743,4.7449,4.7948,4.9021,4.884,4.9074,4.9846,5.0111,5.0333,5.0498,5.0953,5.1258,5.1375,5.1375,5.1541,5.1826,5.1826,5.1912,5.2021,5.2021,5.1699,5.1021,0.0,0.0,0.0,0.0,4.787,4.8203,0.0,0.0,0.0,0.0,0.0,0.0,0.0,2.4056,2.4764,2.395,2.6029,2.7329,2.6697,2.748,2.8088,2.8226,2.8476,2.8652,2.87,2.9174,2.9531,2.971,2.9777,2.9821,2.9821,3.0711,3.1587,3.2402,3.3278,3.4112,3.4908,3.4908,3.486,3.4814,3.4814,3.4734,3.4629,3.4629,3.4545,3.4414,3.4414,3.3899,3.3112,3.3074,3.3051,3.3062,3.3121,3.3013,3.2901,3.3087,0.0,0.0,0.0,0.0,0.0,0.0,0.0,0.0,0.0,0.0,0.0,0.0,0.0,0.0,0.0,0.0,0.0,0.0,0.0,0.0,0.0,0.0,0.0,0.0,4.6079,4.6648,4.6608,4.6715,4.6725,4.6551,4.6268,4.6245,4.6632,4.6709,4.7034,4.7686,4.8117,4.8523,4.8938,4.8956,0.0,0.0,0.0,5.0615,5.1419,5.1477,5.1533,5.1577,5.167,5.1891,5.2237,5.2237,5.2405,5.2677,5.2677,5.2604,5.2492,5.2492,5.2408,5.2135,5.1096,5.0205,4.9483,4.9308,4.9175,4.9108,0.0,0.0,0.0,0.0,0.0,0.0,0.0,2.3634,2.422,2.4136,2.5687,2.6796,2.6763,2.7642,2.8322,2.8515,2.8724,2.8984,2.9291,2.9626,2.9817,2.9862,2.9859,2.9891,2.9891,3.0741,3.1587,3.2402,3.3278,3.4112,3.4908,3.4908,3.4898,3.4879,3.4879,3.4845,3.4763,3.4763,3.4682,3.4556,3.4556,3.4286,3.3864,3.3586,3.3454,3.3459,3.3826,3.3944,3.4118,3.547,3.6001,3.6211,3.7027,3.7395,0.0,0.0,0.0,0.0,0.0,0.0,0.0,0.0,0.0,0.0,0.0,0.0,0.0,0.0,0.0,0.0,0.0,0.0,0.0,4.6249,4.7342,4.8157,4.789,4.8639,4.8753,4.7523,4.7315,4.7549,4.8269,4.8351,4.8408,4.8557,4.8645,4.9034,4.9809,4.9855,5.0367,5.153,5.124,5.1425,5.2179,5.2559,5.2897,5.3252,5.3894,0.0,5.4318,5.4318,5.4349,5.4427,5.4427,5.4394,5.4383,5.4383,5.4349,5.4088,5.166,5.0205,4.9498,4.9468,4.9842,5.0346,0.0,0.0,0.0,0.0,0.0,0.0,0.0,2.3615,2.4036,2.3685,2.5578,2.6816,2.6483,2.7747,2.867,2.8843,2.9067,2.9339,2.968,2.9839,2.9893,2.9893,2.9936,2.9952,2.9952,3.1204,3.2043,3.2456,3.3685,3.451,3.4889,3.4963,3.5,3.5,3.5,3.4973,3.4941,3.4884,3.479,3.473,3.5149,3.5162,3.4936,3.4767,3.4946,3.5322,3.5561,3.5839,3.6221,3.7063,3.7822,3.8544,3.9359,3.9845,4.0321,0.0,0.0,0.0,0.0,0.0,0.0,0.0,0.0,0.0,0.0,0.0,0.0,0.0,0.0,4.6589,4.6589,0.0,4.8211,4.7634,4.8534,4.9232,4.9075,4.9539,4.9613,4.8837,4.8607,4.8728,4.9305,4.9019,4.9128,4.9947,4.9819,5.0158,5.1198,5.1252,5.1726,5.2775,5.2607,5.2867,5.3643,5.3879,5.4106,5.4314,5.4712,5.4901,5.4901,5.4901,5.4901,5.4901,5.4901,5.4901,5.4901,5.4901,5.4901,5.4754,5.3343,5.248,5.2052,5.2052,5.2261,5.2548,0.0,0.0,0.0,0.0,0.0,0.0,0.0,2.3576,2.3847,2.3268,2.5409,2.6784,2.6204,2.7786,2.8997,2.9222,2.9442,2.9671,2.9884,2.9893,2.9893,2.9893,2.996,3.0007,3.0007,3.1667,3.2503,3.2495,3.4125,3.4917,3.4894,3.5009,3.5062,3.5062,3.5062,3.5062,3.5053,3.4959,3.486,3.488,3.5716,3.6061,3.6136,3.6305,3.6678,3.7114,3.7284,3.7758,3.8352,3.867,3.9647,4.0866,4.1672,4.2328,4.2943,4.3616,4.3802,0.0,0.0,0.0,0.0,0.0,0.0,0.0,0.0,4.5905,4.6579,4.6802,4.7631,4.8147,4.7594,4.8828,4.9704,4.9073,4.9528,4.9945,4.9945,4.9945,4.9945,4.9945,4.9698,4.9614,4.9886,4.9547,4.9821,5.1107,5.1051,5.1454,5.2587,5.2658,5.3056,5.3916,5.3935,5.4231,5.4901,5.4901,5.4901,5.4901,5.4901,5.4901,5.4901,5.4901,5.4901,5.4901,5.4901,5.4901,5.4901,5.4901,5.4901,5.4901,5.4901,5.4799,5.4653,5.4653,5.4603,5.4491,0.0,0.0,0.0,0.0,0.0,0.0,0.0,0.0,2.3298,2.343,2.492,2.6051,2.6246,2.785,2.9129,2.9668,2.98,2.9868,2.9893,2.9893,2.9893,2.9893,2.996,3.0007,3.0007,3.17,3.2556,3.2495,3.4161,3.495,3.4908,3.4927,3.4912,3.4912,3.4912,3.4912,3.4912,3.4917,3.4903,3.4969,3.5822,3.6593,3.7308,3.8084,3.784,3.719,3.7911,3.87,3.964,4.1066,4.2172,4.309,4.3882,4.4194,4.4315,4.4522,4.4575,4.4601,4.4713,4.4745,4.4745,4.4745,4.5413,4.6063,0.0,4.6739,4.7567,4.8297,4.8603,4.8927,4.9535,4.9839,4.9973,4.9955,5.0025,5.0082,5.0082,5.0082,5.0082,5.0082,4.9979,4.994,4.9992,5.0602,5.1073,5.1199,5.1815,5.2603,5.351,5.3548,5.3935,5.475,5.4769,5.4806,5.4901,5.4901,5.4901,5.4901,5.4901,5.4901,5.4901,5.4901,5.4901,5.4901,5.4901,5.4901,5.4901,5.4901,5.4901,5.4901,5.4901,5.4886,5.4871,5.4871,5.4864,5.4849,0.0,0.0,0.0,0.0,0.0,0.0,0.0,0.0,0.0,0.0,2.495,2.6121,2.6489,2.8293,2.9575,2.9845,2.9872,2.9893,2.9893,2.9893,2.9893,2.9893,3.0007,3.0068,3.0068,3.174,3.2582,3.2561,3.4238,3.502,3.4955,3.5037,3.504,3.5013,3.5013,3.5013,3.5009,3.4926,3.4908,3.5022,3.6353,3.7092,3.7547,3.8888,3.9118,3.8846,3.9677,4.0527,0.0,4.2585,4.3542,4.4297,4.4631,4.4751,4.4796,4.4852,4.4895,4.4956,4.4991,4.5028,4.5028,4.5028,4.6016,4.7004,4.7004,4.8048,4.9106,4.9461,4.9531,4.9664,5.0006,5.0063,5.007,5.0095,5.0101,5.0101,5.0101,5.0101,5.0114,5.0145,5.0583,5.0856,5.0818,5.1141,5.1755,5.271,5.3083,5.3634,5.447,5.4484,5.4607,5.4949,5.4923,5.4901,5.4901,5.4901,5.4901,5.4901,5.4901,5.4901,5.4901,5.4901,5.4901,5.4901,5.4901,5.4901,5.4901,5.4901,5.4901,5.4901,5.4901,5.4901,5.4901,5.4901,5.4901,5.4901,0.0,0.0,0.0,0.0,0.0,0.0,0.0,0.0,0.0,0.0,2.4974,2.6365,2.7252,2.8852,2.9887,2.9893,2.9893,2.9893,2.9893,2.9893,2.9893,2.9893,3.0026,3.0099,3.0099,3.1546,3.2397,3.2591,3.4056,3.486,3.5024,3.5126,3.5151,3.5102,3.5102,3.5094,3.5076,3.4973,3.4922,3.504,3.6732,3.7395,3.7585,3.9261,4.0052,4.0341,4.0989,4.1778,4.2607,4.3468,4.4313,4.5,4.4967,4.4998,4.5039,4.5039,4.5049,4.5103,4.5103,4.5103,4.5165,4.5388,4.653,4.7653,4.79,4.9073,5.0126,5.0108,5.0114,5.0133,5.0133,5.0133,5.0139,5.0158,5.0158,5.0158,5.0158,5.0158,5.0176,5.0212,5.1,5.1592,5.1764,5.1986,5.2615,5.3813,5.4111,5.4492,5.5063,5.5042,5.5,5.5,5.4919,5.4901,5.4901,5.4901,5.4901,5.4901,5.4901,5.4901,5.4901,5.4901,5.4901,5.4901,5.4901,5.4901,5.4901,5.4901,5.4901,5.4901,5.4901,5.4901,5.4901,5.4901,5.4901,5.4901,0.0,0.0,0.0,0.0,0.0,0.0,0.0,0.0,0.0,0.0,0.0,0.0,0.0,2.9481,2.9823,2.9888,2.9893,2.9893,2.9893,2.9893,2.9893,2.9893,3.0026,3.0099,3.0099,3.1046,3.1878,3.2591,3.3499,3.4336,3.5092,3.5097,3.5097,3.5097,3.5097,3.507,3.5006,3.5001,3.4955,3.504,3.6732,3.7395,3.7585,3.9261,4.0412,4.1162,4.1266,4.1892,4.2814,4.3621,4.4512,4.5275,4.5132,4.5103,4.5103,4.5103,4.5103,4.5103,4.5103,4.5103,4.5293,4.6155,4.6987,4.7824,4.868,4.9548,5.0188,5.0114,5.0158,5.0207,5.0207,5.0207,5.0231,5.0284,5.0296,5.0296,5.0296,5.0296,5.0296,5.0296,5.1079,5.1901,5.269,5.3461,5.3911,5.3908,5.4625,5.5063,5.5101,5.5042,5.5,5.5,5.4919,5.4901,5.4901,5.4901,5.4901,5.4901,5.4901,5.4901,5.4901,5.4901,5.4901,5.4901,5.4901,5.4901,5.4901,5.4901,5.4901,5.4901,5.4901,5.4901,5.4901,5.4901,5.4901,5.4901,0.0,0.0,0.0,0.0,0.0,0.0,0.0,0.0,0.0,0.0,0.0,0.0,0.0,0.0,0.0,0.0,2.9893,2.9893,2.9893,2.9893,2.9893,2.9893,2.9999,3.0046,3.0099,3.099,3.1569,3.1798,3.326,3.408,3.4321,3.4893,3.5142,3.5092,3.5092,3.5066,3.5001,3.5001,3.4955,3.5003,3.6145,3.6922,3.7528,3.8665,3.9634,4.0564,0.0,4.271,4.3558,4.451,4.4982,4.5178,4.5213,4.5199,4.5175,4.5213,4.5224,4.5224,4.5224,4.5625,4.6097,4.6383,4.7547,4.8678,4.8964,4.9669,5.0261,5.0237,5.0255,5.0273,5.0273,5.0273,5.0278,5.0296,5.0302,5.0302,5.0302,5.0302,5.0512,5.1079,5.1888,5.2728,5.3569,5.3913,5.4308,5.4854,5.514,5.5293,5.5293,5.514,5.5078,5.5078,5.4968,5.4901,5.4901,5.4901,5.4901,5.4901,5.4901,5.4901,5.4901,5.4901,5.4901,5.4901,5.4901,5.4901,5.4901,5.4901,5.4901,5.4901,5.4901,5.4901,5.4901,5.4901,5.4901,5.4901,0.0,0.0,0.0,0.0,0.0,0.0,0.0,0.0,0.0,0.0,0.0,0.0,0.0,0.0,0.0,0.0,0.0,2.9893,2.9893,2.9893,2.9893,2.9893,2.9999,3.0068,3.0099,3.0665,3.1118,3.1404,3.2554,3.3383,3.3951,3.45,3.4903,3.514,3.514,3.5106,3.5048,3.5048,3.4969,3.4988,3.588,3.6724,3.754,3.8395,3.9464,0.0,4.2112,4.3153,4.3996,4.5026,4.5343,4.5333,4.5425,4.5371,4.532,4.5298,4.5302,4.5302,4.5302,4.5889,4.6571,4.6896,4.8048,4.918,4.9467,4.992,5.0302,5.0302,5.0302,5.0302,5.0302,5.0302,5.0302,5.0302,5.0302,5.0302,5.0302,5.0302,5.0627,5.1499,5.2308,5.3135,5.4027,5.439,5.4811,5.5358,5.5396,5.5396,5.5396,5.5241,5.5142,5.5142,5.5007,5.4946,5.4946,5.4916,5.4901,5.4901,5.4901,5.4901,5.4901,5.4901,5.4901,5.4901,5.4901,5.4901,5.4901,5.4901,5.4901,5.4901,5.4901,5.4901,5.4901,5.4901,5.4901,5.4901,0.0,0.0,0.0,0.0,0.0,0.0,0.0,0.0,0.0,0.0,0.0,0.0,0.0,0.0,0.0,0.0,0.0,0.0,2.9893,2.9893,2.9893,2.9893,3.0026,3.0095,3.0099,3.0169,3.0567,3.1347,3.1442,3.2306,3.3876,3.3952,3.4411,3.5148,3.5186,3.516,3.5097,3.5092,3.502,3.4998,3.588,3.6715,3.7537,3.8418,3.9745,4.1315,4.2283,4.3157,4.4008,4.5125,4.5587,4.5693,4.5685,4.5603,4.5473,4.535,4.5293,4.5317,4.5307,4.5927,4.6762,4.7584,4.8487,4.9352,5.013,5.0302,5.0302,5.0302,5.0302,5.0302,5.0302,5.0302,5.0302,5.0302,5.0302,5.0302,5.0302,5.0302,5.0627,5.1499,5.232,5.3154,5.4027,5.4906,5.5416,5.5416,5.5403,5.5396,5.5396,5.5261,5.519,5.519,5.5066,5.5007,5.5007,5.4946,5.4909,5.4909,5.4901,5.4901,5.4901,5.4909,5.4916,5.4916,5.4931,5.4938,5.4938,5.4938,5.4938,5.4938,5.4938,5.4938,5.4938,5.4938,5.4938,5.4938,0.0,0.0,0.0,0.0,0.0,0.0,0.0,0.0,0.0,0.0,0.0,0.0,0.0,0.0,0.0,0.0,0.0,0.0,2.9907,2.9893,2.9893,2.9893,2.9976,3.0042,3.0099,3.0121,3.0252,3.0513,3.1178,3.1713,3.2153,3.3417,3.4105,3.4335,3.4923,3.5196,3.5164,3.5129,3.5079,3.5076,3.5258,3.5841,3.6706,3.7576,3.8575,3.97,4.1201,4.2319,4.3325,4.4947,4.5524,4.5541,4.5438,4.5456,4.5473,4.535,4.538,4.5428,4.5329,4.6366,4.7526,4.7731,4.8907,5.0054,5.0245,5.0302,5.0302,5.0302,5.0302,5.0302,5.0302,5.0302,5.0302,5.0302,5.0302,5.0302,5.0302,5.0302,5.0627,5.1499,5.2439,5.3379,5.4243,5.5064,5.5558,5.5558,5.5452,5.5396,5.5396,5.5261,5.519,5.519,5.5121,5.5066,5.5066,5.5007,5.4971,5.4971,5.4931,5.4901,5.4909,5.5064,5.5128,5.5135,5.5288,5.5352,5.5352,5.5352,5.5352,5.5352,5.5352,5.5352,5.5352,5.5352,5.5352,5.5352,0.0,0.0,0.0,0.0,0.0,0.0,0.0,0.0,0.0,0.0,0.0,0.0,0.0,0.0,0.0,0.0,0.0,0.0,0.0,2.9751,2.9813,2.9893,2.996,3.0018,3.0068,3.0079,3.0116,3.016,3.0675,3.1121,3.1522,3.2439,3.3051,3.3471,3.4292,3.465,3.4647,3.5003,3.5133,0.0,0.0,3.5592,3.6433,3.7317,3.8184,3.9161,4.084,4.2253,4.3535,4.4945,4.55,4.5559,4.5433,4.5447,4.5473,4.535,4.5351,4.54,4.5319,4.6519,4.7794,4.7794,4.9054,5.0302,5.0302,5.0302,5.0302,5.0302,5.0302,5.0302,5.0302,5.0302,5.0302,5.0302,5.0302,5.0302,5.0302,5.0302,5.0627,5.1499,5.2494,5.3444,5.4315,5.5219,5.5731,5.5731,5.5535,5.5396,5.5396,5.5326,5.5294,5.5294,5.5182,5.5135,5.5101,5.5052,5.5035,5.5,5.4992,5.4968,5.4901,5.5057,5.5149,5.5216,5.5314,5.5426,5.5504,5.5504,5.5504,5.5504,5.5504,5.5504,5.5504,5.5504,5.5504,5.5504,0.0,0.0,0.0,0.0,0.0,0.0,0.0,0.0,0.0,0.0,0.0,0.0,0.0,0.0,0.0,0.0,0.0,0.0,0.0,0.0,2.9672,2.9851,2.9948,3.0007,3.0007,3.0061,3.0098,3.0098,3.0157,3.0575,3.1324,3.1378,3.1817,3.2585,3.3433,3.3856,3.3954,3.4708,3.5069,3.5114,3.5187,3.5619,3.6334,0.0,0.0,3.9069,4.0869,4.2507,4.3973,4.4838,4.535,4.5619,4.5507,4.5491,4.5473,4.535,4.5304,4.5319,4.5293,4.6519,4.7794,4.7794,4.9054,5.0302,5.0302,5.0302,5.0302,5.0302,5.0302,5.0302,5.0302,5.0302,5.0314,5.0342,5.0329,5.034,5.0355,5.0361,5.0648,5.1408,5.2469,5.3456,5.4227,5.5298,5.5945,5.5945,5.5648,5.5453,5.5434,5.5434,5.5447,5.5465,5.5358,5.5263,5.5204,5.5191,5.5158,5.5109,5.517,5.5123,5.5016,5.5095,5.5197,5.5282,5.5313,5.5406,5.5573,5.5573,5.5573,5.5573,5.5573,5.5573,5.5573,5.5573,5.5573,5.5573,0.0,0.0,0.0,0.0,0.0,0.0,0.0,0.0,0.0,0.0,0.0,0.0,0.0,0.0,0.0,0.0,0.0,0.0,0.0,0.0,0.0,2.9649,2.9887,3.0007,3.0007,3.008,3.0106,3.0106,3.0114,3.0186,3.0364,3.1077,3.1516,3.1748,3.2565,3.331,3.3998,3.4076,3.453,3.5181,3.5194,3.5278,3.5499,3.6385,0.0,0.0,4.064,4.2144,4.3133,4.3954,4.4736,4.537,4.533,4.54,4.5473,4.535,4.5371,4.5447,4.5334,4.6519,4.7794,4.7794,4.9054,5.0302,5.0302,5.0302,5.0302,5.0302,5.0302,5.0302,5.0302,5.0302,5.0352,5.0526,5.0557,5.0596,5.0703,5.0705,5.0763,5.0913,5.2469,5.3572,5.3728,5.5197,5.6158,5.6158,5.5936,5.5735,5.5577,5.5566,5.5633,5.5803,5.5784,5.5774,5.5765,5.5712,5.5668,5.5658,5.5622,5.5572,5.5581,5.5755,5.5803,5.5774,5.5891,5.5928,5.5913,5.5913,5.5913,5.5913,5.5913,5.5913,5.5913,5.5913,5.5913,5.5913,0.0,0.0,0.0,0.0,0.0,0.0,0.0,0.0,0.0,0.0,0.0,0.0,0.0,0.0,0.0,0.0,0.0,0.0,0.0,0.0,0.0,0.0,0.0,0.0,2.9635,2.98,2.9895,2.9895,0.0,3.0106,3.0117,3.0525,3.0746,3.0818,3.1615,3.2206,3.2649,3.3526,3.4149,3.4566,3.5024,3.5208,3.5301,0.0,0.0,0.0,4.0754,4.2049,4.2928,4.3725,4.4584,4.5302,4.5302,4.5336,4.5381,4.5314,4.536,4.5376,4.5314,4.6519,4.7794,4.7794,4.9054,5.0302,5.0302,5.0302,5.0302,5.0302,5.0302,5.0323,5.0446,5.0453,5.0507,5.0674,5.0705,5.0739,5.0782,5.0794,5.0794,5.0794,5.2453,5.3607,5.3607,5.5272,5.6352,5.6352,5.6175,5.5974,5.5765,5.5755,5.5798,5.5907,5.5911,5.5911,5.5911,5.587,5.5833,5.5791,5.581,5.5764,5.5697,5.5833,5.5915,5.5958,5.5979,5.6019,5.6055,5.601,5.6008,5.6008,5.6008,5.6008,5.6008,5.6008,5.6008,5.6008,0.0,0.0,0.0,0.0,0.0,0.0,0.0,0.0,2.4847,2.4847,2.6474,2.7726,2.7875,2.8056,0.0,0.0,0.0,0.0,0.0,0.0,0.0,0.0,0.0,0.0,2.9278,0.0,0.0,2.9612,2.9874,0.0,0.0,0.0,0.0,0.0,3.0761,3.1142,3.1408,3.2964,3.3719,0.0,0.0,3.5176,3.5276,0.0,0.0,0.0,0.0,4.1628,4.2641,4.3477,4.4317,4.5053,4.5244,4.5302,4.5302,4.5302,4.5302,4.5312,4.5339,4.6574,4.7862,4.7909,4.917,5.0405,5.0374,5.0383,5.0405,5.0374,5.0363,5.0416,5.062,5.062,5.0653,5.0832,5.0866,5.0877,5.0909,5.0912,5.0912,5.0912,5.253,5.3661,5.3661,5.5373,5.6507,5.6507,5.6352,5.6178,5.5978,5.597,5.5986,5.6021,5.6025,5.6025,5.6025,5.6025,5.599,5.5943,5.599,5.597,5.5874,5.5927,5.5986,5.6063,5.6001,5.6028,5.6094,5.6047,5.6005,5.6008,5.6008,5.6008,5.6008,5.6008,5.6008,5.6008,0.0,0.0,0.0,0.0,0.0,0.0,0.0,0.0,2.4636,2.4636,2.6319,2.7534,2.7542,2.7824,0.0,0.0,0.0,0.0,0.0,0.0,0.0,0.0,0.0,0.0,0.0,0.0,0.0,2.934,2.9547,0.0,0.0,0.0,0.0,0.0,0.0,3.0628,3.137,3.2326,0.0,0.0,0.0,0.0,0.0,0.0,0.0,0.0,0.0,4.0253,4.1748,4.2622,4.3457,4.426,4.5053,4.5302,4.5302,4.5302,4.5302,4.5329,4.5456,4.6741,4.8094,4.821,4.9509,5.0724,5.0606,5.0665,5.072,5.0601,5.0562,5.0625,5.0757,5.0674,5.0693,5.1024,5.1065,5.1106,5.1243,5.1256,5.1256,5.1256,5.2801,5.3879,5.3879,5.5468,5.6507,5.6507,5.6479,5.639,5.6185,5.6175,5.6251,5.6437,5.6441,5.6441,5.6441,5.6441,5.6439,5.6437,5.6439,5.6439,5.6434,5.6437,5.6376,5.627,5.6264,5.6201,5.6098,5.6091,5.6044,5.6008,5.6008,5.6008,5.6008,5.6008,5.6008,5.6008,0.0,0.0,0.0,0.0,0.0,0.0,0.0,2.3007,2.4241,2.4389,2.5969,2.7159,2.7351,2.7564,0.0,0.0,0.0,0.0,0.0,0.0,0.0,0.0,0.0,0.0,0.0,0.0,2.8935,2.8992,2.9243,0.0,0.0,0.0,0.0,0.0,0.0,2.9869,3.0333,3.12,0.0,0.0,0.0,0.0,0.0,0.0,0.0,0.0,0.0,0.0,4.1633,4.2507,4.3324,4.414,4.5034,4.5302,4.5302,4.5302,4.5302,4.5329,4.546,4.6768,4.8126,4.8273,4.9556,5.0769,5.0639,5.0634,5.0671,5.0606,5.0592,5.069,5.0925,5.0937,5.0965,5.1181,5.1225,5.1239,5.1294,5.13,5.13,5.13,5.237,5.3325,5.3851,5.5002,5.5937,5.6468,5.6507,5.647,5.639,5.6388,5.6427,5.6505,5.6507,5.6507,5.6507,5.6507,5.6507,5.6507,5.6507,5.6507,5.6507,5.6507,5.6476,5.6417,5.6346,5.6241,5.6167,5.6121,5.6052,5.6008,5.6008,5.6008,5.6008,5.6008,5.6008,5.6008,0.0,0.0,0.0,0.0,0.0,0.0,2.141,2.2944,2.4177,2.4358,2.5874,2.7039,2.7266,2.7374,2.7542,2.7824,0.0,0.0,0.0,0.0,0.0,0.0,0.0,0.0,0.0,0.0,2.8603,2.8682,2.8953,2.9185,0.0,0.0,2.9455,2.9707,0.0,0.0,0.0,0.0,0.0,0.0,0.0,0.0,0.0,0.0,0.0,0.0,0.0,0.0,0.0,0.0,0.0,4.3805,4.4934,4.5302,4.5302,4.5302,4.5302,4.5345,4.5511,4.6831,4.8205,4.8402,4.9705,5.0909,5.0784,5.0784,5.0808,5.0754,5.0741,5.0832,5.112,5.1128,5.1142,5.1286,5.13,5.13,5.13,5.13,5.13,5.13,5.2292,5.3227,5.3831,5.4922,5.584,5.6448,5.6507,5.6507,5.6507,5.6507,5.6507,5.6507,5.6507,5.6507,5.6507,5.6507,5.6507,5.6507,5.6507,5.6507,5.6507,5.6507,5.6507,5.6485,5.639,5.6303,5.6223,5.6171,5.6109,5.6031,5.6031,5.6014,5.6008,5.6008,5.6008,5.6008,0.0,0.0,0.0,0.0,0.0,0.0,0.0,2.3339,2.4581,2.4598,2.617,2.7299,2.7307,2.7307,2.736,2.7488,0.0,0.0,0.0,0.0,0.0,0.0,0.0,0.0,0.0,0.0,2.834,2.8393,2.8664,2.8814,2.8819,2.9148,2.9304,2.9304,0.0,0.0,0.0,0.0,0.0,0.0,0.0,0.0,0.0,0.0,0.0,0.0,0.0,0.0,0.0,0.0,0.0,0.0,0.0,4.5302,4.5302,4.5302,4.5302,4.5361,4.5638,4.6971,4.8386,4.8706,5.0052,5.1254,5.1128,5.1208,5.125,5.1122,5.1099,5.1136,5.1263,5.1181,5.1142,5.1286,5.13,5.13,5.13,5.13,5.13,5.13,5.2838,5.389,5.3909,5.5472,5.6487,5.6507,5.6507,5.6507,5.6507,5.6507,5.6507,5.6507,5.6507,5.6507,5.6507,5.6507,5.6507,5.6507,5.6507,5.6507,5.6507,5.6507,5.6507,5.6507,5.6505,5.6419,5.6308,5.6308,5.6216,5.6098,5.6098,5.6067,5.6008,5.6008,5.6008,5.6008,0.0,0.0,0.0,0.0,0.0,0.0,0.0,0.0,2.4591,2.5312,2.6327,2.7047,2.7291,2.7307,2.7217,2.7037,0.0,0.0,0.0,0.0,0.0,0.0,0.0,0.0,0.0,0.0,2.8253,2.8327,2.8427,2.8546,2.873,2.8755,2.8926,2.922,2.8932,2.8921,0.0,0.0,0.0,0.0,0.0,0.0,3.4917,0.0,0.0,0.0,0.0,0.0,0.0,0.0,0.0,0.0,0.0,0.0,0.0,4.5302,4.5302,4.5495,4.6345,4.7423,4.8506,4.9409,5.0463,5.1256,5.1131,5.1134,5.115,5.1111,5.1102,5.1139,5.1284,5.1276,5.1248,5.1294,5.13,5.13,5.13,5.13,5.13,5.13,5.2838,5.4123,5.4727,5.5823,5.6507,5.6507,5.6507,5.6507,5.6507,5.6507,5.6507,5.6507,5.6507,5.6507,5.6507,5.6507,5.6507,5.6507,5.6507,5.6507,5.6507,5.6507,5.6507,5.6507,5.6507,5.6419,5.6291,5.6291,5.6244,5.6154,5.6121,5.6083,5.6052,5.6014,5.6008,5.6008,0.0,0.0,0.0,0.0,0.0,0.0,0.0,0.0,2.473,2.5785,2.6536,2.7071,2.7291,2.7307,2.7161,2.6833,0.0,0.0,0.0,0.0,0.0,0.0,0.0,0.0,0.0,2.8092,2.8129,2.8191,2.8259,2.8383,2.8552,2.8481,2.8626,2.8885,2.8669,2.8669,0.0,0.0,0.0,0.0,0.0,0.0,3.4913,0.0,0.0,0.0,0.0,0.0,0.0,0.0,0.0,0.0,0.0,0.0,0.0,0.0,4.5302,4.5537,4.6627,4.7608,4.857,4.9651,5.0612,5.1284,5.1184,5.1188,5.1188,5.1188,5.1188,5.1211,5.129,5.13,5.13,5.13,5.13,5.13,5.13,5.13,5.1417,5.1747,5.3032,5.424,5.5117,5.5996,5.6507,5.6507,5.6507,5.6507,5.6507,5.6507,5.6507,5.6507,5.6507,5.6507,5.6507,5.6507,5.6507,5.6507,5.6507,5.6507,5.6507,5.6507,5.6507,5.6507,5.6507,5.645,0.0,5.6381,5.6314,5.6191,5.6144,5.6109,5.6067,5.6029,5.6008,5.6008,0.0,0.0,0.0,0.0,0.0,0.0,0.0,0.0,0.0,0.0,0.0,2.7307,2.7307,2.7291,0.0,0.0,0.0,0.0,0.0,0.0,0.0,0.0,0.0,0.0,0.0,2.7896,2.8007,2.8007,2.8198,2.8293,2.8293,2.8353,2.8386,2.8404,2.8465,2.851,0.0,0.0,0.0,0.0,0.0,0.0,0.0,0.0,0.0,0.0,0.0,0.0,0.0,0.0,0.0,0.0,0.0,0.0,0.0,0.0,0.0,0.0,0.0,4.7571,4.8565,4.9635,5.0605,5.13,5.13,5.13,0.0,5.13,5.13,5.13,5.13,5.13,5.13,5.13,5.13,5.13,5.13,5.13,5.1649,5.2584,5.3403,5.4279,5.5195,5.6018,5.6507,5.6507,5.6507,5.6507,5.6507,5.6507,5.6507,5.6507,5.6507,5.6507,5.6507,5.6507,5.6507,5.6507,5.6507,5.6507,5.6507,5.6507,5.6507,5.6507,5.6507,5.6507,5.6507,5.6507,5.6393,5.623,5.6204,5.6135,5.6005,5.6001,5.5993,5.6008,0.0,0.0,0.0,0.0,0.0,0.0,0.0,0.0,0.0,0.0,0.0,2.7307,2.7307,2.7071,0.0,0.0,0.0,0.0,0.0,0.0,0.0,0.0,0.0,0.0,0.0,2.7792,2.8007,2.8007,2.8154,2.8223,2.8223,2.8286,2.832,2.8327,2.8386,2.8452,2.8608,0.0,0.0,0.0,0.0,0.0,0.0,0.0,0.0,0.0,3.7614,3.8685,0.0,0.0,0.0,0.0,0.0,0.0,0.0,0.0,4.5302,4.5637,4.7152,0.0,4.8701,5.0376,5.1052,5.13,0.0,5.13,5.13,5.13,5.13,5.13,5.13,5.13,5.13,5.13,5.13,5.13,5.13,5.13,5.1863,5.3403,5.3773,5.4494,5.6057,5.6388,5.6507,5.6507,5.6507,5.6507,5.6507,5.6507,5.6507,5.6507,5.6507,5.6507,5.6507,5.6507,5.6507,5.6507,5.6507,5.6507,5.6507,5.6507,5.6507,5.6507,5.6507,5.6507,5.6507,5.6507,5.6474,5.6429,5.6328,5.6223,5.6156,5.6094,5.6047,5.6008,0.0,0.0,0.0,0.0,0.0,0.0,0.0,0.0,0.0,0.0,0.0,0.0,0.0,0.0,0.0,0.0,0.0,0.0,0.0,0.0,0.0,0.0,0.0,0.0,2.6962,2.7567,2.7828,2.7773,2.8064,2.8196,2.8196,2.8243,2.8239,2.8264,2.8313,2.8611,2.9119,3.0161,3.1219,0.0,3.342,0.0,0.0,0.0,0.0,0.0,3.8009,3.8965,0.0,4.2017,4.2566,4.2799,0.0,0.0,0.0,0.0,4.5336,4.5755,4.7461,4.8105,4.8725,5.0512,5.1136,5.13,5.13,5.13,5.13,5.13,5.13,5.13,5.13,5.13,5.13,5.13,5.13,5.13,5.13,5.13,5.1805,5.3149,5.3656,5.4435,5.5762,5.6271,5.6507,5.6507,5.6507,5.6507,5.6507,5.6507,5.6507,5.6507,5.6507,5.6507,5.6507,5.6507,5.6507,5.6507,5.6507,5.6507,5.6507,5.6507,5.6507,5.6507,5.6507,5.6507,5.6507,5.6507,5.626,5.5848,5.5777,5.5455,5.5097,5.543,5.5525,5.554,0.0,0.0,0.0,0.0,0.0,0.0,0.0,0.0,0.0,0.0,0.0,0.0,0.0,0.0,0.0,0.0,0.0,0.0,0.0,0.0,0.0,0.0,0.0,2.6513,2.6674,2.7375,2.7696,2.7579,2.8007,2.8196,2.8196,2.8196,2.8196,2.8196,2.8273,2.8836,2.9688,2.9841,3.0949,3.2622,3.303,0.0,0.0,0.0,0.0,0.0,0.0,0.0,0.0,4.2069,4.2631,4.2978,4.4591,0.0,0.0,0.0,0.0,0.0,4.765,4.8226,4.8736,5.0429,5.1064,5.13,5.13,5.13,5.13,5.13,5.13,5.13,5.13,5.13,5.13,5.13,5.13,5.13,5.13,5.13,5.161,5.2506,5.3364,5.424,5.5117,5.5996,5.6507,5.6507,5.6507,5.6507,5.6507,5.6507,5.6507,5.6507,5.6507,5.6507,5.6507,5.6507,5.6507,5.6507,5.6507,5.6507,5.6507,5.6507,5.6507,5.6507,5.6507,5.6427,5.629,5.629,5.574,5.492,5.492,5.4416,5.3808,5.4474,5.471,5.4804,0.0,0.0,0.0,0.0,0.0,0.0,0.0,0.0,0.0,0.0,0.0,0.0,0.0,0.0,0.0,0.0,0.0,0.0,0.0,0.0,0.0,0.0,2.6418,2.6766,2.703,2.7637,2.794,2.7918,2.8112,2.8196,2.8196,2.8196,2.8196,2.8213,2.8338,2.8831,2.9676,3.046,3.1505,3.2677,3.3623,0.0,0.0,0.0,0.0,0.0,0.0,0.0,0.0,4.2259,4.3003,4.3699,4.4764,0.0,0.0,0.0,0.0,0.0,4.7758,4.838,4.8893,5.0629,5.1179,5.13,5.13,5.13,5.13,5.13,5.13,5.13,5.13,5.13,5.13,5.13,5.13,5.13,5.13,5.13,5.161,5.2506,5.3364,5.424,5.5117,5.5996,5.6507,5.6507,5.6507,5.6507,5.6507,5.6507,5.6507,5.6507,5.6507,5.6507,5.6507,5.6507,5.6507,5.6507,5.6507,5.6507,5.6507,5.6507,5.6507,5.6507,5.6507,5.6076,5.539,5.539,5.4879,5.4074,5.4074,5.3967,5.3797,5.3856,5.3851,5.3916,0.0,0.0,0.0,0.0,0.0,0.0,0.0,0.0,0.0,0.0,0.0,0.0,0.0,0.0,0.0,0.0,0.0,0.0,0.0,0.0,0.0,2.6199,2.6741,2.7004,2.694,2.7637,2.7947,2.7836,2.8074,2.8196,2.8196,2.8196,2.8196,2.8213,2.8766,2.9457,3.0304,3.1213,3.2236,3.3289,0.0,0.0,0.0,0.0,0.0,0.0,0.0,0.0,0.0,0.0,4.3069,4.3858,4.4802,0.0,0.0,0.0,0.0,0.0,4.7937,4.8533,4.906,5.0787,5.125,5.13,5.13,5.13,5.13,5.13,5.13,5.13,5.13,5.13,5.13,5.13,5.13,5.13,5.13,5.13,5.161,5.2506,5.3364,5.424,5.5117,5.5996,5.6507,5.6507,5.6507,5.6507,5.6507,5.6507,5.6507,5.6507,5.6507,5.6507,5.6507,5.6507,5.6507,5.6507,5.6507,5.6507,5.6507,5.6507,5.6507,5.6468,5.5998,5.5567,5.5156,5.4688,5.3987,5.3208,5.3208,5.2884,5.2487,5.2866,5.3252,5.3645,0.0,0.0,0.0,0.0,0.0,0.0,0.0,0.0,0.0,0.0,0.0,0.0,0.0,0.0,0.0,0.0,0.0,0.0,0.0,0.0,2.6199,2.6487,2.7075,2.7272,2.702,2.7696,2.7975,2.7828,2.8067,2.8196,2.8196,2.8196,2.8309,2.8533,2.9213,3.0104,3.1142,3.1891,3.2823,3.3822,0.0,0.0,0.0,0.0,0.0,0.0,0.0,0.0,0.0,0.0,0.0,0.0,0.0,0.0,0.0,4.5483,4.5872,4.6629,4.8154,4.8818,4.943,5.093,5.13,5.13,5.13,5.13,5.13,5.13,5.13,5.13,5.13,5.13,5.13,5.13,5.13,5.13,5.13,5.13,5.1552,5.2214,5.3247,5.4162,5.4825,5.5862,5.6507,5.6507,5.6507,5.6507,5.6507,5.6507,5.6507,5.6507,5.6507,5.6507,5.6507,5.6507,5.6507,5.6507,5.6507,5.6507,5.6507,5.6507,5.6388,5.6154,5.5487,5.4961,5.4533,5.387,5.3071,5.2292,5.2292,5.1877,5.1354,5.1911,5.2625,5.328,0.0,0.0,0.0,0.0,0.0,0.0,0.0,0.0,0.0,0.0,0.0,0.0,0.0,0.0,0.0,0.0,0.0,0.0,0.0,0.0,2.6496,2.6749,2.7352,2.7654,2.7649,2.8003,2.8175,2.8161,2.8182,2.8196,2.8196,2.8196,2.8629,2.941,2.9536,3.0487,3.2025,3.2412,3.3041,3.386,3.4357,0.0,0.0,0.0,0.0,0.0,0.0,0.0,0.0,0.0,0.0,0.0,0.0,0.0,4.5332,4.5538,4.63,4.7366,4.8487,4.9329,5.0131,5.1067,5.13,5.13,5.13,5.13,5.13,5.13,5.13,5.13,5.13,5.13,5.13,5.13,5.13,5.13,5.13,5.13,5.132,5.1398,5.2877,5.3929,5.3987,5.5511,5.6507,5.6507,5.6507,5.6507,5.6507,5.6507,5.6507,5.6507,5.6507,5.6507,5.6507,5.6507,5.6507,5.6507,5.6507,5.6507,5.6507,5.6507,5.6057,5.5292,5.5234,5.4279,5.2779,5.2721,5.2175,5.1398,5.1398,5.1313,5.1213,5.1264,5.1755,5.238,0.0,0.0,0.0,0.0,0.0,0.0,0.0,0.0,0.0,0.0,0.0,0.0,0.0,0.0,0.0,0.0,0.0,0.0,0.0,0.0,2.6683,2.6808,2.7382,2.7708,2.7708,2.8032,2.8196,2.8196,2.8196,2.8196,2.8213,2.872,2.9137,2.9557,3.0781,3.1717,3.24,3.3233,3.3876,3.4366,3.5066,3.562,0.0,0.0,0.0,0.0,0.0,0.0,0.0,0.0,4.425,4.4913,4.5039,4.5268,4.5515,4.563,4.6477,4.7581,4.8546,4.9391,5.0209,5.1086,5.13,5.13,5.13,5.13,5.13,5.13,5.13,5.13,5.13,5.13,5.13,5.13,5.13,5.13,5.13,5.13,5.13,5.13,5.2838,5.3909,5.3909,5.5472,5.6507,5.6507,5.6507,5.6507,5.6507,5.6507,5.6507,5.6507,5.6507,5.6507,5.6507,5.6507,5.6507,5.6487,5.5957,5.5411,5.4885,5.4885,5.471,5.4357,5.3812,5.3208,5.2565,5.2019,5.1591,5.13,5.13,5.129,5.1252,5.122,5.1377,5.168,0.0,0.0,0.0,0.0,0.0,0.0,0.0,0.0,0.0,0.0,0.0,0.0,0.0,0.0,0.0,0.0,0.0,0.0,0.0,2.6708,2.6849,2.6949,2.7421,2.7708,2.7708,2.8032,2.8196,2.8196,2.8196,2.8338,2.8588,2.9158,2.9772,3.0463,3.1824,3.2652,3.3096,3.3962,3.457,3.5031,3.5671,3.6359,0.0,0.0,0.0,0.0,0.0,0.0,0.0,0.0,4.444,4.4913,4.502,4.5309,4.56,4.5648,4.6724,4.8048,4.8631,4.9586,5.056,5.1145,5.13,5.13,5.13,5.13,5.13,5.13,5.13,5.13,5.13,5.13,5.13,5.13,5.13,5.13,5.13,5.13,5.13,5.13,5.2838,5.3909,5.3909,5.5472,5.6507,5.6507,5.6507,5.6507,5.6507,5.6507,5.6507,5.6507,5.6507,5.6507,5.6507,5.6507,5.6368,5.6076,5.5214,5.463,5.4299,5.4026,5.3753,5.3461,5.2857,5.2448,5.2136,5.1552,5.13,5.13,5.13,5.13,5.1296,5.1245,5.1398,5.1682,0.0,0.0,0.0,0.0,0.0,0.0,0.0,0.0,0.0,0.0,0.0,0.0,0.0,0.0,0.0,0.0,0.0,0.0,0.0,2.6799,2.6957,2.7291,2.7554,2.7708,2.7708,2.8032,2.8196,2.8196,2.8213,2.863,2.9405,2.949,3.0549,3.2397,3.2477,3.3146,3.4221,3.4489,3.5082,3.5823,3.6103,3.723,3.869,0.0,0.0,0.0,0.0,0.0,0.0,0.0,4.4895,4.4913,4.4973,4.5279,4.56,4.5599,4.7137,4.8806,4.8806,5.0034,5.13,5.13,5.13,5.13,5.13,5.13,5.13,5.13,5.13,5.13,5.13,5.13,5.13,5.13,5.13,5.13,5.13,5.13,5.13,5.13,5.2838,5.3909,5.3909,5.5472,5.6507,5.6507,5.6507,5.6507,5.6507,5.6507,5.6507,5.6507,5.6507,5.6507,5.6507,5.6507,5.6076,5.5195,5.4338,5.4357,5.5156,5.4279,5.3403,5.2584,5.2584,5.2097,5.13,5.13,5.13,5.13,5.13,5.132,5.132,5.132,5.1817,5.2507,0.0,0.0,0.0,0.0,0.0,0.0,0.0,0.0,0.0,0.0,0.0,0.0,0.0,0.0,0.0,0.0,0.0,0.0,0.0,2.7153,2.7241,2.7436,2.7615,2.776,2.7918,2.8106,2.8196,2.8196,2.8766,2.9194,2.9497,3.0791,3.1772,3.2509,3.3432,3.4084,3.4538,3.5376,3.5865,3.6192,3.7451,3.8254,3.8822,0.0,0.0,0.0,0.0,0.0,0.0,0.0,0.0,0.0,4.5189,4.5498,4.5932,4.6547,4.7719,4.8923,4.9488,5.0443,5.13,5.13,5.13,5.13,5.13,5.13,5.13,5.13,5.13,5.13,5.13,5.13,5.13,5.13,5.13,5.13,5.13,5.13,5.13,5.13,5.2838,5.3909,5.3909,5.5472,5.6507,5.6507,5.6507,5.6507,5.6507,5.6507,5.6507,5.6507,5.6507,5.6507,5.6507,5.6507,5.6368,5.6095,5.5234,5.4318,5.3344,5.2467,5.1922,5.1688,5.1688,5.1534,5.13,5.13,5.13,5.13,5.13,5.1669,5.2214,5.2214,5.2751,5.3552,0.0,0.0,0.0,0.0,0.0,0.0,0.0,0.0,0.0,0.0,0.0,0.0,0.0,0.0,0.0,0.0,0.0,0.0,0.0,0.0,2.7413,2.7496,2.7704,2.7893,2.8078,2.8154,2.8356,2.8677,2.9166,2.9797,3.0608,3.1738,3.2634,3.329,3.4113,3.4755,3.5282,3.5925,3.658,3.7287,3.8291,3.9107,3.9803,0.0,0.0,0.0,0.0,0.0,0.0,0.0,0.0,0.0,4.5314,4.5607,4.6,4.6557,4.7708,4.8904,4.9391,5.0385,5.13,5.13,5.13,5.13,5.13,5.13,5.13,5.13,5.13,5.13,5.13,5.13,5.13,5.13,5.13,5.13,5.13,5.13,5.13,5.13,5.2838,5.3909,5.3909,5.5472,5.6507,5.6507,5.6507,5.6507,5.6507,5.6507,5.6507,5.6507,5.6507,5.6507,5.6507,5.6507,5.6507,5.6487,5.5626,5.4649,5.3597,5.237,5.163,5.13,5.13,5.13,5.13,5.13,5.13,5.1339,5.1688,5.2136,5.2643,5.2993,5.3675,5.4487,0.0,0.0,0.0,0.0,0.0,0.0,0.0,0.0,0.0,0.0,0.0,0.0,0.0,0.0,0.0,0.0,0.0,0.0,0.0,0.0,2.7534,2.7542,2.7846,2.8078,2.8206,2.8301,2.8757,2.9551,2.9551,3.0466,3.2224,3.2467,3.3235,3.4431,3.4645,3.5282,3.6201,3.6353,3.7306,3.8709,3.8879,3.9841,4.1213,4.1364,0.0,0.0,0.0,0.0,0.0,0.0,0.0,0.0,4.5402,4.5664,4.5961,4.6184,4.7462,4.8826,4.8982,5.0131,5.13,5.13,5.13,5.13,5.13,5.13,5.13,5.13,5.13,5.13,5.13,5.13,5.13,5.13,5.13,5.13,5.13,5.13,5.13,5.13,5.2779,5.3812,5.389,5.5411,5.6407,5.6487,5.6507,5.6507,5.6507,5.6507,5.6507,5.6507,5.6507,5.6507,5.6507,5.6507,5.6507,5.6487,5.5704,5.5273,5.5137,5.3383,5.2117,5.13,5.13,5.13,5.13,5.13,5.1359,5.1495,5.2292,5.2701,5.2935,5.3734,5.4572,5.5305,0.0,0.0,0.0,0.0,0.0,0.0,0.0,0.0,0.0,0.0,0.0,0.0,0.0,0.0,0.0,0.0,0.0,0.0,0.0,0.0,2.7733,2.7882,2.8064,2.8168,2.8196,2.9075,2.9937,3.0728,3.0728,3.1297,3.2383,3.3457,3.4186,3.4596,3.5469,3.5972,3.6296,3.7609,3.8367,3.8803,4.0119,4.0872,4.1346,4.2653,4.3398,0.0,0.0,0.0,0.0,0.0,0.0,0.0,4.5773,4.5955,4.6401,4.7788,4.8483,4.9099,5.0404,5.1028,5.13,5.13,5.13,5.13,5.13,5.13,5.13,5.13,5.13,5.13,5.13,5.13,5.13,5.13,5.13,5.13,5.13,5.13,5.13,5.13,5.2234,5.3149,5.3831,5.4864,5.5762,5.6448,5.6507,5.6507,5.6507,5.6507,5.6507,5.6507,5.6507,5.6507,5.6507,5.6507,5.6507,5.6507,5.631,5.586,5.5137,5.3383,5.2117,5.13,5.13,5.13,5.13,5.13,5.1708,5.2331,5.2526,5.3442,5.4669,5.4844,5.547,5.621,0.0,0.0,0.0,0.0,0.0,0.0,0.0,0.0,0.0,0.0,0.0,0.0,0.0,0.0,0.0,0.0,0.0,0.0,0.0,0.0,0.0,2.8092,2.8617,2.895,2.9012,3.0066,3.1028,3.1873,3.2066,3.2576,3.3364,3.4066,3.4757,3.5397,3.5949,3.6656,3.7457,3.8329,3.9158,3.9968,4.0853,4.1687,4.2482,4.3379,4.3947,4.4326,4.4799,0.0,0.0,0.0,0.0,0.0,0.0,0.0,4.6451,4.7795,4.8477,4.906,5.0346,5.0989,5.13,5.13,5.13,5.13,5.13,5.13,5.13,5.13,5.13,5.13,5.13,5.13,5.13,5.13,5.13,5.13,5.13,5.13,5.13,5.13,5.2078,5.2779,5.3227,5.4435,5.539,5.584,5.6251,5.6507,5.6507,5.6507,5.6507,5.6507,5.6507,5.6507,5.6507,5.6507,5.6507,5.6507,5.6507,5.6037,5.5137,5.3383,5.2117,5.13,5.13,5.13,5.13,5.13,5.1805,5.2643,5.3052,5.4026,5.5253,5.5665,5.6115,5.6507,0.0,0.0,0.0,0.0,0.0,0.0,0.0,0.0,0.0,0.0,0.0,0.0,0.0,0.0,0.0,0.0,0.0,0.0,0.0,0.0,0.0,0.0,2.9316,2.9899,3.0153,3.1195,3.207,3.2796,3.332,3.3979,3.4703,3.4703,3.5251,3.6201,3.6505,3.7401,3.8727,3.9012,3.9941,4.1249,4.1533,4.2487,4.375,4.3876,4.435,4.4931,4.4979,4.5049,4.5148,4.5361,0.0,0.0,0.0,0.0,4.6392,4.7425,4.8243,4.9001,4.9956,5.0755,5.13,5.13,5.13,5.13,5.13,5.13,5.13,5.13,5.13,5.13,5.13,5.13,5.13,5.13,5.13,5.13,5.13,5.13,5.13,5.13,5.1941,5.2428,5.2584,5.3909,5.4805,5.4961,5.5782,5.6271,5.6271,5.6427,5.6507,5.6507,5.6507,5.6507,5.6507,5.6507,5.6507,5.6507,5.6507,5.6037,5.5156,5.3558,5.2351,5.1513,5.1378,5.13,5.132,5.1456,5.2039,5.2916,5.3773,5.4669,5.5507,5.6232,5.6507,5.6507,0.0,0.0,0.0,0.0,0.0,0.0,0.0,0.0,0.0,0.0,2.6849,0.0,0.0,0.0,0.0,0.0,0.0,0.0,2.8126,0.0,0.0,2.9471,2.9916,3.0473,3.1176,3.2409,3.3101,3.3224,3.4198,3.513,3.5962,3.5962,3.6058,3.6258,3.7723,3.8481,3.8803,4.0252,4.1038,4.141,4.2872,4.3627,4.3938,4.4585,4.4938,4.5074,4.5028,4.522,4.5526,4.5561,4.578,0.0,0.0,0.0,4.6529,4.8146,4.8709,4.9138,5.0696,5.1203,5.13,5.13,5.13,5.13,5.13,5.13,5.13,5.13,5.13,5.13,5.13,5.13,5.13,5.13,5.13,5.13,5.13,5.13,5.13,5.13,5.1398,5.1766,5.2526,5.2818,5.3266,5.4026,5.4883,5.537,5.537,5.6095,5.6507,5.6507,5.6507,5.6507,5.6507,5.6507,5.6507,5.6507,5.6507,5.6037,5.5176,5.4182,5.3247,5.237,5.163,5.13,5.1359,5.2117,5.2935,5.3812,5.4688,5.5567,5.6349,5.6468,5.6507,5.6507,0.0,0.0,0.0,0.0,0.0,0.0,0.0,0.0,0.0,0.0,0.0,2.7349,0.0,0.0,0.0,2.785,2.7947,2.8304,2.8984,2.931,2.9801,3.0617,3.142,3.2025,3.2471,3.3564,3.4167,3.419,3.5168,3.5822,3.622,3.7154,3.7609,3.7647,3.8831,3.9646,4.0182,4.1404,4.2234,4.2767,4.362,4.4251,4.4721,4.516,4.5289,4.5203,4.5213,4.5338,4.5511,4.5611,4.5828,4.6068,4.6179,0.0,0.0,0.0,4.9118,4.9742,5.0969,5.13,5.13,5.13,5.13,5.13,5.13,5.13,5.13,5.13,5.13,5.13,5.13,5.13,5.13,5.13,5.13,5.13,5.13,5.13,5.13,5.13,5.13,5.1454,5.1824,5.2312,5.276,5.3149,5.3987,5.4688,5.5176,5.5567,5.5998,5.6487,5.6507,5.6507,5.6507,5.6507,5.6507,5.6507,5.6507,5.629,5.5899,5.502,5.389,5.2545,5.1688,5.13,5.1378,5.2234,5.311,5.3987,5.4864,5.5723,5.6507,5.6507,5.6507,5.6507,0.0,0.0,0.0,0.0,0.0,0.0,0.0,0.0,0.0,0.0,0.0,0.0,0.0,0.0,0.0,0.0,2.8287,2.8916,3.0066,3.0448,3.0982,3.1794,3.2709,3.3345,3.3679,3.4429,3.4968,3.523,3.5879,3.641,3.687,3.834,3.9164,3.9448,3.9997,4.0734,4.1604,4.249,4.3259,4.3936,4.4298,4.4813,4.5414,4.556,4.5512,4.5405,4.5447,4.5494,4.5587,4.5736,4.5908,4.6073,4.6179,4.6801,0.0,0.0,0.0,5.0463,5.1125,5.13,5.13,5.13,5.13,5.13,5.13,5.13,5.13,5.13,5.13,5.13,5.13,5.13,5.13,5.13,5.13,5.13,5.13,5.13,5.13,5.13,5.13,5.13,5.13,5.1883,5.2273,5.2273,5.3071,5.3851,5.4494,5.4747,5.5273,5.6134,5.6173,5.6271,5.6507,5.6507,5.6507,5.6507,5.6507,5.6507,5.6468,5.5606,5.4377,5.2877,5.2,5.1493,5.1376,5.2487,5.3305,5.4007,5.5098,5.5937,5.6507,5.6507,5.6507,5.6507,0.0,0.0,0.0,0.0,0.0,0.0,0.0,0.0,0.0,0.0,0.0,0.0,2.7694,2.7875,2.806,2.8266,2.9098,3.0097,3.1244,3.1626,3.2173,3.2987,3.3308,0.0,3.4708,3.485,3.5301,3.6126,3.6182,3.7021,3.8595,3.9495,4.0442,4.134,4.1274,4.1719,4.2591,4.3466,4.3954,4.4242,4.501,4.5472,4.5666,4.5618,4.5625,4.5666,4.561,4.5751,4.5961,4.5989,4.6082,4.6192,4.6196,4.6801,4.7678,0.0,0.0,0.0,5.13,5.13,5.13,5.13,5.13,5.13,5.13,5.13,5.13,5.13,5.13,5.13,5.13,5.13,5.13,5.13,5.13,5.13,5.13,5.13,5.13,5.13,5.13,5.13,5.13,5.1339,5.1378,5.1378,5.2175,5.2682,5.2721,5.3519,5.4377,5.5234,5.5273,5.5665,5.6487,5.6507,5.6507,5.6507,5.6507,5.6507,5.6468,5.5606,5.4708,5.3773,5.2916,5.2058,5.1437,5.313,5.3851,5.4065,5.5764,5.6468,5.6507,5.6507,5.6507,5.6507,0.0,0.0,0.0,0.0,0.0,0.0,0.0,0.0,0.0,0.0,0.0,0.0,0.0,2.9217,2.969,3.0351,3.0844,3.1496,3.2422,3.2756,3.3315,3.4151,3.4323,3.4803,3.5674,3.5727,3.6145,3.6979,3.7614,3.8528,3.9671,4.0641,4.1908,4.3346,4.31,4.3242,4.375,4.4528,4.4957,4.5133,4.5606,4.5825,4.5905,4.5971,4.5955,4.5896,4.5865,4.5917,4.5999,4.5999,4.6089,4.6197,4.6197,4.7172,4.8612,4.9995,5.0833,5.13,5.13,5.13,5.13,5.13,5.13,5.13,5.13,5.13,5.13,5.13,5.13,5.13,5.13,5.13,5.13,5.13,5.13,5.13,5.13,5.13,5.13,5.13,5.13,5.13,5.13,5.13,5.13,5.13,5.1591,5.2,5.2565,5.2896,5.3461,5.4338,5.4377,5.4786,5.5665,5.6212,5.6507,5.6507,5.6507,5.6507,5.6487,5.6173,5.5256,5.389,5.3578,5.2623,5.1437,5.3188,5.3909,5.4065,5.5823,5.6507,5.6507,5.6507,5.6507,5.6507,0.0,0.0,0.0,0.0,0.0,0.0,0.0,0.0,0.0,0.0,0.0,0.0,0.0,0.0,3.1049,3.2014,3.232,3.2783,3.362,3.3857,3.4362,3.5227,3.531,3.5728,3.658,3.6334,3.6781,3.7933,3.8613,3.9546,4.0764,4.2017,4.3267,4.4473,4.4483,4.4608,4.4804,4.5289,4.558,4.5754,4.5922,4.6022,4.608,4.6177,4.6146,4.6073,4.6073,4.6073,4.6112,4.6404,4.6562,4.6685,4.6977,4.8048,4.9488,5.0891,5.13,5.13,5.13,5.13,5.13,5.13,5.13,5.13,5.13,5.13,5.13,5.13,5.13,5.13,5.13,5.13,5.13,5.13,5.1298,5.1303,5.1302,5.13,5.13,5.13,5.13,5.13,5.13,5.13,5.13,5.13,5.13,5.1552,5.2136,5.2156,5.2565,5.3442,5.3753,5.4182,5.4766,5.5626,5.6057,5.6076,5.6368,5.6507,5.6507,5.6507,5.5706,5.4318,5.4026,5.2916,5.1437,5.3188,5.3909,5.4065,5.5823,5.6507,5.6507,5.6507,5.6507,5.6507,0.0,0.0,0.0,0.0,0.0,0.0,0.0,0.0,0.0,0.0,0.0,0.0,0.0,0.0,0.0,3.3071,3.3423,3.394,3.478,3.4936,3.5367,3.6206,3.623,3.6614,3.742,3.6676,3.7205,3.9072,3.9087,4.0057,4.1928,4.3631,4.4499,4.4674,4.5402,4.572,4.572,4.5714,4.5815,4.6004,4.6004,4.6084,4.6197,4.6197,4.6217,4.6236,4.6236,4.6256,4.6412,4.725,4.7542,4.7698,4.8555,4.9372,5.017,5.1047,5.13,5.13,0.0,0.0,0.0,5.13,5.13,5.13,5.13,5.13,5.13,5.13,5.13,5.13,5.13,5.13,5.1302,5.13,5.1309,5.1304,5.1308,5.13,5.13,5.13,5.13,5.13,5.13,5.13,5.13,5.13,5.13,5.13,5.13,5.13,5.1688,5.2526,5.3403,5.3851,5.3851,5.4727,5.5156,5.5176,5.6057,5.6468,5.6468,5.6487,5.6018,5.5156,5.4279,5.2935,5.1476,5.3188,5.3909,5.4065,5.5823,5.6507,5.6507,5.6507,5.6507,5.6507,0.0,0.0,0.0,0.0,0.0,0.0,0.0,0.0,0.0,0.0,0.0,0.0,0.0,3.352,3.4094,3.4369,3.5097,3.5614,3.5802,3.6473,3.6948,3.7133,3.7282,3.769,3.8394,3.8369,3.9184,4.0884,4.1087,4.2083,4.3837,4.4424,4.507,4.577,4.5962,4.6069,4.6065,4.5969,4.6017,4.6146,4.6146,4.6179,4.6197,4.6197,4.6587,4.7133,4.7133,4.7542,4.8126,4.836,4.8438,4.8573,4.941,4.982,5.017,5.1047,5.13,5.13,5.13,0.0,0.0,0.0,0.0,0.0,5.13,5.13,5.13,5.13,5.13,5.13,5.13,5.1296,5.1291,5.1306,5.1294,5.13,5.1302,5.13,5.13,5.13,5.13,5.13,5.13,5.13,5.13,5.13,5.13,5.13,5.13,5.13,5.1417,5.1649,5.2506,5.2954,5.2954,5.3812,5.426,5.4279,5.5137,5.5567,5.5587,5.6212,5.6018,5.5156,5.4279,5.3266,5.2331,5.3442,5.3909,5.4065,5.5823,5.6507,5.6507,5.6507,5.6507,5.6507,0.0,0.0,0.0,0.0,0.0,0.0,0.0,0.0,0.0,0.0,0.0,0.0,3.4496,0.0,3.5792,3.6168,3.6686,3.6992,3.6948,3.7457,3.789,3.8202,3.8328,3.8908,4.0034,3.9845,4.0589,4.2319,4.2488,4.3315,4.4731,0.0,4.5689,4.6197,4.6197,4.6197,4.6215,4.6498,4.6662,4.6704,4.6353,4.6646,4.725,4.6879,4.7289,4.8048,4.8048,4.838,4.8845,4.9196,4.9547,4.9917,5.0385,5.0541,5.0638,5.1145,5.13,5.13,5.13,5.13,5.13,5.13,0.0,0.0,5.13,5.13,5.13,5.13,5.13,5.13,5.13,5.1309,5.1301,5.1306,5.13,5.13,5.13,5.13,5.13,5.13,5.13,5.13,5.13,5.13,5.13,5.13,5.13,5.13,5.13,5.13,5.13,5.13,5.1785,5.2058,5.2058,5.2916,5.3364,5.3364,5.424,5.4844,5.5214,5.5723,5.5879,5.5665,5.4435,5.3617,5.3149,5.3305,5.3578,5.4046,5.5411,5.6173,5.6507,5.6507,5.6507,5.6507,0.0,0.0,0.0,0.0,0.0,0.0,0.0,0.0,0.0,0.0,0.0,3.4708,3.6462,0.0,0.0,0.0,3.8096,3.8173,3.8267,3.837,0.0,3.9592,3.9647,4.0385,4.1912,4.1238,4.1707,4.3468,4.3532,4.4079,4.5069,0.0,0.0,0.0,4.6197,4.6256,4.6392,4.7172,4.762,4.7698,4.684,4.7425,4.873,4.7932,4.8185,4.8923,4.8923,4.9001,4.9196,4.9898,5.0657,5.13,5.13,5.13,5.13,5.13,5.13,5.13,5.13,5.13,5.13,5.13,5.13,0.0,5.13,5.13,5.13,5.13,5.13,5.13,5.13,5.13,5.13,5.13,5.13,5.13,5.13,5.13,5.13,5.13,5.13,5.13,5.13,5.13,5.13,5.13,5.13,5.13,5.13,5.13,5.13,5.13,5.13,5.13,5.13,5.2078,5.2467,5.2467,5.3344,5.4162,5.4903,5.502,5.5528,5.6251,5.4613,5.3909,5.3831,5.2954,5.311,5.3987,5.4864,5.5723,5.6507,5.6507,5.6507,5.6507,0.0,0.0,0.0,0.0,0.0,0.0,0.0,0.0,0.0,0.0,3.5591,3.6529,3.7594,3.7723,3.7803,0.0,3.865,3.9326,3.9966,4.0723,4.1493,4.2305,4.2482,4.2693,4.2921,4.2969,4.3467,4.4426,4.4545,4.5073,4.5944,0.0,0.0,0.0,4.6197,4.6587,4.7269,4.7425,4.8282,4.9449,4.8612,4.8497,4.8787,4.8613,4.904,4.9761,4.9761,5.0229,5.0833,5.0989,5.1164,5.13,5.13,5.13,5.13,5.13,5.13,5.13,5.13,5.13,5.13,5.13,5.13,0.0,5.13,5.13,5.13,5.13,5.13,5.13,5.13,5.13,5.13,5.13,5.13,5.13,5.13,5.13,5.13,5.13,5.13,5.13,5.13,5.13,5.13,5.13,5.13,5.13,5.13,5.13,5.13,5.13,5.13,5.13,5.13,5.1476,5.1552,5.1552,5.2448,5.2935,5.313,5.3831,5.463,5.539,5.4357,5.3909,5.3831,5.2954,5.311,5.3987,5.4864,5.5723,5.6507,5.6507,5.6507,5.6507,0.0,0.0,0.0,0.0,0.0,0.0,0.0,0.0,3.6021,3.6528,3.7098,3.7954,3.9243,3.9492,3.9876,4.0716,0.0,0.0,0.0,0.0,4.2928,4.3325,4.3458,4.3664,4.405,4.4172,4.4639,4.5458,4.5517,4.5769,4.6197,0.0,4.6203,4.6211,4.6649,4.7099,4.7554,4.8431,4.9264,4.9937,4.9118,4.9294,4.9995,4.9566,4.9917,5.0657,5.0657,5.093,5.13,5.13,5.13,5.13,5.13,5.13,5.13,5.13,5.13,5.13,5.13,5.13,5.13,5.13,5.13,0.0,0.0,5.13,5.13,5.13,5.13,5.13,5.13,5.13,5.13,5.13,5.13,5.13,5.13,5.13,5.13,5.13,5.13,5.13,5.13,5.13,5.13,5.13,5.13,5.13,5.13,5.13,5.13,5.13,5.13,5.13,5.13,5.13,5.13,5.132,5.1747,5.2175,5.2604,5.3052,5.3734,5.4494,5.3636,5.3247,5.3188,5.2312,5.2467,5.3344,5.4201,5.5078,5.5899,5.6349,5.6507,5.6507,3.2845,3.3453,0.0,0.0,0.0,0.0,0.0,0.0,3.7352,3.8419,3.8816,3.9589,4.117,4.1491,4.2153,4.3496,4.3613,0.0,4.3841,4.3841,4.3937,4.409,4.4109,4.4423,4.5147,4.5147,4.5496,4.6197,4.6197,0.0,0.0,0.0,4.6286,4.6476,4.7184,4.7694,4.81,4.9502,5.0176,5.0201,4.956,5.01,5.1222,5.0521,5.0696,5.13,5.13,5.13,5.13,5.13,5.13,5.13,5.13,5.13,5.13,5.13,5.13,5.13,5.13,5.13,5.13,5.13,5.13,5.13,0.0,0.0,0.0,5.13,5.13,5.13,5.13,5.13,5.1242,5.1086,5.1183,5.1242,5.1067,5.1183,5.13,5.13,5.13,5.13,5.13,5.13,5.13,5.13,5.13,5.13,5.13,5.13,5.13,5.13,5.13,5.13,5.13,5.13,5.13,5.13,5.13,5.1669,5.2351,5.2351,5.2838,5.3617,5.2916,5.2604,5.2545,5.1844,5.1863,5.2448,5.3481,5.4435,5.5312,5.6173,5.6507,5.6507,3.4988,3.4922,3.5354,0.0,0.0,0.0,0.0,0.0,3.8573,4.0347,4.1363,4.2271,4.3171,4.3366,4.3475,4.3669,4.3689,4.3996,4.4702,4.476,4.5103,4.5866,4.5905,4.5944,4.6042,4.6042,4.61,4.6197,4.6197,0.0,0.0,0.0,4.6617,4.7353,4.7468,4.8355,4.9813,5.0027,5.0533,5.1232,5.1135,5.1175,5.13,5.1183,5.1203,5.13,5.13,5.13,5.13,5.13,5.13,5.13,5.13,5.13,5.13,5.13,5.13,5.13,5.13,5.13,5.13,5.13,5.13,5.13,5.13,0.0,5.13,5.13,0.0,5.13,5.13,0.0,0.0,5.0268,5.0794,5.1028,5.0268,5.0813,5.13,5.13,5.13,5.13,5.13,5.13,5.13,5.13,5.13,5.13,5.13,5.13,5.13,5.13,5.13,5.13,5.13,5.13,5.13,5.13,5.13,5.1359,5.1456,5.1456,5.1922,5.274,5.2643,5.2604,5.2584,5.2487,5.2058,5.161,5.3266,5.4435,5.5312,5.6173,5.6507,5.6507,3.6782,3.6691,3.6887,0.0,0.0,0.0,0.0,0.0,4.1581,4.2429,4.2889,4.3451,4.427,4.4373,4.4591,4.5116,4.5155,4.5289,4.5634,4.5653,4.5826,4.6189,4.6209,4.6209,4.6209,4.6209,0.0,0.0,4.6209,0.0,0.0,0.0,4.7146,4.7542,4.8557,4.9424,5.0139,5.0647,5.1071,5.1394,5.1404,5.1376,5.1353,5.1353,5.1353,5.1353,5.1353,5.1328,5.13,5.13,5.129,5.13,5.13,5.13,5.13,5.13,5.13,5.13,5.13,5.13,5.13,5.13,5.13,5.13,5.13,5.13,5.13,5.13,0.0,0.0,0.0,0.0,0.0,0.0,5.1067,5.1164,5.0813,5.1067,5.13,5.13,5.13,5.13,5.13,5.13,5.13,5.13,5.13,5.13,5.13,5.13,5.13,5.13,5.13,5.13,5.13,5.13,5.13,5.13,5.13,5.13,5.13,5.13,5.1495,5.1844,5.1844,5.1844,5.1844,5.1844,5.163,5.1417,5.2662,5.3675,5.4552,5.5411,5.6076,5.6507,3.9348,3.8763,3.8411,3.8805,3.9131,0.0,4.1426,4.2963,4.3975,4.4024,4.4235,4.4611,4.5221,4.5264,4.5507,4.614,4.6207,4.6192,4.617,4.617,4.6169,4.6167,4.6167,4.6167,4.6167,4.6195,4.6208,0.0,0.0,0.0,0.0,0.0,0.0,4.8279,4.9548,5.0227,5.0502,5.1128,5.1383,5.1366,5.1372,5.1371,5.1363,5.139,5.1394,5.1394,5.1394,5.1366,5.1292,5.1292,5.1298,5.13,5.13,5.13,5.13,5.13,5.13,5.13,5.13,5.13,5.13,5.13,5.13,5.13,5.13,5.13,5.13,5.13,5.13,0.0,0.0,0.0,5.1222,5.0989,0.0,5.1222,5.0989,5.1145,5.13,5.13,5.13,5.13,5.13,5.13,5.13,5.13,5.13,5.13,5.13,5.13,5.13,5.13,5.13,5.13,5.13,5.13,5.13,5.13,5.13,5.13,5.13,5.13,5.13,5.13,5.13,5.13,5.13,5.13,5.13,5.1359,5.2,5.2779,5.3675,5.4786,5.5606,5.6173,4.3192,4.1237,3.9807,4.0669,4.1625,4.2579,4.3474,4.4315,4.4863,4.4863,4.5609,4.6144,4.625,4.6191,4.6179,4.6191,4.6202,4.6171,4.6119,4.61,4.6103,4.6108,4.6108,4.6108,4.6108,4.6171,4.6203,4.6203,4.6192,0.0,0.0,0.0,0.0,0.0,5.0088,5.0566,5.1367,5.1387,5.1364,5.1301,5.1301,5.1301,5.131,5.1381,5.1394,5.1394,5.1394,5.1366,5.1292,5.1292,5.1298,5.13,5.13,5.13,5.13,5.13,5.13,5.13,5.13,5.13,5.13,5.13,5.13,5.13,5.13,5.13,5.13,5.13,5.13,5.13,5.13,5.13,5.1028,0.0,5.0755,0.0,0.0,5.0774,5.13,5.13,5.13,5.13,5.13,5.13,5.13,5.13,5.13,5.13,5.13,5.13,5.13,5.13,5.13,5.13,5.13,5.13,5.13,5.13,5.13,5.13,5.13,5.13,5.13,5.13,5.13,5.13,5.13,5.13,5.13,5.13,5.1339,5.1863,5.2857,5.4572,5.5214,5.5351,4.3388,4.323,4.3034,4.2794,4.3029,4.3555,4.4426,4.5285,4.5805,4.5772,4.6014,4.6211,4.6229,4.6217,4.6207,4.6198,4.621,4.6184,4.6168,4.6168,4.6169,4.6172,4.6172,4.6172,4.6172,4.6181,4.6458,4.6984,4.699,4.7461,0.0,0.0,0.0,0.0,5.0702,5.1118,5.1406,5.1406,5.1362,5.1297,5.1297,5.1297,5.1303,5.1367,5.1398,5.1396,5.1393,5.1395,5.1365,5.1365,5.1373,5.1356,5.1305,5.1301,5.13,5.1304,5.13,5.13,5.13,5.13,5.13,5.13,5.13,5.13,5.13,5.13,5.13,5.13,5.13,5.13,5.13,5.13,0.0,0.0,0.0,5.1203,0.0,5.1106,5.13,5.13,5.13,5.13,5.13,5.13,5.13,5.13,5.13,5.13,5.13,5.13,5.13,5.13,5.13,5.13,5.13,5.13,5.13,5.13,5.13,5.13,5.13,5.13,5.13,5.13,5.13,5.13,5.13,5.13,5.13,5.13,5.13,5.1474,5.1941,5.3695,5.4708,5.5312,4.4421,4.4947,4.5131,4.4278,4.4375,4.478,4.5334,4.5909,4.6248,4.6209,4.6182,4.6174,4.6204,4.6154,4.6138,4.6159,4.6142,4.6129,4.6129,4.6129,4.6129,4.6129,4.6129,4.6129,4.6129,4.6461,4.6879,4.7405,4.7714,4.8347,4.9277,0.0,0.0,0.0,5.1152,5.1384,5.1363,5.1363,5.1323,5.1255,5.1255,5.1255,5.1263,5.1318,5.1362,5.1406,5.1366,5.1372,5.1401,5.1377,5.1384,5.1393,5.1343,5.134,5.1336,5.1317,5.1292,5.129,5.1302,5.13,5.13,5.13,5.13,5.13,5.13,5.13,5.13,5.13,5.13,5.13,5.13,5.13,5.13,0.0,0.0,5.13,0.0,5.13,5.13,5.13,5.13,5.13,5.13,5.13,5.13,5.13,5.13,5.13,5.13,5.13,5.13,5.13,5.13,5.13,5.13,5.13,5.13,5.13,5.13,5.13,5.13,5.13,5.13,5.13,5.13,5.13,5.13,5.13,5.13,5.13,5.13,5.13,5.1476,5.2916,5.4182,5.5312,4.6285,4.629,4.6016,4.5128,4.5651,4.6191,4.6191,4.6201,4.6202,4.62,4.6139,4.6125,4.6173,4.6072,4.6022,4.6087,4.6039,4.5999,4.5999,4.5999,4.6019,4.6057,4.6057,4.6077,4.6135,4.7004,4.749,4.7529,4.8352,4.9237,5.0156,5.0099,5.0543,5.1402,5.1404,5.1362,5.1294,5.1294,5.1264,5.1199,5.1199,5.1199,5.1194,5.1202,5.1279,5.1386,5.1328,5.1347,5.1392,5.1322,5.1331,5.1404,5.1401,5.14,5.1376,5.132,5.1294,5.1309,5.1306,5.13,5.13,5.1304,5.1302,5.13,5.1304,5.1304,5.1304,5.1304,5.1304,5.1304,5.1304,5.1302,5.13,0.0,0.0,0.0,5.13,5.13,5.13,5.13,5.13,5.13,5.13,5.13,5.13,5.13,5.13,5.13,5.13,5.13,5.13,5.13,5.13,5.13,5.13,5.13,5.13,5.13,5.13,5.13,5.13,5.13,5.13,5.13,5.13,5.13,5.13,5.13,5.13,5.13,5.13,5.13,5.1417,5.2273,5.3695,5.5312,4.6219,4.623,4.6148,4.5914,4.6046,4.6198,4.6196,4.6209,4.6172,4.6132,4.6112,4.6086,4.6044,4.6013,4.6012,4.602,4.6017,4.5999,4.5999,4.5999,4.6291,4.6948,4.6968,4.7279,4.7922,4.816,4.8603,4.9264,4.9484,5.0053,5.0925,5.0908,5.104,5.132,5.1333,5.1288,5.1232,5.1232,5.123,5.1199,5.1199,5.1199,5.1205,5.1197,5.1211,5.1262,5.1288,5.131,5.1322,5.1316,5.1319,5.1326,5.1323,5.1337,5.1331,5.1366,5.1341,5.1292,5.1307,5.1292,5.1292,5.1294,5.1294,5.1292,5.1295,5.1304,5.1304,5.1304,5.1304,5.1304,5.1304,5.1291,5.13,5.13,5.13,5.13,5.13,5.13,5.13,5.13,5.13,5.13,5.13,5.13,5.13,5.13,5.13,5.13,5.13,5.13,5.13,5.13,5.13,5.13,5.13,5.13,5.13,5.13,5.13,5.13,5.13,5.13,5.13,5.13,5.13,5.13,5.13,5.13,5.13,5.13,5.13,5.13,5.1417,5.2273,5.3695,5.5234,4.619,4.6188,4.6154,4.6154,4.6132,4.6123,4.615,4.6132,4.6098,4.6052,4.6065,4.6046,4.6007,4.6349,4.656,4.656,4.6912,4.7145,4.7145,4.7145,4.7356,4.7842,4.7881,4.8094,4.858,4.8971,4.9418,4.9906,5.0273,5.0719,5.1201,5.12,5.123,5.1296,5.1274,5.1242,5.1199,5.1198,5.1202,5.1199,5.1199,5.1199,0.0,5.1199,5.1203,5.1205,5.124,5.1277,5.1294,5.1272,5.1279,5.1301,5.1302,5.1306,5.1308,5.1343,5.1337,5.1294,5.1253,5.1281,5.1293,5.129,5.1315,5.1336,5.1337,5.1341,5.1341,5.1341,5.1341,5.1341,5.1341,5.1312,5.1292,5.1304,5.13,5.13,5.13,5.13,5.13,5.13,5.13,5.13,5.13,5.13,5.13,5.13,5.13,5.13,5.13,5.13,5.13,5.13,5.13,5.13,5.13,5.13,5.13,5.13,5.13,5.13,5.13,5.13,5.13,5.13,5.13,5.13,5.13,5.13,5.13,5.13,5.13,5.13,5.1359,5.1844,5.2896,5.4162,4.6196,4.6134,4.6086,4.6086,4.6041,4.6013,4.6074,4.6039,4.5999,4.5999,4.6096,4.6174,4.6174,4.6948,4.747,4.747,4.8153,4.8599,4.8599,4.8599,4.8658,4.8774,4.8774,4.8813,4.8949,4.9671,5.0078,5.0078,5.0833,5.1194,5.1202,5.1192,5.1227,5.1275,5.1238,5.1204,5.1198,5.1206,5.1199,5.1199,5.1199,5.1199,5.1199,5.1199,5.1199,5.1199,5.1199,5.1245,5.127,5.123,5.1232,5.1299,5.1285,5.1287,5.1291,5.1307,5.1291,5.1294,5.1222,5.1268,5.1308,5.1308,5.1365,5.1399,5.1401,5.1401,5.1401,5.1401,5.1401,5.1401,5.1401,5.1344,5.1305,5.129,5.13,5.13,5.13,5.13,5.13,5.13,5.13,0.0,5.13,5.13,5.13,5.13,5.13,5.13,5.13,5.13,5.13,5.13,5.13,5.13,5.13,5.13,5.13,5.13,5.13,5.13,5.13,5.13,5.13,5.13,5.13,5.13,5.13,5.13,5.13,5.13,5.13,5.13,5.13,5.13,5.1785,5.2682,4.6129,4.6056,4.6027,4.6027,4.6012,4.6007,4.6025,4.6012,4.5999,4.5999,4.6638,4.7062,4.7062,4.7842,4.8366,4.8366,4.8502,4.8599,4.8599,4.8599,4.8913,4.9632,4.9671,5.0001,5.0736,5.0891,5.0969,5.0969,5.1125,5.1192,0.0,5.1192,5.1203,5.1222,5.1203,5.1195,5.1192,5.1211,5.1199,5.1199,5.1199,5.1199,5.1199,5.1199,5.1199,5.1199,5.1199,5.1209,5.1222,5.12,5.1208,5.122,5.122,5.1224,5.1236,5.1288,5.1306,5.1295,5.1285,5.1288,5.1308,5.1366,5.1386,5.1401,5.1406,5.1406,5.1406,5.1406,5.1406,5.1406,5.1406,5.1355,5.1305,5.129,5.13,5.13,5.13,5.13,5.13,5.13,5.13,5.13,5.13,5.13,5.13,5.13,5.13,5.13,5.13,5.13,5.13,5.13,5.13,5.13,5.13,5.13,5.13,5.13,5.13,5.13,5.13,5.13,5.13,5.13,5.13,5.13,5.13,5.13,5.13,5.13,5.13,5.13,5.13,5.13,5.1398,5.1785,4.6044,4.6384,4.6521,4.6077,4.6757,4.7204,4.6735,4.7068,4.7184,4.6735,4.7434,4.7978,4.7978,4.8755,4.9263,4.9263,4.9687,4.9959,4.9959,4.9959,5.0134,5.0561,5.0561,5.0775,5.118,5.1199,5.1199,5.1199,5.1199,5.1199,0.0,5.1199,5.1199,5.1199,5.1199,5.1199,5.1199,5.1199,5.1199,5.1199,5.1199,5.1199,5.1199,5.1199,5.1199,5.1199,5.1199,5.1199,5.1199,5.1199,5.1199,5.1192,5.121,5.1206,5.1215,5.1243,5.1244,5.1241,5.1258,5.1261,5.1315,5.138,5.1396,5.1402,5.1396,5.1394,5.1394,5.1394,5.1394,5.1397,5.1404,5.1363,5.1335,5.1315,5.1301,5.13,5.13,5.13,5.13,5.13,5.13,5.13,5.13,5.13,5.13,5.13,5.13,5.13,5.13,5.13,5.13,5.13,5.13,5.13,5.13,5.13,5.13,5.13,5.13,5.13,5.13,5.13,5.13,5.13,5.13,5.13,5.13,5.13,5.13,5.13,5.13,5.13,5.13,5.13,5.13,5.1474,4.6038,4.6851,4.7298,4.6427,4.7553,4.8366,4.7684,4.8327,4.8561,4.7684,4.8347,4.8874,4.8874,4.9651,5.0176,5.0176,5.0794,5.1199,5.1199,5.1199,5.1199,5.1199,5.1199,5.1199,5.1199,5.1199,5.1199,5.1199,5.1199,5.1105,5.093,5.1102,5.1199,5.1199,5.1199,5.1199,5.1199,5.1199,5.1199,5.1199,5.1199,5.1199,5.1199,5.1199,5.1199,5.1199,5.1199,5.1199,5.1199,5.1199,5.1199,5.1199,5.1199,5.1199,5.1199,5.1199,5.1199,5.1194,5.1193,5.1245,5.1329,5.1385,5.1396,5.1394,5.1394,5.1394,5.1394,5.1394,5.1394,5.1403,5.1403,5.1406,5.1377,5.1308,5.1309,5.1296,5.1302,5.13,5.13,5.13,5.13,5.13,5.13,5.13,5.13,5.13,5.13,5.13,5.13,5.13,5.13,5.13,5.13,5.13,5.13,5.13,5.13,5.13,5.13,5.13,5.13,5.13,5.13,5.13,5.13,5.13,5.13,5.13,5.13,5.13,5.13,5.13,5.13,5.13,5.13,5.1398,4.6155,4.734,4.8191,4.7334,4.7978,4.8561,4.8483,4.9224,4.9476,4.858,4.9243,4.9787,4.9787,5.0561,5.1086,5.1086,5.1141,5.1199,5.1199,5.1199,5.1199,5.1199,5.1199,5.1199,5.1199,5.1199,5.1199,5.1199,5.1199,5.0794,5.004,5.0833,5.1199,5.1199,5.1199,5.1199,5.1199,5.1199,5.1199,5.1199,5.1199,5.1199,5.1199,5.1199,5.1199,5.1199,5.1199,5.1199,5.1199,5.1199,5.1199,5.1199,5.1199,5.1199,5.1199,5.1199,5.1199,5.1194,5.1193,5.1245,5.1329,5.1385,5.1396,5.1394,5.1394,5.1394,5.1394,5.1394,5.1394,5.1403,5.1403,5.1405,5.1386,5.1311,5.1297,5.13,5.1308,5.13,5.13,5.13,5.13,5.13,5.13,5.13,5.13,5.13,5.13,5.13,5.13,5.13,5.13,5.13,5.13,5.13,5.13,5.13,5.13,5.13,5.13,5.13,5.13,5.13,5.13,5.13,5.13,5.13,5.13,5.13,5.13,5.13,5.13,5.13,5.13,5.13,5.13,5.132,4.6851,4.8175,4.9107,4.823,4.924,4.9978,4.9457,5.0117,5.0561,5.0212,5.0464,5.0678,5.0678,5.0989,5.1199,5.1199,5.1199,5.1199,5.1199,5.1199,5.1199,5.1199,5.1199,5.1199,5.1199,5.1199,5.1199,5.1199,5.1199,5.1027,5.0697,5.1047,5.1199,5.1199,5.1199,5.1199,5.1199,5.1199,5.1199,5.1199,5.1199,5.1199,5.1199,5.1199,5.1199,5.1199,5.1199,5.1199,5.1199,5.1199,5.1199,5.1199,5.1199,5.1199,5.1199,5.1199,5.1199,5.1194,5.1193,5.1225,5.1278,5.1361,5.1403,5.1396,5.1391,5.1394,5.1394,5.1394,5.1394,5.1398,5.1409,5.14,5.1386,5.1364,5.1325,5.1295,5.1295,5.1303,5.13,5.13,5.13,5.13,5.13,5.13,5.13,5.13,5.13,5.13,5.13,5.13,5.13,5.13,5.13,5.13,5.13,5.13,5.13,5.13,5.13,5.13,5.13,5.13,5.13,5.13,5.13,5.13,5.13,5.13,5.13,5.13,5.13,5.13,5.13,5.13,5.13,5.13,4.7723,4.9085,5.0001,4.9127,5.0212,5.0989,5.0389,5.0794,5.1199,5.1199,5.1199,5.1199,5.1199,5.1199,5.1199,5.1199,5.1199,5.1199,5.1199,5.1199,5.1199,5.1199,5.1199,5.1199,5.1199,5.1199,5.1199,5.1199,5.1199,5.1066,5.0814,5.0814,5.095,5.1199,5.1199,5.1199,5.1199,5.1199,5.1199,5.1199,5.1199,5.1199,5.1199,5.1199,5.1199,5.1199,5.1199,5.1199,5.1199,5.1199,5.1199,5.1199,5.1199,5.1199,5.1199,5.1199,5.1199,5.1192,5.1194,5.1196,5.123,5.1344,5.1387,5.1401,5.1409,5.1394,5.1394,5.1394,5.1394,5.1394,5.1394,5.1391,5.1401,5.1404,5.1363,5.1322,5.1303,5.1292,5.1301,5.1302,5.13,5.13,5.13,5.13,5.13,5.13,5.13,5.13,5.13,5.13,5.13,5.13,5.13,5.13,5.13,5.13,5.13,5.13,5.13,5.13,5.13,5.13,5.13,5.13,5.13,5.13,5.13,5.13,5.13,5.13,5.13,5.13,5.13,5.13,5.13,5.13,4.8755,4.9998,5.0911,5.004,5.06,5.1199,5.118,5.118,5.1199,5.1199,5.1199,5.1199,5.1199,5.1199,5.1199,5.1199,5.1199,5.1199,5.1199,5.1199,5.1199,5.1199,5.1199,5.1199,5.1199,5.1199,5.1199,5.1199,5.1199,5.0755,4.9926,4.9926,5.0389,5.1199,5.1199,5.1199,5.1199,5.1199,5.1199,5.1199,5.1199,5.1199,5.1199,5.1199,5.1199,5.1199,5.1199,5.1199,5.1199,5.1199,5.1199,5.1199,5.1199,5.1199,5.1199,5.1199,5.1199,5.1199,5.1202,5.1206,5.1223,5.1288,5.1349,5.1401,5.1409,5.1394,5.1394,5.1394,5.1394,5.1394,5.1394,5.1394,5.1404,5.1403,5.1405,5.1386,5.131,5.13,5.1304,5.1306,5.13,5.13,5.13,5.13,5.13,5.13,5.13,5.13,5.13,5.13,5.13,5.13,5.13,5.13,5.13,5.13,5.13,5.13,5.13,5.13,5.13,5.13,5.13,5.13,5.13,5.13,5.13,5.13,5.13,5.13,5.13,5.13,5.13,5.13,5.13,5.13,4.9535,5.0406,5.1102,5.0833,5.1027,5.1199,5.1199,5.1199,5.1199,5.1199,5.1199,5.1199,5.1199,5.1199,5.1199,5.1199,5.1199,5.1199,5.1199,5.1199,5.1199,5.1199,5.1199,5.1199,5.1199,5.1199,5.1199,5.1199,5.1199,5.1066,5.0794,5.0794,5.093,5.1199,5.1199,5.1199,5.1199,5.1199,5.1199,5.1199,5.1199,5.1199,5.1199,5.1199,5.1199,5.1199,5.1199,5.1199,5.1199,5.1199,5.1199,5.1199,5.1199,5.1199,5.1199,5.1199,5.1199,5.1199,5.1199,5.1194,5.1214,5.128,5.1329,5.1335,5.1386,5.1394,5.1394,5.1394,5.1394,5.1394,5.1394,5.1394,5.1397,5.1407,5.14,5.1386,5.1366,5.1378,5.134,5.1304,5.13,5.1306,5.1304,5.13,5.13,5.13,5.13,5.13,5.13,5.13,5.13,5.13,5.13,5.13,5.13,5.13,5.13,5.13,5.13,5.13,5.13,5.13,5.13,5.13,5.13,5.13,5.13,5.13,5.13,5.13,5.13,5.13,5.13,5.13,5.13,5.13,5.0199,5.0641,5.1042,5.1102,5.1128,5.114,5.1196,5.1199,5.1199,5.1199,5.1199,5.1199,5.1199,5.1199,5.1199,5.1199,5.1199,5.1199,5.1199,5.1199,5.1199,5.1199,5.1199,5.1199,5.1199,5.1199,5.1199,5.1199,5.1199,5.1199,5.1199,5.1199,5.1199,5.1199,5.1199,5.1199,5.1199,5.1199,5.1199,5.1199,5.1199,5.1199,5.1199,5.1199,5.1199,5.1199,5.1199,5.1199,5.1199,5.1199,5.1199,5.1199,5.1199,5.1199,5.1199,5.1199,5.1199,5.1199,5.1199,5.1197,5.1219,5.1282,5.1312,5.1358,5.1386,5.1394,5.1394,5.1394,5.1394,5.1394,5.1394,5.1394,5.1394,5.1394,5.1409,5.14,5.1404,5.1406,5.1381,5.1342,5.1329,5.1309,5.1297,5.1294,5.13,5.13,5.13,5.13,5.13,5.13,5.13,5.13,5.13,5.13,5.13,5.13,5.13,5.13,5.13,5.13,5.13,5.13,5.13,5.13,5.13,5.13,5.13,5.13,5.13,5.13,5.13,5.13,5.13,5.13,5.13,5.13,5.07,5.07,5.0763,5.0967,5.1009,5.1044,5.1187,5.1199,5.1199,5.1199,5.1199,5.1199,5.1199,5.1199,5.1199,5.1199,5.1199,5.1199,5.1199,5.1199,5.1199,5.1199,5.1199,5.1199,5.1199,5.1199,5.1199,5.1199,5.1199,5.1199,5.1199,5.1199,5.1199,5.1199,5.1199,5.1199,5.1199,5.1199,5.1199,5.1199,5.1199,5.1199,5.1199,5.1199,5.1199,5.1199,5.1199,5.1199,5.1199,5.1199,5.1199,5.1199,5.1199,5.1199,5.1199,5.1199,5.1199,5.1199,5.1199,5.1206,5.122,5.1288,5.1351,5.1404,5.1409,5.1394,5.1394,5.1394,5.1394,5.1394,5.1394,5.1394,5.1394,5.1394,5.1394,5.1404,5.1402,5.1404,5.1406,5.1401,5.1345,5.1307,5.1305,5.1302,5.1306,5.1306,5.1302,5.13,5.13,5.13,5.13,5.13,5.13,5.13,5.13,5.13,5.13,5.13,5.13,5.13,5.13,5.13,5.13,5.13,5.13,5.13,5.13,5.13,5.13,5.13,5.13,5.13,5.13,5.13,5.13,5.13,5.07,5.07,5.0763,5.0967,5.1009,5.1044,5.1187,5.1199,5.1199,5.1199,5.1199,5.1199,5.1199,5.1199,5.1199,5.1199,5.1199,5.1199,5.1199,5.1199,5.1199,5.1199,5.1199,5.1199,5.1199,5.1199,5.1199,5.1199,5.1199,5.1199,5.1199,5.1199,5.1199,5.1199,5.1199,5.1199,5.1199,5.1199,5.1199,5.1199,5.1199,5.1199,5.1199,5.1199,5.1199,5.1199,5.1199,5.1199,5.1199,5.1199,5.1199,5.1199,5.1199,5.1199,5.1199,5.1199,5.1199,5.1199,5.1199,5.1206,5.122,5.1288,5.1349,5.1408,5.1393,5.1394,5.1394,5.1394,5.1394,5.1394,5.1394,5.1394,5.1394,5.1394,5.1394,5.1397,5.1404,5.1405,5.1394,5.1406,5.1387,5.1384,5.1374,5.1327,5.1305,5.1305,5.1307,5.13,5.13,5.13,5.13,5.13,5.13,5.13,5.13,5.13,5.13,5.13,5.13,5.13,5.13,5.13,5.13,5.13,5.13,5.13,5.13,5.13,5.13,5.13,5.13,5.13,5.13,5.13,5.13,5.13,5.0513,5.0513,5.0582,5.0815,5.0867,5.0944,5.1178,5.1199,5.1199,5.1199,5.1199,5.1199,5.1199,5.1199,5.1199,5.1199,5.1199,5.1199,5.1199,5.1199,5.1199,5.1199,5.1199,5.1199,5.1199,5.1199,5.1199,5.1199,5.1199,5.1199,5.1199,5.1199,5.1199,5.1199,5.1199,5.1199,5.1199,5.1199,5.1199,5.1199,5.1199,5.1199,5.1199,5.1199,5.1199,5.1199,5.1199,5.1199,5.1199,5.1199,5.1199,5.1199,5.1199,5.1199,5.1199,5.1199,5.1199,5.1199,5.1199,5.1224,5.1261,5.1338,5.1374,5.1394,5.1394,5.1394,5.1394,5.1394,5.1394,5.1394,5.1394,5.1394,5.1394,5.1394,5.1394,5.1394,5.1394,5.1394,5.1401,5.1395,5.1402,5.1406,5.1406,5.1346,5.13,5.13,5.1294,5.13,5.13,5.13,5.13,5.13,5.13,5.13,5.13,5.13,5.13,5.13,5.13,5.13,5.13,5.13,5.13,5.13,5.13,5.13,5.13,5.13,5.13,5.13,5.13,5.13,5.13,5.13,5.13,5.13,5.0337,5.0323,5.0416,5.0702,5.075,5.0851,5.1153,5.1199,5.1199,5.1199,5.1199,5.1199,5.1199,5.1199,5.1199,5.1199,5.1199,5.1199,5.1199,5.1199,5.1199,5.1199,5.1199,5.1199,5.1199,5.1199,5.1199,5.1199,5.1199,5.1199,5.1199,5.1199,5.1199,5.1199,5.1199,5.1199,5.1199,5.1199,5.1199,5.1199,5.1199,5.1199,5.1199,5.1199,5.1199,5.1199,5.1199,5.1199,5.1199,5.1199,5.1199,5.1199,5.1199,5.1199,5.1199,5.1199,5.1199,5.1202,5.1192,5.1259,5.1326,5.1384,5.1394,5.1394,5.1394,5.1394,5.1394,5.1394,5.1394,5.1394,5.1394,5.1394,5.1394,5.1394,5.1394,5.1394,5.1394,5.1394,5.1394,5.1394,5.1395,5.1402,5.1402,5.134,5.1314,5.1329,5.1307,5.129,5.13,5.13,5.13,5.13,5.13,5.13,5.13,5.13,5.13,5.13,5.13,5.13,5.13,5.13,5.13,5.13,5.13,5.13,5.13,5.13,5.13,5.13,5.13,5.13,5.13,5.13,5.13,5.13,5.0453,5.046,5.0567,5.0898,5.094,5.1004,5.1165,5.1199,5.1199,5.1199,5.1199,5.1199,5.1199,5.1199,5.1199,5.1199,5.1199,5.1199,5.1199,5.1199,5.1199,5.1199,5.1199,5.1199,5.1199,5.1199,5.1199,5.1199,5.1199,5.1199,5.1199,5.1199,5.1199,5.1199,5.1199,5.1199,5.1199,5.1199,5.1199,5.1199,5.1199,5.1199,5.1199,5.1199,5.1199,5.1199,5.1199,5.1199,5.1199,5.1199,5.1199,5.1199,5.1199,5.1199,5.1199,5.1199,5.1199,5.1192,5.1202,5.1288,5.1396,5.1408,5.1394,5.1394,5.1394,5.1394,5.1394,5.1394,5.1394,5.1394,5.1394,5.1394,5.1394,5.1394,5.1394,5.1394,5.1394,5.1394,5.1394,5.1394,5.1398,5.1402,5.1402,5.1383,5.1386,5.1376,5.1331,5.1292,5.1302,5.13,5.13,5.13,5.13,5.13,5.13,5.13,5.13,5.13,5.13,5.13,5.13,5.13,5.13,5.13,5.13,5.13,5.13,5.13,5.13,5.13,5.13,5.13,5.13,5.13,5.13,5.13,5.0385,5.0383,5.0464,5.07,5.0782,5.0894,5.1065,5.1146,5.1199,5.1199,5.1199,5.1199,5.1199,5.1199,5.1199,5.1199,5.1199,5.1199,5.1199,5.1199,5.1199,5.1199,5.1199,5.1199,5.1199,5.1199,5.1199,5.1199,5.1199,5.1199,5.1199,5.1199,5.1199,5.1199,5.1199,5.1199,5.1199,5.1199,5.1199,5.1199,5.1199,5.1199,5.1199,5.1199,5.1199,5.1199,5.1199,5.1199,5.1199,5.1199,5.1199,5.1199,5.1199,5.1199,5.1199,5.1199,5.1203,5.1202,5.1236,5.1335,5.1401,5.1408,5.1394,5.1394,5.1394,5.1394,5.1394,5.1394,5.1394,5.1394,5.1394,5.1394,5.1394,5.1394,5.1394,5.1394,5.1394,5.1394,5.1394,5.1394,5.1394,5.1394,5.1394,5.1397,5.1406,5.1406,5.1347,5.1292,5.1309,5.1298,5.13,5.13,5.13,5.1296,5.1307,5.1298,5.1298,5.1307,5.1296,5.13,5.13,5.13,5.13,5.13,5.13,5.13,5.13,5.13,5.13,5.13,5.13,5.13,5.13,5.13,5.13,5.13,5.0335,5.0346,5.0383,5.0513,5.0671,5.0819,5.0975,5.1118,5.1199,5.1199,5.1199,5.1199,5.1199,5.1199,5.1199,5.1199,5.1199,5.1199,5.1199,5.1199,5.1199,5.1199,5.1199,5.1199,5.1199,5.1199,5.1199,5.1199,5.1199,5.1199,5.1199,5.1199,5.1199,5.1199,5.1199,5.1199,5.1199,5.1199,5.1199,5.1199,5.1199,5.1199,5.1199,5.1199,5.1199,5.1199,5.1199,5.1199,5.1199,5.1199,5.1199,5.1199,5.1199,5.1199,5.1199,5.1199,5.1203,5.1201,5.1288,5.1348,5.1401,5.1408,5.1394,5.1394,5.1394,5.1394,5.1394,5.1394,5.1394,5.1394,5.1394,5.1394,5.1394,5.1394,0.0,5.1394,5.1394,5.1394,5.1394,5.1394,5.1394,5.1394,5.1394,5.1393,5.1402,5.1404,5.1341,5.1317,5.1301,5.1306,5.1296,5.13,5.13,5.1303,5.1305,5.1303,5.1303,5.1305,5.1303,5.13,5.13,5.13,5.13,5.13,5.13,5.13,5.13,5.13,5.13,5.13,5.13,5.13,5.13,5.13,5.13,5.13,5.045,5.0481,5.0537,5.0656,5.0855,5.0978,5.1005,5.1118,5.1199,5.1199,5.1199,5.1199,5.1199,5.1199,5.1199,5.1199,5.1199,5.1199,5.1199,5.1199,5.1199,5.1199,5.1199,5.1199,5.1199,5.1199,5.1199,5.1199,5.1199,5.1199,5.1199,5.1199,5.1199,5.1199,5.1199,5.1199,5.1199,5.1199,5.1199,5.1199,5.1199,5.1199,5.1199,5.1199,5.1199,5.1199,5.1199,5.1199,5.1199,5.1199,5.1199,5.1199,5.1199,5.1199,5.1199,5.1199,5.1203,5.1201,5.1288,5.1348,5.1401,5.1408,5.1394,5.1394,5.1394,5.1394,5.1394,5.1394,5.1394,5.1394,5.1394,5.1394,5.1394,5.1394,5.1394,5.1394,5.1394,5.1394,5.1394,5.1394,5.1394,5.1394,5.1394,5.1396,5.1408,5.1404,5.1405,5.1365,5.1303,5.1297,5.1297,5.1302,5.13,5.1302,5.1306,5.1302,5.1302,5.1306,5.1302,5.13,5.13,5.13,5.13,5.13,5.13,5.13,5.13,5.13,5.13,5.13,5.13,5.13,5.13,5.13,5.13,5.13,5.0369,5.038,5.0388,5.0434,5.0643,5.0815,5.0815,5.1039,5.1199,5.1199,5.1199,5.1199,5.1199,5.1199,5.1199,5.1199,5.1199,5.1199,5.1199,5.1199,5.1199,5.1199,5.1199,5.1199,5.1199,5.1199,5.1199,5.1199,5.1199,5.1199,5.1199,5.1199,5.1199,5.1199,5.1199,5.1199,5.1199,5.1199,5.1199,5.1199,5.1199,5.1199,5.1199,5.1199,5.1199,5.1199,5.1199,5.1199,5.1199,5.1199,5.1199,5.1199,5.1199,5.1199,5.1199,5.1199,5.1197,5.1208,5.1225,5.131,5.1397,5.1408,5.1403,5.1394,5.1394,5.1394,5.1394,5.1394,5.1394,5.1394,5.1394,5.1394,5.1394,5.1394,5.1394,5.1394,5.1394,5.1394,5.1394,5.1394,5.1394,5.1402,5.1397,5.1398,5.14,5.1404,5.1406,5.1382,5.1369,5.1327,5.1305,5.13,5.13,5.1298,5.1294,5.13,5.13,5.1294,5.1298,5.1571,5.2097,5.1552,5.1591,5.2078,5.1532,5.13,5.13,5.13,5.13,5.13,5.13,5.13,5.13,5.13,5.13,5.13,5.0302,5.0302,5.0302,5.0302,5.0492,5.0647,5.0692,5.094,5.1146,5.1196,5.1199,5.1199,5.1199,5.1199,5.1199,5.1199,5.1199,5.1199,5.1199,5.1199,5.1199,5.1199,5.1199,5.1199,5.1199,5.1199,5.1199,5.1199,5.1199,5.1199,5.1199,5.1199,5.1199,5.1199,5.1199,5.1199,5.1199,5.1199,5.1199,5.1199,5.1199,5.1199,5.1199,5.1199,5.1199,5.1199,5.1199,5.1199,5.1199,5.1199,5.1199,5.1199,5.1199,5.1199,5.1199,5.1199,5.1199,5.1211,5.1192,5.1267,5.1348,5.1388,5.1409,5.1406,5.1392,5.1394,5.1394,5.1394,5.1394,5.1394,5.1394,5.1394,5.1394,5.1394,5.1394,5.1394,5.1394,5.1394,5.1394,5.1394,5.1394,5.1406,5.1404,5.1405,5.1405,5.1406,5.1403,5.1396,5.137,5.1312,5.13,5.13,5.13,5.1301,5.13,5.1301,5.1301,5.1298,5.1573,5.2019,5.2584,5.2253,5.2292,5.2565,5.1961,5.1552,5.13,5.13,5.13,5.13,5.13,5.13,5.13,5.13,5.13,5.1339,5.0302,5.0302,5.0302,5.0302,5.041,5.0557,5.0678,5.0871,5.1048,5.1187,5.1199,5.1199,5.1199,5.1199,5.1199,5.1199,5.1199,5.1199,5.1199,5.1199,5.1199,5.1199,5.1199,5.1199,5.1199,5.1199,5.1199,5.1199,5.1199,5.1199,5.1199,5.1199,5.1199,5.1199,5.1199,5.1199,5.1199,5.1199,5.1199,5.1199,5.1199,5.1199,5.1199,5.1199,5.1199,5.1199,5.1199,5.1199,5.1199,5.1199,5.1199,5.1199,5.1199,5.1199,5.1199,5.1199,5.1199,5.1199,5.1199,5.1206,5.1232,5.1377,5.1394,5.1401,5.1409,5.1394,5.1394,5.1394,5.1394,5.1394,5.1394,5.1394,5.1394,5.1394,5.1394,5.1394,5.1394,5.1394,5.1394,5.1394,5.1394,5.1406,5.1404,5.1405,5.1406,5.1399,5.1398,5.137,5.1302,5.1294,5.13,5.13,5.13,5.13,5.132,5.13,5.13,5.132,5.2195,5.2604,5.2643,5.3519,5.3422,5.2604,5.2604,5.2117,5.13,5.13,5.13,5.13,5.13,5.13,5.13,5.13,5.13,5.1415,5.0302,5.0302,5.0302,5.0302,5.041,5.0557,5.0678,5.0871,5.1048,5.1187,5.1199,5.1199,5.1199,5.1199,5.1199,5.1199,5.1199,5.1199,5.1199,5.1199,5.1199,5.1199,5.1199,5.1199,5.1199,5.1199,5.1199,5.1199,5.1199,5.1199,5.1199,5.1199,5.1199,5.1199,5.1199,5.1199,5.1199,5.1199,5.1199,5.1199,5.1199,5.1199,5.1199,5.1199,5.1199,5.1199,5.1199,5.1199,5.1199,5.1199,5.1199,5.1199,5.1199,5.1199,5.1199,5.1199,5.1199,5.1199,5.1199,5.1194,5.1208,5.1258,5.1337,5.1396,5.1405,5.1402,5.1394,5.1394,5.1394,5.1394,5.1394,5.1394,5.1394,5.1394,5.1394,5.1394,5.1394,5.1394,5.1394,5.1394,5.1394,5.1393,5.1405,5.1404,5.1379,5.1338,5.1335,5.1311,5.1301,5.1294,5.13,5.13,5.13,5.1591,5.2214,5.161,5.161,5.2214,5.2487,5.3247,5.4416,5.4065,5.3753,5.3481,5.2877,5.2117,5.13,5.13,5.13,5.13,5.13,5.13,5.13,5.13,5.13,5.1415,5.0302,5.0302,5.0302,5.0302,5.0374,5.0486,5.067,5.0807,5.0959,5.1165,5.1199,5.1199,5.1199,5.1199,5.1199,5.1199,5.1199,5.1199,5.1199,5.1199,5.1199,5.1199,5.1199,5.1199,5.1199,5.1199,5.1199,5.1199,5.1199,5.1199,5.1199,5.1199,5.1199,5.1199,5.1199,5.1199,5.1199,5.1199,5.1199,5.1199,5.1199,5.1199,5.1199,5.1199,5.1199,5.1199,5.1199,5.1199,5.1199,5.1199,5.1199,5.1199,5.1199,5.1199,5.1199,5.1199,5.1199,5.1199,5.1199,5.1199,5.1208,5.1206,5.1274,5.1377,5.1391,5.1396,5.1394,5.1394,5.1394,5.1394,5.1394,5.1394,5.1394,5.1394,5.1394,5.1394,5.1394,5.1394,5.1399,5.1409,5.1402,5.1397,5.1353,5.1375,5.1367,5.1318,5.1294,5.1294,5.1294,5.1301,5.13,5.13,5.163,5.2078,5.2584,5.2428,5.2584,5.311,5.3461,5.4182,5.5195,5.5002,5.4554,5.387,5.3344,5.2428,5.13,5.13,5.13,5.13,5.13,5.13,5.13,5.13,5.13,5.1476,5.0302,5.0302,5.0302,5.0302,5.0302,5.0383,5.0638,5.0692,5.0812,5.1143,5.1196,5.1199,5.1199,5.1199,5.1199,5.1199,5.1199,5.1199,5.1199,5.1199,5.1199,5.1199,5.1199,5.1199,5.1199,5.1199,5.1199,5.1199,5.1199,5.1199,5.1199,5.1199,5.1199,5.1199,5.1199,5.1199,5.1199,5.1199,5.1199,5.1199,5.1199,5.1199,5.1199,5.1199,5.1199,5.1199,5.1199,5.1199,5.1199,5.1199,5.1199,5.1199,5.1199,5.1199,5.1199,5.1199,5.1199,5.1199,5.1199,5.1199,5.1199,5.1199,5.1245,5.1304,5.1382,5.1394,5.1392,5.1393,5.1394,5.1394,5.1394,5.1394,5.1394,5.1394,5.1394,5.1394,5.1394,5.1394,5.1404,5.1402,5.1392,5.1382,5.1314,5.1364,5.1374,5.1308,5.13,5.13,5.13,5.13,5.1339,5.1417,5.2195,5.2662,5.2838,5.3617,5.4026,5.4026,5.4825,5.5234,5.5331,5.6134,5.555,5.3909,5.3909,5.2916,5.13,5.13,5.13,5.13,5.13,5.13,5.13,5.13,5.13,5.1552,5.0302,5.0302,5.0302,5.0302,5.0302,5.0357,5.0527,5.0624,5.0779,5.1007,5.1134,5.1199,5.1199,5.1199,5.1199,5.1199,5.1199,5.1199,5.1199,5.1199,5.1199,5.1199,5.1199,5.1199,5.1199,5.1199,5.1199,5.1199,5.1199,5.1199,5.1199,5.1199,5.1199,5.1199,5.1199,5.1199,5.1199,5.1199,5.1199,5.1199,5.1199,5.1199,5.1199,5.1199,5.1199,5.1199,5.1199,5.1199,5.1199,5.1199,5.1199,5.1199,5.1199,5.1199,5.1199,5.1199,5.1199,5.1199,5.1199,5.1199,5.1199,5.1199,5.1216,5.1239,5.1304,5.1361,5.139,5.139,5.1394,5.1394,5.1394,5.1394,5.1394,5.1394,5.1394,5.1394,5.1394,5.1394,5.1396,5.1403,5.1396,5.1386,5.1376,5.1335,5.1328,5.1302,5.13,5.13,5.13,5.13,5.161,5.2292,5.2506,5.3266,5.463,5.4825,5.4922,5.4922,5.5117,5.5567,5.6212,5.6407,5.555,5.3909,5.3909,5.2916,5.13,5.13,5.13,5.13,5.13,5.13,5.13,5.13,5.13,5.1552,5.0302,5.0302,5.0302,5.0302,5.0302,5.034,5.0476,5.0601,5.0767,5.0971,5.1121,5.1199,5.1199,5.1199,5.1199,5.1199,5.1199,5.1199,5.1199,5.1199,5.1199,5.1199,5.1199,5.1199,5.1199,5.1199,5.1199,5.1199,5.1199,5.1199,5.1199,5.1199,5.1199,5.1199,5.1199,5.1199,5.1199,5.1199,5.1199,5.1199,5.1199,5.1199,5.1199,5.1199,5.1199,5.1199,5.1199,5.1199,5.1199,5.1199,5.1199,5.1199,5.1199,5.1199,5.1199,5.1199,5.1199,5.1199,5.1199,5.1199,5.1199,5.1199,5.1206,5.1205,5.1236,5.1337,5.1399,5.1394,5.1407,5.1394,5.1394,5.1394,5.1394,5.1394,5.1394,5.1394,5.1394,5.1394,5.1404,5.1402,5.1404,5.1386,5.1367,5.1312,5.13,5.13,5.13,5.1292,5.1301,5.1296,5.1703,5.2568,5.3009,5.3851,5.5195,5.5606,5.5821,5.5821,5.5821,5.6057,5.6507,5.6507,5.5784,5.4494,5.4084,5.3149,5.1883,5.1476,5.13,5.13,5.13,5.13,5.13,5.13,5.1824,5.2662,5.0302,5.0302,5.0302,5.0302,5.0302,5.0329,5.0458,5.0582,5.0733,5.0921,5.1075,5.1162,5.1199,5.1199,5.1199,5.1199,5.1199,5.1199,5.1199,5.1199,5.1199,5.1199,5.1199,5.1199,5.1199,5.1199,5.1199,5.1199,5.1199,5.1199,5.1199,5.1199,5.1199,5.1199,5.1199,5.1199,5.1199,5.1199,5.1199,5.1199,5.1199,5.1199,5.1199,5.1199,5.1199,5.1199,5.1199,5.1199,5.1199,5.1199,5.1199,5.1199,5.1199,5.1199,5.1199,5.1199,5.1199,5.1199,5.1199,5.1199,5.1199,5.1199,5.1199,5.1194,5.1205,5.1284,5.1361,5.1391,5.1394,5.1409,5.1393,5.1394,5.1394,5.1394,5.1394,5.1394,5.1394,5.1399,5.1396,5.1404,5.1386,5.1363,5.1316,5.1291,5.13,5.13,5.13,5.1303,5.1307,5.1434,5.1923,5.278,5.368,5.4549,5.5406,5.6139,5.6507,5.6507,5.6507,5.6507,5.6507,5.6507,5.6018,5.5156,5.4279,5.3403,5.2526,5.1669,5.13,5.13,5.13,5.13,5.13,5.13,5.2409,5.3909,5.0302,5.0302,5.0302,5.0302,5.0302,5.0308,5.0312,5.0448,5.0572,5.0728,5.0917,5.1065,5.119,5.1199,5.1199,5.1199,5.1199,5.1199,5.1199,5.1199,5.1199,5.1199,5.1199,5.1199,5.1199,5.1199,5.1199,5.1199,5.1199,5.1199,5.1199,5.1199,5.1199,5.1199,5.1199,5.1199,5.1199,5.1199,5.1199,5.1199,5.1199,5.1199,5.1199,5.1199,5.1199,5.1199,5.1199,5.1199,5.1199,5.1199,5.1199,5.1199,5.1199,5.1199,5.1199,5.1199,5.1199,5.1199,5.1199,5.1199,5.1199,5.1199,5.1199,5.1202,5.1192,5.1205,5.1254,5.1382,5.1397,5.1408,5.139,5.1394,5.1394,5.1394,5.1394,5.1394,5.1394,5.1395,5.1404,5.1406,5.1357,5.1317,5.13,5.1304,5.13,5.13,5.13,5.1304,5.1292,5.2017,5.2818,5.37,5.4571,5.5445,5.6323,5.6435,5.6507,5.6507,5.6507,5.6507,5.6507,5.6507,5.6018,5.5156,5.4279,5.3403,5.2526,5.1669,5.13,5.13,5.13,5.13,5.13,5.13,5.2409,5.3909,5.0302,5.0302,5.0302,5.0302,5.0302,5.0302,5.0302,5.041,5.0543,5.0683,5.0875,5.1048,5.119,5.1199,5.1199,5.1199,5.1199,5.1199,5.1199,5.1199,5.1199,5.1199,5.1199,5.1199,5.1199,5.1199,5.1199,5.1199,5.1199,5.1199,5.1199,5.1199,5.1199,5.1199,5.1199,5.1199,5.1199,5.1199,5.1199,5.1199,5.1199,5.1199,5.1199,5.1199,5.1199,5.1199,5.1199,5.1199,5.1199,5.1199,5.1199,5.1199,5.1199,5.1199,5.1199,5.1199,5.1199,5.1199,5.1199,5.1199,5.1199,5.1199,5.1206,5.1203,5.1208,5.1232,5.1263,5.1339,5.1376,5.1402,5.1392,5.1394,5.1394,5.1394,5.1394,5.1394,5.1394,5.1397,5.1387,5.1359,5.1321,5.1291,5.1302,5.1291,5.1297,5.1302,5.1292,5.1309,5.1309,5.2123,5.299,5.3873,5.4746,5.5628,5.6487,5.65,5.6507,5.6507,5.6507,5.6507,5.6507,5.6507,5.629,5.584,5.4494,5.3675,5.3227,5.1863,5.13,5.13,5.13,5.13,5.13,5.13,5.2097,5.3247]}]]